<?xml version="1.0" encoding="UTF-8" standalone="no" ?>
<gpx xmlns="http://www.topografix.com/GPX/1/1" xmlns:xsi="http://www.w3.org/2001/XMLSchema-instance" xsi:schemaLocation="http://www.topografix.com/GPX/1/1 http://www.topografix.com/GPX/1/1/gpx.xsd" version="1.1" creator="VisuGPX - https://www.visugpx.com">
  <metadata>
    <name>Hivernale de Larchant 2013</name>
    <desc><![CDATA[La plus belle rando d'Ile de France, mais aussi la plus difficile.
Attention: certains chemins privés sont interdits en temps normal.
Cette trace ne peut être suivie que dans le cadre de l'hivernale.]]></desc>
  </metadata>
  <trk>
    <name><![CDATA[Untitled]]></name>
    <trkseg>
      <trkpt lat="48.28303" lon="2.59804">
        <ele>75.599998474121</ele>
        <time>2013-02-03T08:47:28Z</time>
      </trkpt>
      <trkpt lat="48.28288" lon="2.59817">
        <ele>76.199996948242</ele>
        <time>2013-02-03T08:47:34Z</time>
      </trkpt>
      <trkpt lat="48.2826" lon="2.59833">
        <ele>77.400001525879</ele>
        <time>2013-02-03T08:47:42Z</time>
      </trkpt>
      <trkpt lat="48.28231" lon="2.59851">
        <ele>79.199996948242</ele>
        <time>2013-02-03T08:47:51Z</time>
      </trkpt>
      <trkpt lat="48.28206" lon="2.59865">
        <ele>80.599998474121</ele>
        <time>2013-02-03T08:47:59Z</time>
      </trkpt>
      <trkpt lat="48.28193" lon="2.59862">
        <ele>81.599998474121</ele>
        <time>2013-02-03T08:48:03Z</time>
      </trkpt>
      <trkpt lat="48.28178" lon="2.59852">
        <ele>83.199996948242</ele>
        <time>2013-02-03T08:48:08Z</time>
      </trkpt>
      <trkpt lat="48.2816" lon="2.5984">
        <ele>84.800003051758</ele>
        <time>2013-02-03T08:48:14Z</time>
      </trkpt>
      <trkpt lat="48.28142" lon="2.59828">
        <ele>86.199996948242</ele>
        <time>2013-02-03T08:48:20Z</time>
      </trkpt>
      <trkpt lat="48.28121" lon="2.59818">
        <ele>87.599998474121</ele>
        <time>2013-02-03T08:48:27Z</time>
      </trkpt>
      <trkpt lat="48.28092" lon="2.59807">
        <ele>89.800003051758</ele>
        <time>2013-02-03T08:48:36Z</time>
      </trkpt>
      <trkpt lat="48.28075" lon="2.59795">
        <ele>91.800003051758</ele>
        <time>2013-02-03T08:48:42Z</time>
      </trkpt>
      <trkpt lat="48.28059" lon="2.59772">
        <ele>94.800003051758</ele>
        <time>2013-02-03T08:48:49Z</time>
      </trkpt>
      <trkpt lat="48.28048" lon="2.59756">
        <ele>96.599998474121</ele>
        <time>2013-02-03T08:48:54Z</time>
      </trkpt>
      <trkpt lat="48.28046" lon="2.59753">
        <ele>97</ele>
        <time>2013-02-03T08:48:55Z</time>
      </trkpt>
      <trkpt lat="48.2803" lon="2.59726">
        <ele>99.400001525879</ele>
        <time>2013-02-03T08:49:02Z</time>
      </trkpt>
      <trkpt lat="48.28016" lon="2.59702">
        <ele>101.40000152588</ele>
        <time>2013-02-03T08:49:08Z</time>
      </trkpt>
      <trkpt lat="48.28002" lon="2.59686">
        <ele>103</ele>
        <time>2013-02-03T08:49:14Z</time>
      </trkpt>
      <trkpt lat="48.27988" lon="2.59669">
        <ele>104.19999694824</ele>
        <time>2013-02-03T08:49:20Z</time>
      </trkpt>
      <trkpt lat="48.27975" lon="2.59655">
        <ele>106</ele>
        <time>2013-02-03T08:49:26Z</time>
      </trkpt>
      <trkpt lat="48.27966" lon="2.59642">
        <ele>107.40000152588</ele>
        <time>2013-02-03T08:49:30Z</time>
      </trkpt>
      <trkpt lat="48.27954" lon="2.59622">
        <ele>109.40000152588</ele>
        <time>2013-02-03T08:49:37Z</time>
      </trkpt>
      <trkpt lat="48.27947" lon="2.59615">
        <ele>110.19999694824</ele>
        <time>2013-02-03T08:49:42Z</time>
      </trkpt>
      <trkpt lat="48.27944" lon="2.59608">
        <ele>110.80000305176</ele>
        <time>2013-02-03T08:49:46Z</time>
      </trkpt>
      <trkpt lat="48.27938" lon="2.59597">
        <ele>111.80000305176</ele>
        <time>2013-02-03T08:49:52Z</time>
      </trkpt>
      <trkpt lat="48.27934" lon="2.59587">
        <ele>112.59999847412</ele>
        <time>2013-02-03T08:49:59Z</time>
      </trkpt>
      <trkpt lat="48.27933" lon="2.59585">
        <ele>112.80000305176</ele>
        <time>2013-02-03T08:50:00Z</time>
      </trkpt>
      <trkpt lat="48.27928" lon="2.59568">
        <ele>113.40000152588</ele>
        <time>2013-02-03T08:50:10Z</time>
      </trkpt>
      <trkpt lat="48.27927" lon="2.59553">
        <ele>114</ele>
        <time>2013-02-03T08:50:18Z</time>
      </trkpt>
      <trkpt lat="48.27922" lon="2.59552">
        <ele>114</ele>
        <time>2013-02-03T08:50:24Z</time>
      </trkpt>
      <trkpt lat="48.27917" lon="2.59547">
        <ele>114.19999694824</ele>
        <time>2013-02-03T08:50:28Z</time>
      </trkpt>
      <trkpt lat="48.27911" lon="2.59534">
        <ele>114.80000305176</ele>
        <time>2013-02-03T08:50:34Z</time>
      </trkpt>
      <trkpt lat="48.27908" lon="2.59529">
        <ele>115.19999694824</ele>
        <time>2013-02-03T08:50:37Z</time>
      </trkpt>
      <trkpt lat="48.27904" lon="2.59535">
        <ele>115</ele>
        <time>2013-02-03T08:50:43Z</time>
      </trkpt>
      <trkpt lat="48.27902" lon="2.59544">
        <ele>114.80000305176</ele>
        <time>2013-02-03T08:50:48Z</time>
      </trkpt>
      <trkpt lat="48.27896" lon="2.59563">
        <ele>114.59999847412</ele>
        <time>2013-02-03T08:50:54Z</time>
      </trkpt>
      <trkpt lat="48.27892" lon="2.59577">
        <ele>114.19999694824</ele>
        <time>2013-02-03T08:50:59Z</time>
      </trkpt>
      <trkpt lat="48.27889" lon="2.59588">
        <ele>114</ele>
        <time>2013-02-03T08:51:04Z</time>
      </trkpt>
      <trkpt lat="48.27882" lon="2.59599">
        <ele>113.59999847412</ele>
        <time>2013-02-03T08:51:09Z</time>
      </trkpt>
      <trkpt lat="48.27881" lon="2.59609">
        <ele>113</ele>
        <time>2013-02-03T08:51:13Z</time>
      </trkpt>
      <trkpt lat="48.27874" lon="2.59621">
        <ele>112.80000305176</ele>
        <time>2013-02-03T08:51:18Z</time>
      </trkpt>
      <trkpt lat="48.27871" lon="2.59635">
        <ele>112</ele>
        <time>2013-02-03T08:51:23Z</time>
      </trkpt>
      <trkpt lat="48.27868" lon="2.59649">
        <ele>111.40000152588</ele>
        <time>2013-02-03T08:51:27Z</time>
      </trkpt>
      <trkpt lat="48.27861" lon="2.59668">
        <ele>110.80000305176</ele>
        <time>2013-02-03T08:51:32Z</time>
      </trkpt>
      <trkpt lat="48.27855" lon="2.59682">
        <ele>111.19999694824</ele>
        <time>2013-02-03T08:51:37Z</time>
      </trkpt>
      <trkpt lat="48.2785" lon="2.59684">
        <ele>111.59999847412</ele>
        <time>2013-02-03T08:51:41Z</time>
      </trkpt>
      <trkpt lat="48.27845" lon="2.59685">
        <ele>112</ele>
        <time>2013-02-03T08:51:47Z</time>
      </trkpt>
      <trkpt lat="48.2784" lon="2.59681">
        <ele>112.19999694824</ele>
        <time>2013-02-03T08:51:52Z</time>
      </trkpt>
      <trkpt lat="48.27831" lon="2.59676">
        <ele>112.80000305176</ele>
        <time>2013-02-03T08:51:56Z</time>
      </trkpt>
      <trkpt lat="48.27823" lon="2.59676">
        <ele>113.19999694824</ele>
        <time>2013-02-03T08:52:00Z</time>
      </trkpt>
      <trkpt lat="48.27821" lon="2.59677">
        <ele>113.19999694824</ele>
        <time>2013-02-03T08:52:05Z</time>
      </trkpt>
      <trkpt lat="48.2782" lon="2.59678">
        <ele>113.19999694824</ele>
        <time>2013-02-03T08:52:11Z</time>
      </trkpt>
      <trkpt lat="48.27817" lon="2.59681">
        <ele>113.19999694824</ele>
        <time>2013-02-03T08:52:17Z</time>
      </trkpt>
      <trkpt lat="48.27814" lon="2.59693">
        <ele>113.19999694824</ele>
        <time>2013-02-03T08:52:23Z</time>
      </trkpt>
      <trkpt lat="48.27816" lon="2.59707">
        <ele>113</ele>
        <time>2013-02-03T08:52:28Z</time>
      </trkpt>
      <trkpt lat="48.2782" lon="2.59733">
        <ele>112.40000152588</ele>
        <time>2013-02-03T08:52:33Z</time>
      </trkpt>
      <trkpt lat="48.27821" lon="2.59745">
        <ele>112.19999694824</ele>
        <time>2013-02-03T08:52:36Z</time>
      </trkpt>
      <trkpt lat="48.27829" lon="2.59754">
        <ele>112.19999694824</ele>
        <time>2013-02-03T08:52:41Z</time>
      </trkpt>
      <trkpt lat="48.27827" lon="2.59769">
        <ele>113.19999694824</ele>
        <time>2013-02-03T08:52:46Z</time>
      </trkpt>
      <trkpt lat="48.27825" lon="2.59776">
        <ele>113.59999847412</ele>
        <time>2013-02-03T08:52:50Z</time>
      </trkpt>
      <trkpt lat="48.27829" lon="2.59782">
        <ele>113.80000305176</ele>
        <time>2013-02-03T08:52:54Z</time>
      </trkpt>
      <trkpt lat="48.27831" lon="2.59787">
        <ele>114.19999694824</ele>
        <time>2013-02-03T08:52:56Z</time>
      </trkpt>
      <trkpt lat="48.27833" lon="2.59793">
        <ele>114.40000152588</ele>
        <time>2013-02-03T08:52:58Z</time>
      </trkpt>
      <trkpt lat="48.27831" lon="2.59807">
        <ele>115.40000152588</ele>
        <time>2013-02-03T08:53:03Z</time>
      </trkpt>
      <trkpt lat="48.27831" lon="2.59818">
        <ele>116</ele>
        <time>2013-02-03T08:53:08Z</time>
      </trkpt>
      <trkpt lat="48.2783" lon="2.59824">
        <ele>116.19999694824</ele>
        <time>2013-02-03T08:53:10Z</time>
      </trkpt>
      <trkpt lat="48.27828" lon="2.59829">
        <ele>116.59999847412</ele>
        <time>2013-02-03T08:53:14Z</time>
      </trkpt>
      <trkpt lat="48.27826" lon="2.59836">
        <ele>117</ele>
        <time>2013-02-03T08:53:21Z</time>
      </trkpt>
      <trkpt lat="48.27827" lon="2.59843">
        <ele>117.19999694824</ele>
        <time>2013-02-03T08:53:26Z</time>
      </trkpt>
      <trkpt lat="48.27828" lon="2.59843">
        <ele>117.40000152588</ele>
        <time>2013-02-03T08:53:27Z</time>
      </trkpt>
      <trkpt lat="48.27831" lon="2.59843">
        <ele>117.40000152588</ele>
        <time>2013-02-03T08:53:30Z</time>
      </trkpt>
      <trkpt lat="48.27838" lon="2.59827">
        <ele>116.40000152588</ele>
        <time>2013-02-03T08:53:35Z</time>
      </trkpt>
      <trkpt lat="48.27848" lon="2.59811">
        <ele>115</ele>
        <time>2013-02-03T08:53:41Z</time>
      </trkpt>
      <trkpt lat="48.27849" lon="2.59807">
        <ele>114.59999847412</ele>
        <time>2013-02-03T08:53:42Z</time>
      </trkpt>
      <trkpt lat="48.2786" lon="2.59799">
        <ele>113.59999847412</ele>
        <time>2013-02-03T08:53:47Z</time>
      </trkpt>
      <trkpt lat="48.27865" lon="2.59798">
        <ele>113.19999694824</ele>
        <time>2013-02-03T08:53:49Z</time>
      </trkpt>
      <trkpt lat="48.27877" lon="2.59813">
        <ele>113.80000305176</ele>
        <time>2013-02-03T08:53:55Z</time>
      </trkpt>
      <trkpt lat="48.27881" lon="2.59827">
        <ele>114.59999847412</ele>
        <time>2013-02-03T08:54:00Z</time>
      </trkpt>
      <trkpt lat="48.27885" lon="2.59838">
        <ele>115.19999694824</ele>
        <time>2013-02-03T08:54:04Z</time>
      </trkpt>
      <trkpt lat="48.27884" lon="2.59843">
        <ele>115.40000152588</ele>
        <time>2013-02-03T08:54:06Z</time>
      </trkpt>
      <trkpt lat="48.27883" lon="2.59848">
        <ele>115.59999847412</ele>
        <time>2013-02-03T08:54:08Z</time>
      </trkpt>
      <trkpt lat="48.27883" lon="2.59856">
        <ele>115.80000305176</ele>
        <time>2013-02-03T08:54:11Z</time>
      </trkpt>
      <trkpt lat="48.2788" lon="2.59865">
        <ele>116.19999694824</ele>
        <time>2013-02-03T08:54:15Z</time>
      </trkpt>
      <trkpt lat="48.27877" lon="2.59867">
        <ele>116.59999847412</ele>
        <time>2013-02-03T08:54:18Z</time>
      </trkpt>
      <trkpt lat="48.27871" lon="2.59859">
        <ele>116.59999847412</ele>
        <time>2013-02-03T08:54:23Z</time>
      </trkpt>
      <trkpt lat="48.27868" lon="2.59862">
        <ele>116.80000305176</ele>
        <time>2013-02-03T08:54:26Z</time>
      </trkpt>
      <trkpt lat="48.27871" lon="2.59879">
        <ele>117.19999694824</ele>
        <time>2013-02-03T08:54:33Z</time>
      </trkpt>
      <trkpt lat="48.27873" lon="2.59891">
        <ele>117.59999847412</ele>
        <time>2013-02-03T08:54:37Z</time>
      </trkpt>
      <trkpt lat="48.27872" lon="2.59914">
        <ele>118.40000152588</ele>
        <time>2013-02-03T08:54:42Z</time>
      </trkpt>
      <trkpt lat="48.27872" lon="2.59919">
        <ele>118.59999847412</ele>
        <time>2013-02-03T08:54:43Z</time>
      </trkpt>
      <trkpt lat="48.27874" lon="2.59931">
        <ele>118.80000305176</ele>
        <time>2013-02-03T08:54:46Z</time>
      </trkpt>
      <trkpt lat="48.27882" lon="2.59934">
        <ele>118.40000152588</ele>
        <time>2013-02-03T08:54:51Z</time>
      </trkpt>
      <trkpt lat="48.27893" lon="2.59938">
        <ele>118</ele>
        <time>2013-02-03T08:54:55Z</time>
      </trkpt>
      <trkpt lat="48.279" lon="2.59937">
        <ele>117.59999847412</ele>
        <time>2013-02-03T08:54:59Z</time>
      </trkpt>
      <trkpt lat="48.27899" lon="2.59934">
        <ele>117.59999847412</ele>
        <time>2013-02-03T08:55:00Z</time>
      </trkpt>
      <trkpt lat="48.27896" lon="2.59924">
        <ele>117.40000152588</ele>
        <time>2013-02-03T08:55:04Z</time>
      </trkpt>
      <trkpt lat="48.279" lon="2.59914">
        <ele>116.80000305176</ele>
        <time>2013-02-03T08:55:08Z</time>
      </trkpt>
      <trkpt lat="48.27903" lon="2.59892">
        <ele>116</ele>
        <time>2013-02-03T08:55:13Z</time>
      </trkpt>
      <trkpt lat="48.27905" lon="2.59883">
        <ele>115.59999847412</ele>
        <time>2013-02-03T08:55:15Z</time>
      </trkpt>
      <trkpt lat="48.27918" lon="2.59872">
        <ele>114.59999847412</ele>
        <time>2013-02-03T08:55:21Z</time>
      </trkpt>
      <trkpt lat="48.27926" lon="2.59875">
        <ele>112.80000305176</ele>
        <time>2013-02-03T08:55:23Z</time>
      </trkpt>
      <trkpt lat="48.27936" lon="2.59881">
        <ele>111</ele>
        <time>2013-02-03T08:55:26Z</time>
      </trkpt>
      <trkpt lat="48.27941" lon="2.59878">
        <ele>109.80000305176</ele>
        <time>2013-02-03T08:55:28Z</time>
      </trkpt>
      <trkpt lat="48.27954" lon="2.59882">
        <ele>107.19999694824</ele>
        <time>2013-02-03T08:55:32Z</time>
      </trkpt>
      <trkpt lat="48.27978" lon="2.59881">
        <ele>102.19999694824</ele>
        <time>2013-02-03T08:55:37Z</time>
      </trkpt>
      <trkpt lat="48.27997" lon="2.59879">
        <ele>98.199996948242</ele>
        <time>2013-02-03T08:55:41Z</time>
      </trkpt>
      <trkpt lat="48.28006" lon="2.5988">
        <ele>96.800003051758</ele>
        <time>2013-02-03T08:55:43Z</time>
      </trkpt>
      <trkpt lat="48.28023" lon="2.59883">
        <ele>94.599998474121</ele>
        <time>2013-02-03T08:55:47Z</time>
      </trkpt>
      <trkpt lat="48.2803" lon="2.59884">
        <ele>93.599998474121</ele>
        <time>2013-02-03T08:55:49Z</time>
      </trkpt>
      <trkpt lat="48.28048" lon="2.5989">
        <ele>91.199996948242</ele>
        <time>2013-02-03T08:55:53Z</time>
      </trkpt>
      <trkpt lat="48.28061" lon="2.59892">
        <ele>89.400001525879</ele>
        <time>2013-02-03T08:55:56Z</time>
      </trkpt>
      <trkpt lat="48.2808" lon="2.59905">
        <ele>86.599998474121</ele>
        <time>2013-02-03T08:56:01Z</time>
      </trkpt>
      <trkpt lat="48.28094" lon="2.59928">
        <ele>85.199996948242</ele>
        <time>2013-02-03T08:56:07Z</time>
      </trkpt>
      <trkpt lat="48.28091" lon="2.59948">
        <ele>85.400001525879</ele>
        <time>2013-02-03T08:56:11Z</time>
      </trkpt>
      <trkpt lat="48.28084" lon="2.59978">
        <ele>85.800003051758</ele>
        <time>2013-02-03T08:56:18Z</time>
      </trkpt>
      <trkpt lat="48.28074" lon="2.59999">
        <ele>87.199996948242</ele>
        <time>2013-02-03T08:56:24Z</time>
      </trkpt>
      <trkpt lat="48.28059" lon="2.60016">
        <ele>89.199996948242</ele>
        <time>2013-02-03T08:56:30Z</time>
      </trkpt>
      <trkpt lat="48.28044" lon="2.60035">
        <ele>90.599998474121</ele>
        <time>2013-02-03T08:56:36Z</time>
      </trkpt>
      <trkpt lat="48.28036" lon="2.60045">
        <ele>91</ele>
        <time>2013-02-03T08:56:40Z</time>
      </trkpt>
      <trkpt lat="48.28019" lon="2.60064">
        <ele>91.400001525879</ele>
        <time>2013-02-03T08:56:47Z</time>
      </trkpt>
      <trkpt lat="48.28002" lon="2.60082">
        <ele>91</ele>
        <time>2013-02-03T08:56:54Z</time>
      </trkpt>
      <trkpt lat="48.27978" lon="2.60107">
        <ele>95</ele>
        <time>2013-02-03T08:57:03Z</time>
      </trkpt>
      <trkpt lat="48.27957" lon="2.6013">
        <ele>97.800003051758</ele>
        <time>2013-02-03T08:57:12Z</time>
      </trkpt>
      <trkpt lat="48.27942" lon="2.60146">
        <ele>99.199996948242</ele>
        <time>2013-02-03T08:57:18Z</time>
      </trkpt>
      <trkpt lat="48.27929" lon="2.60157">
        <ele>100.19999694824</ele>
        <time>2013-02-03T08:57:23Z</time>
      </trkpt>
      <trkpt lat="48.27919" lon="2.60164">
        <ele>101</ele>
        <time>2013-02-03T08:57:28Z</time>
      </trkpt>
      <trkpt lat="48.27911" lon="2.60163">
        <ele>101.80000305176</ele>
        <time>2013-02-03T08:57:33Z</time>
      </trkpt>
      <trkpt lat="48.27897" lon="2.60165">
        <ele>102.59999847412</ele>
        <time>2013-02-03T08:57:39Z</time>
      </trkpt>
      <trkpt lat="48.27882" lon="2.60169">
        <ele>103.19999694824</ele>
        <time>2013-02-03T08:57:45Z</time>
      </trkpt>
      <trkpt lat="48.27873" lon="2.6017">
        <ele>103.80000305176</ele>
        <time>2013-02-03T08:57:49Z</time>
      </trkpt>
      <trkpt lat="48.27859" lon="2.60171">
        <ele>104.80000305176</ele>
        <time>2013-02-03T08:57:56Z</time>
      </trkpt>
      <trkpt lat="48.27844" lon="2.60179">
        <ele>105</ele>
        <time>2013-02-03T08:58:02Z</time>
      </trkpt>
      <trkpt lat="48.27832" lon="2.60181">
        <ele>105.59999847412</ele>
        <time>2013-02-03T08:58:08Z</time>
      </trkpt>
      <trkpt lat="48.2783" lon="2.60181">
        <ele>105.80000305176</ele>
        <time>2013-02-03T08:58:09Z</time>
      </trkpt>
      <trkpt lat="48.2782" lon="2.60184">
        <ele>106.59999847412</ele>
        <time>2013-02-03T08:58:14Z</time>
      </trkpt>
      <trkpt lat="48.27804" lon="2.60192">
        <ele>107.59999847412</ele>
        <time>2013-02-03T08:58:21Z</time>
      </trkpt>
      <trkpt lat="48.27793" lon="2.60198">
        <ele>108.19999694824</ele>
        <time>2013-02-03T08:58:27Z</time>
      </trkpt>
      <trkpt lat="48.27783" lon="2.60202">
        <ele>109.19999694824</ele>
        <time>2013-02-03T08:58:33Z</time>
      </trkpt>
      <trkpt lat="48.27774" lon="2.60202">
        <ele>110.19999694824</ele>
        <time>2013-02-03T08:58:39Z</time>
      </trkpt>
      <trkpt lat="48.27762" lon="2.60205">
        <ele>111.40000152588</ele>
        <time>2013-02-03T08:58:47Z</time>
      </trkpt>
      <trkpt lat="48.27754" lon="2.60204">
        <ele>112.19999694824</ele>
        <time>2013-02-03T08:58:53Z</time>
      </trkpt>
      <trkpt lat="48.27745" lon="2.60204">
        <ele>113</ele>
        <time>2013-02-03T08:58:59Z</time>
      </trkpt>
      <trkpt lat="48.27743" lon="2.60202">
        <ele>113.19999694824</ele>
        <time>2013-02-03T08:59:01Z</time>
      </trkpt>
      <trkpt lat="48.27733" lon="2.60204">
        <ele>113.80000305176</ele>
        <time>2013-02-03T08:59:09Z</time>
      </trkpt>
      <trkpt lat="48.2772" lon="2.60207">
        <ele>114.40000152588</ele>
        <time>2013-02-03T08:59:16Z</time>
      </trkpt>
      <trkpt lat="48.27707" lon="2.60213">
        <ele>115</ele>
        <time>2013-02-03T08:59:23Z</time>
      </trkpt>
      <trkpt lat="48.27702" lon="2.60216">
        <ele>115.40000152588</ele>
        <time>2013-02-03T08:59:27Z</time>
      </trkpt>
      <trkpt lat="48.2769" lon="2.60219">
        <ele>116.19999694824</ele>
        <time>2013-02-03T08:59:35Z</time>
      </trkpt>
      <trkpt lat="48.27678" lon="2.60218">
        <ele>117</ele>
        <time>2013-02-03T08:59:42Z</time>
      </trkpt>
      <trkpt lat="48.27668" lon="2.60222">
        <ele>117.80000305176</ele>
        <time>2013-02-03T08:59:48Z</time>
      </trkpt>
      <trkpt lat="48.27655" lon="2.60233">
        <ele>117.80000305176</ele>
        <time>2013-02-03T08:59:55Z</time>
      </trkpt>
      <trkpt lat="48.27641" lon="2.60246">
        <ele>117.59999847412</ele>
        <time>2013-02-03T09:00:02Z</time>
      </trkpt>
      <trkpt lat="48.27626" lon="2.60257">
        <ele>117.19999694824</ele>
        <time>2013-02-03T09:00:09Z</time>
      </trkpt>
      <trkpt lat="48.27607" lon="2.6027">
        <ele>116.80000305176</ele>
        <time>2013-02-03T09:00:17Z</time>
      </trkpt>
      <trkpt lat="48.27594" lon="2.6028">
        <ele>116.59999847412</ele>
        <time>2013-02-03T09:00:23Z</time>
      </trkpt>
      <trkpt lat="48.27578" lon="2.60289">
        <ele>116.40000152588</ele>
        <time>2013-02-03T09:00:30Z</time>
      </trkpt>
      <trkpt lat="48.27563" lon="2.60302">
        <ele>116.40000152588</ele>
        <time>2013-02-03T09:00:36Z</time>
      </trkpt>
      <trkpt lat="48.27547" lon="2.60316">
        <ele>116.40000152588</ele>
        <time>2013-02-03T09:00:42Z</time>
      </trkpt>
      <trkpt lat="48.27524" lon="2.60335">
        <ele>116.59999847412</ele>
        <time>2013-02-03T09:00:50Z</time>
      </trkpt>
      <trkpt lat="48.27493" lon="2.60355">
        <ele>117</ele>
        <time>2013-02-03T09:01:00Z</time>
      </trkpt>
      <trkpt lat="48.27472" lon="2.60371">
        <ele>116.59999847412</ele>
        <time>2013-02-03T09:01:07Z</time>
      </trkpt>
      <trkpt lat="48.27454" lon="2.60382">
        <ele>116</ele>
        <time>2013-02-03T09:01:13Z</time>
      </trkpt>
      <trkpt lat="48.2743" lon="2.604">
        <ele>115.40000152588</ele>
        <time>2013-02-03T09:01:21Z</time>
      </trkpt>
      <trkpt lat="48.27398" lon="2.60424">
        <ele>114.40000152588</ele>
        <time>2013-02-03T09:01:31Z</time>
      </trkpt>
      <trkpt lat="48.27373" lon="2.60442">
        <ele>113.59999847412</ele>
        <time>2013-02-03T09:01:39Z</time>
      </trkpt>
      <trkpt lat="48.27343" lon="2.60465">
        <ele>112.59999847412</ele>
        <time>2013-02-03T09:01:48Z</time>
      </trkpt>
      <trkpt lat="48.27313" lon="2.60488">
        <ele>112.19999694824</ele>
        <time>2013-02-03T09:01:57Z</time>
      </trkpt>
      <trkpt lat="48.27276" lon="2.60515">
        <ele>112.59999847412</ele>
        <time>2013-02-03T09:02:07Z</time>
      </trkpt>
      <trkpt lat="48.27253" lon="2.60528">
        <ele>112.80000305176</ele>
        <time>2013-02-03T09:02:14Z</time>
      </trkpt>
      <trkpt lat="48.27237" lon="2.60541">
        <ele>112.59999847412</ele>
        <time>2013-02-03T09:02:19Z</time>
      </trkpt>
      <trkpt lat="48.27221" lon="2.60562">
        <ele>112.19999694824</ele>
        <time>2013-02-03T09:02:25Z</time>
      </trkpt>
      <trkpt lat="48.27202" lon="2.60583">
        <ele>111.80000305176</ele>
        <time>2013-02-03T09:02:31Z</time>
      </trkpt>
      <trkpt lat="48.27198" lon="2.60587">
        <ele>111.40000152588</ele>
        <time>2013-02-03T09:02:32Z</time>
      </trkpt>
      <trkpt lat="48.27175" lon="2.60599">
        <ele>110.19999694824</ele>
        <time>2013-02-03T09:02:36Z</time>
      </trkpt>
      <trkpt lat="48.27154" lon="2.60609">
        <ele>109.40000152588</ele>
        <time>2013-02-03T09:02:39Z</time>
      </trkpt>
      <trkpt lat="48.27131" lon="2.60631">
        <ele>108.19999694824</ele>
        <time>2013-02-03T09:02:43Z</time>
      </trkpt>
      <trkpt lat="48.27123" lon="2.60641">
        <ele>107.59999847412</ele>
        <time>2013-02-03T09:02:45Z</time>
      </trkpt>
      <trkpt lat="48.27111" lon="2.60658">
        <ele>106.40000152588</ele>
        <time>2013-02-03T09:02:48Z</time>
      </trkpt>
      <trkpt lat="48.27096" lon="2.60688">
        <ele>103.59999847412</ele>
        <time>2013-02-03T09:02:53Z</time>
      </trkpt>
      <trkpt lat="48.27078" lon="2.60719">
        <ele>99.800003051758</ele>
        <time>2013-02-03T09:02:58Z</time>
      </trkpt>
      <trkpt lat="48.27066" lon="2.60734">
        <ele>98.199996948242</ele>
        <time>2013-02-03T09:03:02Z</time>
      </trkpt>
      <trkpt lat="48.27052" lon="2.60752">
        <ele>96.400001525879</ele>
        <time>2013-02-03T09:03:08Z</time>
      </trkpt>
      <trkpt lat="48.27035" lon="2.60768">
        <ele>95</ele>
        <time>2013-02-03T09:03:15Z</time>
      </trkpt>
      <trkpt lat="48.27016" lon="2.60779">
        <ele>93.599998474121</ele>
        <time>2013-02-03T09:03:20Z</time>
      </trkpt>
      <trkpt lat="48.26993" lon="2.60786">
        <ele>92</ele>
        <time>2013-02-03T09:03:26Z</time>
      </trkpt>
      <trkpt lat="48.26982" lon="2.60791">
        <ele>90.199996948242</ele>
        <time>2013-02-03T09:03:29Z</time>
      </trkpt>
      <trkpt lat="48.2696" lon="2.60806">
        <ele>86.599998474121</ele>
        <time>2013-02-03T09:03:35Z</time>
      </trkpt>
      <trkpt lat="48.26939" lon="2.60822">
        <ele>83.800003051758</ele>
        <time>2013-02-03T09:03:41Z</time>
      </trkpt>
      <trkpt lat="48.26922" lon="2.60834">
        <ele>82.199996948242</ele>
        <time>2013-02-03T09:03:46Z</time>
      </trkpt>
      <trkpt lat="48.26907" lon="2.60852">
        <ele>81.199996948242</ele>
        <time>2013-02-03T09:03:52Z</time>
      </trkpt>
      <trkpt lat="48.269" lon="2.60861">
        <ele>80.800003051758</ele>
        <time>2013-02-03T09:03:57Z</time>
      </trkpt>
      <trkpt lat="48.2689" lon="2.60877">
        <ele>80.199996948242</ele>
        <time>2013-02-03T09:04:02Z</time>
      </trkpt>
      <trkpt lat="48.26885" lon="2.60906">
        <ele>79.400001525879</ele>
        <time>2013-02-03T09:04:08Z</time>
      </trkpt>
      <trkpt lat="48.26882" lon="2.60925">
        <ele>79</ele>
        <time>2013-02-03T09:04:12Z</time>
      </trkpt>
      <trkpt lat="48.26873" lon="2.60922">
        <ele>78.800003051758</ele>
        <time>2013-02-03T09:04:16Z</time>
      </trkpt>
      <trkpt lat="48.26871" lon="2.60918">
        <ele>78.800003051758</ele>
        <time>2013-02-03T09:04:17Z</time>
      </trkpt>
      <trkpt lat="48.26856" lon="2.60875">
        <ele>79.400001525879</ele>
        <time>2013-02-03T09:04:25Z</time>
      </trkpt>
      <trkpt lat="48.26846" lon="2.60847">
        <ele>79.800003051758</ele>
        <time>2013-02-03T09:04:30Z</time>
      </trkpt>
      <trkpt lat="48.26826" lon="2.60791">
        <ele>81</ele>
        <time>2013-02-03T09:04:40Z</time>
      </trkpt>
      <trkpt lat="48.26811" lon="2.60747">
        <ele>82</ele>
        <time>2013-02-03T09:04:48Z</time>
      </trkpt>
      <trkpt lat="48.26804" lon="2.60731">
        <ele>82.400001525879</ele>
        <time>2013-02-03T09:04:51Z</time>
      </trkpt>
      <trkpt lat="48.26798" lon="2.6071">
        <ele>82.599998474121</ele>
        <time>2013-02-03T09:04:55Z</time>
      </trkpt>
      <trkpt lat="48.26794" lon="2.60699">
        <ele>82.599998474121</ele>
        <time>2013-02-03T09:04:57Z</time>
      </trkpt>
      <trkpt lat="48.26779" lon="2.60658">
        <ele>82.599998474121</ele>
        <time>2013-02-03T09:05:05Z</time>
      </trkpt>
      <trkpt lat="48.26771" lon="2.60607">
        <ele>85.199996948242</ele>
        <time>2013-02-03T09:05:14Z</time>
      </trkpt>
      <trkpt lat="48.26764" lon="2.60564">
        <ele>86</ele>
        <time>2013-02-03T09:05:22Z</time>
      </trkpt>
      <trkpt lat="48.2676" lon="2.6055">
        <ele>85.800003051758</ele>
        <time>2013-02-03T09:05:25Z</time>
      </trkpt>
      <trkpt lat="48.26748" lon="2.6055">
        <ele>83.800003051758</ele>
        <time>2013-02-03T09:05:29Z</time>
      </trkpt>
      <trkpt lat="48.26741" lon="2.60554">
        <ele>84.199996948242</ele>
        <time>2013-02-03T09:05:31Z</time>
      </trkpt>
      <trkpt lat="48.26714" lon="2.60566">
        <ele>85.199996948242</ele>
        <time>2013-02-03T09:05:38Z</time>
      </trkpt>
      <trkpt lat="48.26687" lon="2.60566">
        <ele>86.599998474121</ele>
        <time>2013-02-03T09:05:45Z</time>
      </trkpt>
      <trkpt lat="48.26673" lon="2.60564">
        <ele>87.400001525879</ele>
        <time>2013-02-03T09:05:49Z</time>
      </trkpt>
      <trkpt lat="48.26648" lon="2.60561">
        <ele>90.199996948242</ele>
        <time>2013-02-03T09:05:57Z</time>
      </trkpt>
      <trkpt lat="48.26626" lon="2.60562">
        <ele>92.800003051758</ele>
        <time>2013-02-03T09:06:04Z</time>
      </trkpt>
      <trkpt lat="48.26605" lon="2.60562">
        <ele>95</ele>
        <time>2013-02-03T09:06:11Z</time>
      </trkpt>
      <trkpt lat="48.26591" lon="2.60566">
        <ele>96.599998474121</ele>
        <time>2013-02-03T09:06:16Z</time>
      </trkpt>
      <trkpt lat="48.26574" lon="2.60581">
        <ele>97.599998474121</ele>
        <time>2013-02-03T09:06:23Z</time>
      </trkpt>
      <trkpt lat="48.26565" lon="2.60601">
        <ele>98.800003051758</ele>
        <time>2013-02-03T09:06:29Z</time>
      </trkpt>
      <trkpt lat="48.26556" lon="2.60626">
        <ele>100.40000152588</ele>
        <time>2013-02-03T09:06:36Z</time>
      </trkpt>
      <trkpt lat="48.26546" lon="2.60643">
        <ele>101.40000152588</ele>
        <time>2013-02-03T09:06:42Z</time>
      </trkpt>
      <trkpt lat="48.26537" lon="2.60651">
        <ele>102</ele>
        <time>2013-02-03T09:06:47Z</time>
      </trkpt>
      <trkpt lat="48.26522" lon="2.60657">
        <ele>102.40000152588</ele>
        <time>2013-02-03T09:06:54Z</time>
      </trkpt>
      <trkpt lat="48.26504" lon="2.60658">
        <ele>102.80000305176</ele>
        <time>2013-02-03T09:07:02Z</time>
      </trkpt>
      <trkpt lat="48.2649" lon="2.60648">
        <ele>102.59999847412</ele>
        <time>2013-02-03T09:07:09Z</time>
      </trkpt>
      <trkpt lat="48.26478" lon="2.60632">
        <ele>102.40000152588</ele>
        <time>2013-02-03T09:07:16Z</time>
      </trkpt>
      <trkpt lat="48.2647" lon="2.60623">
        <ele>102.40000152588</ele>
        <time>2013-02-03T09:07:21Z</time>
      </trkpt>
      <trkpt lat="48.26461" lon="2.6063">
        <ele>102.40000152588</ele>
        <time>2013-02-03T09:07:26Z</time>
      </trkpt>
      <trkpt lat="48.26458" lon="2.60663">
        <ele>102.80000305176</ele>
        <time>2013-02-03T09:07:35Z</time>
      </trkpt>
      <trkpt lat="48.26457" lon="2.60694">
        <ele>103.80000305176</ele>
        <time>2013-02-03T09:07:43Z</time>
      </trkpt>
      <trkpt lat="48.26454" lon="2.60725">
        <ele>104.59999847412</ele>
        <time>2013-02-03T09:07:51Z</time>
      </trkpt>
      <trkpt lat="48.26452" lon="2.60757">
        <ele>105.80000305176</ele>
        <time>2013-02-03T09:07:59Z</time>
      </trkpt>
      <trkpt lat="48.2646" lon="2.60786">
        <ele>107.40000152588</ele>
        <time>2013-02-03T09:08:06Z</time>
      </trkpt>
      <trkpt lat="48.26463" lon="2.60801">
        <ele>108.19999694824</ele>
        <time>2013-02-03T09:08:10Z</time>
      </trkpt>
      <trkpt lat="48.26469" lon="2.60824">
        <ele>109.80000305176</ele>
        <time>2013-02-03T09:08:15Z</time>
      </trkpt>
      <trkpt lat="48.26474" lon="2.6085">
        <ele>111.19999694824</ele>
        <time>2013-02-03T09:08:21Z</time>
      </trkpt>
      <trkpt lat="48.26478" lon="2.60871">
        <ele>111.80000305176</ele>
        <time>2013-02-03T09:08:26Z</time>
      </trkpt>
      <trkpt lat="48.26483" lon="2.60893">
        <ele>112.59999847412</ele>
        <time>2013-02-03T09:08:31Z</time>
      </trkpt>
      <trkpt lat="48.26488" lon="2.60917">
        <ele>113.40000152588</ele>
        <time>2013-02-03T09:08:36Z</time>
      </trkpt>
      <trkpt lat="48.265" lon="2.60946">
        <ele>113.59999847412</ele>
        <time>2013-02-03T09:08:42Z</time>
      </trkpt>
      <trkpt lat="48.26508" lon="2.60974">
        <ele>112.59999847412</ele>
        <time>2013-02-03T09:08:48Z</time>
      </trkpt>
      <trkpt lat="48.26518" lon="2.61014">
        <ele>111.19999694824</ele>
        <time>2013-02-03T09:08:56Z</time>
      </trkpt>
      <trkpt lat="48.26524" lon="2.61052">
        <ele>109.59999847412</ele>
        <time>2013-02-03T09:09:03Z</time>
      </trkpt>
      <trkpt lat="48.26535" lon="2.61096">
        <ele>108.19999694824</ele>
        <time>2013-02-03T09:09:12Z</time>
      </trkpt>
      <trkpt lat="48.26538" lon="2.61097">
        <ele>108</ele>
        <time>2013-02-03T09:09:15Z</time>
      </trkpt>
      <trkpt lat="48.26537" lon="2.61099">
        <ele>108</ele>
        <time>2013-02-03T09:09:21Z</time>
      </trkpt>
      <trkpt lat="48.26537" lon="2.61101">
        <ele>108</ele>
        <time>2013-02-03T09:09:25Z</time>
      </trkpt>
      <trkpt lat="48.26545" lon="2.61118">
        <ele>107.59999847412</ele>
        <time>2013-02-03T09:09:31Z</time>
      </trkpt>
      <trkpt lat="48.26557" lon="2.61127">
        <ele>106.80000305176</ele>
        <time>2013-02-03T09:09:34Z</time>
      </trkpt>
      <trkpt lat="48.26575" lon="2.61125">
        <ele>105.80000305176</ele>
        <time>2013-02-03T09:09:37Z</time>
      </trkpt>
      <trkpt lat="48.26602" lon="2.61115">
        <ele>105</ele>
        <time>2013-02-03T09:09:41Z</time>
      </trkpt>
      <trkpt lat="48.26618" lon="2.61117">
        <ele>104.59999847412</ele>
        <time>2013-02-03T09:09:45Z</time>
      </trkpt>
      <trkpt lat="48.2662" lon="2.61123">
        <ele>104.40000152588</ele>
        <time>2013-02-03T09:09:46Z</time>
      </trkpt>
      <trkpt lat="48.26624" lon="2.61137">
        <ele>104.59999847412</ele>
        <time>2013-02-03T09:09:49Z</time>
      </trkpt>
      <trkpt lat="48.26624" lon="2.6116">
        <ele>104.80000305176</ele>
        <time>2013-02-03T09:09:53Z</time>
      </trkpt>
      <trkpt lat="48.26624" lon="2.61161">
        <ele>104.80000305176</ele>
        <time>2013-02-03T09:09:54Z</time>
      </trkpt>
      <trkpt lat="48.26617" lon="2.61165">
        <ele>104.80000305176</ele>
        <time>2013-02-03T09:10:01Z</time>
      </trkpt>
      <trkpt lat="48.2661" lon="2.61182">
        <ele>105.19999694824</ele>
        <time>2013-02-03T09:10:07Z</time>
      </trkpt>
      <trkpt lat="48.26606" lon="2.61201">
        <ele>105.40000152588</ele>
        <time>2013-02-03T09:10:12Z</time>
      </trkpt>
      <trkpt lat="48.26603" lon="2.61219">
        <ele>105.59999847412</ele>
        <time>2013-02-03T09:10:17Z</time>
      </trkpt>
      <trkpt lat="48.26603" lon="2.61234">
        <ele>105.80000305176</ele>
        <time>2013-02-03T09:10:22Z</time>
      </trkpt>
      <trkpt lat="48.26602" lon="2.61257">
        <ele>105.40000152588</ele>
        <time>2013-02-03T09:10:28Z</time>
      </trkpt>
      <trkpt lat="48.26604" lon="2.61283">
        <ele>103.80000305176</ele>
        <time>2013-02-03T09:10:34Z</time>
      </trkpt>
      <trkpt lat="48.26611" lon="2.61315">
        <ele>102.59999847412</ele>
        <time>2013-02-03T09:10:41Z</time>
      </trkpt>
      <trkpt lat="48.26623" lon="2.61342">
        <ele>102.40000152588</ele>
        <time>2013-02-03T09:10:47Z</time>
      </trkpt>
      <trkpt lat="48.26645" lon="2.61367">
        <ele>102.19999694824</ele>
        <time>2013-02-03T09:10:54Z</time>
      </trkpt>
      <trkpt lat="48.26674" lon="2.614">
        <ele>102.40000152588</ele>
        <time>2013-02-03T09:11:02Z</time>
      </trkpt>
      <trkpt lat="48.26677" lon="2.61404">
        <ele>102.40000152588</ele>
        <time>2013-02-03T09:11:03Z</time>
      </trkpt>
      <trkpt lat="48.26686" lon="2.61424">
        <ele>101.40000152588</ele>
        <time>2013-02-03T09:11:07Z</time>
      </trkpt>
      <trkpt lat="48.26695" lon="2.61463">
        <ele>100.19999694824</ele>
        <time>2013-02-03T09:11:12Z</time>
      </trkpt>
      <trkpt lat="48.26699" lon="2.61509">
        <ele>99</ele>
        <time>2013-02-03T09:11:17Z</time>
      </trkpt>
      <trkpt lat="48.26699" lon="2.61536">
        <ele>100.19999694824</ele>
        <time>2013-02-03T09:11:20Z</time>
      </trkpt>
      <trkpt lat="48.26694" lon="2.61558">
        <ele>100.19999694824</ele>
        <time>2013-02-03T09:11:22Z</time>
      </trkpt>
      <trkpt lat="48.26686" lon="2.61593">
        <ele>100.40000152588</ele>
        <time>2013-02-03T09:11:27Z</time>
      </trkpt>
      <trkpt lat="48.26685" lon="2.61597">
        <ele>100.40000152588</ele>
        <time>2013-02-03T09:11:28Z</time>
      </trkpt>
      <trkpt lat="48.2668" lon="2.61609">
        <ele>100.19999694824</ele>
        <time>2013-02-03T09:11:31Z</time>
      </trkpt>
      <trkpt lat="48.26671" lon="2.61619">
        <ele>99.199996948242</ele>
        <time>2013-02-03T09:11:36Z</time>
      </trkpt>
      <trkpt lat="48.26663" lon="2.61631">
        <ele>98.400001525879</ele>
        <time>2013-02-03T09:11:41Z</time>
      </trkpt>
      <trkpt lat="48.26661" lon="2.61636">
        <ele>98</ele>
        <time>2013-02-03T09:11:43Z</time>
      </trkpt>
      <trkpt lat="48.26658" lon="2.61665">
        <ele>99.599998474121</ele>
        <time>2013-02-03T09:11:50Z</time>
      </trkpt>
      <trkpt lat="48.26655" lon="2.61693">
        <ele>100.19999694824</ele>
        <time>2013-02-03T09:11:56Z</time>
      </trkpt>
      <trkpt lat="48.26653" lon="2.61732">
        <ele>101.80000305176</ele>
        <time>2013-02-03T09:12:03Z</time>
      </trkpt>
      <trkpt lat="48.2665" lon="2.61761">
        <ele>101.19999694824</ele>
        <time>2013-02-03T09:12:08Z</time>
      </trkpt>
      <trkpt lat="48.26648" lon="2.61802">
        <ele>98.599998474121</ele>
        <time>2013-02-03T09:12:15Z</time>
      </trkpt>
      <trkpt lat="48.26655" lon="2.61828">
        <ele>99.199996948242</ele>
        <time>2013-02-03T09:12:20Z</time>
      </trkpt>
      <trkpt lat="48.2667" lon="2.61843">
        <ele>100.59999847412</ele>
        <time>2013-02-03T09:12:24Z</time>
      </trkpt>
      <trkpt lat="48.26695" lon="2.61865">
        <ele>100.59999847412</ele>
        <time>2013-02-03T09:12:30Z</time>
      </trkpt>
      <trkpt lat="48.26714" lon="2.61888">
        <ele>100.40000152588</ele>
        <time>2013-02-03T09:12:35Z</time>
      </trkpt>
      <trkpt lat="48.26724" lon="2.61902">
        <ele>100</ele>
        <time>2013-02-03T09:12:38Z</time>
      </trkpt>
      <trkpt lat="48.26731" lon="2.61913">
        <ele>99.800003051758</ele>
        <time>2013-02-03T09:12:40Z</time>
      </trkpt>
      <trkpt lat="48.26745" lon="2.61932">
        <ele>99.199996948242</ele>
        <time>2013-02-03T09:12:43Z</time>
      </trkpt>
      <trkpt lat="48.26782" lon="2.61966">
        <ele>97.800003051758</ele>
        <time>2013-02-03T09:12:50Z</time>
      </trkpt>
      <trkpt lat="48.26786" lon="2.61969">
        <ele>98</ele>
        <time>2013-02-03T09:12:51Z</time>
      </trkpt>
      <trkpt lat="48.26801" lon="2.61982">
        <ele>98.800003051758</ele>
        <time>2013-02-03T09:12:56Z</time>
      </trkpt>
      <trkpt lat="48.26805" lon="2.61988">
        <ele>98.800003051758</ele>
        <time>2013-02-03T09:12:58Z</time>
      </trkpt>
      <trkpt lat="48.26806" lon="2.61993">
        <ele>98.599998474121</ele>
        <time>2013-02-03T09:13:00Z</time>
      </trkpt>
      <trkpt lat="48.26809" lon="2.61999">
        <ele>98.599998474121</ele>
        <time>2013-02-03T09:13:03Z</time>
      </trkpt>
      <trkpt lat="48.26816" lon="2.62006">
        <ele>99.400001525879</ele>
        <time>2013-02-03T09:13:08Z</time>
      </trkpt>
      <trkpt lat="48.26819" lon="2.62013">
        <ele>99.599998474121</ele>
        <time>2013-02-03T09:13:11Z</time>
      </trkpt>
      <trkpt lat="48.26823" lon="2.6203">
        <ele>99.599998474121</ele>
        <time>2013-02-03T09:13:17Z</time>
      </trkpt>
      <trkpt lat="48.26825" lon="2.62035">
        <ele>99.800003051758</ele>
        <time>2013-02-03T09:13:19Z</time>
      </trkpt>
      <trkpt lat="48.26836" lon="2.62047">
        <ele>100.80000305176</ele>
        <time>2013-02-03T09:13:26Z</time>
      </trkpt>
      <trkpt lat="48.26839" lon="2.62053">
        <ele>100.80000305176</ele>
        <time>2013-02-03T09:13:28Z</time>
      </trkpt>
      <trkpt lat="48.26842" lon="2.6207">
        <ele>100.40000152588</ele>
        <time>2013-02-03T09:13:34Z</time>
      </trkpt>
      <trkpt lat="48.26848" lon="2.62087">
        <ele>100.59999847412</ele>
        <time>2013-02-03T09:13:39Z</time>
      </trkpt>
      <trkpt lat="48.26854" lon="2.62099">
        <ele>101</ele>
        <time>2013-02-03T09:13:44Z</time>
      </trkpt>
      <trkpt lat="48.26859" lon="2.62104">
        <ele>101.40000152588</ele>
        <time>2013-02-03T09:13:48Z</time>
      </trkpt>
      <trkpt lat="48.26866" lon="2.62123">
        <ele>102</ele>
        <time>2013-02-03T09:13:53Z</time>
      </trkpt>
      <trkpt lat="48.26867" lon="2.62127">
        <ele>102</ele>
        <time>2013-02-03T09:13:54Z</time>
      </trkpt>
      <trkpt lat="48.26873" lon="2.62149">
        <ele>102.40000152588</ele>
        <time>2013-02-03T09:14:00Z</time>
      </trkpt>
      <trkpt lat="48.26876" lon="2.62157">
        <ele>102.80000305176</ele>
        <time>2013-02-03T09:14:03Z</time>
      </trkpt>
      <trkpt lat="48.26884" lon="2.62173">
        <ele>103.80000305176</ele>
        <time>2013-02-03T09:14:09Z</time>
      </trkpt>
      <trkpt lat="48.26885" lon="2.62178">
        <ele>104</ele>
        <time>2013-02-03T09:14:11Z</time>
      </trkpt>
      <trkpt lat="48.26887" lon="2.62192">
        <ele>104.19999694824</ele>
        <time>2013-02-03T09:14:15Z</time>
      </trkpt>
      <trkpt lat="48.26885" lon="2.62197">
        <ele>104</ele>
        <time>2013-02-03T09:14:18Z</time>
      </trkpt>
      <trkpt lat="48.26879" lon="2.62204">
        <ele>103.40000152588</ele>
        <time>2013-02-03T09:14:21Z</time>
      </trkpt>
      <trkpt lat="48.26877" lon="2.62217">
        <ele>103.19999694824</ele>
        <time>2013-02-03T09:14:25Z</time>
      </trkpt>
      <trkpt lat="48.26878" lon="2.62228">
        <ele>103.40000152588</ele>
        <time>2013-02-03T09:14:34Z</time>
      </trkpt>
      <trkpt lat="48.2688" lon="2.62239">
        <ele>103.80000305176</ele>
        <time>2013-02-03T09:14:39Z</time>
      </trkpt>
      <trkpt lat="48.2688" lon="2.62242">
        <ele>103.80000305176</ele>
        <time>2013-02-03T09:14:40Z</time>
      </trkpt>
      <trkpt lat="48.26891" lon="2.62248">
        <ele>104.80000305176</ele>
        <time>2013-02-03T09:14:45Z</time>
      </trkpt>
      <trkpt lat="48.26898" lon="2.62258">
        <ele>105</ele>
        <time>2013-02-03T09:14:49Z</time>
      </trkpt>
      <trkpt lat="48.26898" lon="2.62269">
        <ele>104.59999847412</ele>
        <time>2013-02-03T09:14:53Z</time>
      </trkpt>
      <trkpt lat="48.26898" lon="2.62272">
        <ele>104.40000152588</ele>
        <time>2013-02-03T09:14:54Z</time>
      </trkpt>
      <trkpt lat="48.26904" lon="2.623">
        <ele>103.80000305176</ele>
        <time>2013-02-03T09:15:00Z</time>
      </trkpt>
      <trkpt lat="48.26903" lon="2.62317">
        <ele>103</ele>
        <time>2013-02-03T09:15:05Z</time>
      </trkpt>
      <trkpt lat="48.26905" lon="2.62339">
        <ele>102.40000152588</ele>
        <time>2013-02-03T09:15:11Z</time>
      </trkpt>
      <trkpt lat="48.26914" lon="2.62346">
        <ele>102.80000305176</ele>
        <time>2013-02-03T09:15:15Z</time>
      </trkpt>
      <trkpt lat="48.26919" lon="2.62345">
        <ele>103</ele>
        <time>2013-02-03T09:15:18Z</time>
      </trkpt>
      <trkpt lat="48.2692" lon="2.62343">
        <ele>103</ele>
        <time>2013-02-03T09:15:19Z</time>
      </trkpt>
      <trkpt lat="48.26925" lon="2.62322">
        <ele>103.80000305176</ele>
        <time>2013-02-03T09:15:25Z</time>
      </trkpt>
      <trkpt lat="48.26924" lon="2.62315">
        <ele>104</ele>
        <time>2013-02-03T09:15:27Z</time>
      </trkpt>
      <trkpt lat="48.26921" lon="2.62307">
        <ele>104.19999694824</ele>
        <time>2013-02-03T09:15:30Z</time>
      </trkpt>
      <trkpt lat="48.26921" lon="2.62299">
        <ele>104.59999847412</ele>
        <time>2013-02-03T09:15:35Z</time>
      </trkpt>
      <trkpt lat="48.26925" lon="2.62294">
        <ele>105</ele>
        <time>2013-02-03T09:15:39Z</time>
      </trkpt>
      <trkpt lat="48.26929" lon="2.62285">
        <ele>105.59999847412</ele>
        <time>2013-02-03T09:15:42Z</time>
      </trkpt>
      <trkpt lat="48.26934" lon="2.62281">
        <ele>105.80000305176</ele>
        <time>2013-02-03T09:15:45Z</time>
      </trkpt>
      <trkpt lat="48.26935" lon="2.62272">
        <ele>106.19999694824</ele>
        <time>2013-02-03T09:15:50Z</time>
      </trkpt>
      <trkpt lat="48.26934" lon="2.62259">
        <ele>106.80000305176</ele>
        <time>2013-02-03T09:15:54Z</time>
      </trkpt>
      <trkpt lat="48.26929" lon="2.62241">
        <ele>107.19999694824</ele>
        <time>2013-02-03T09:15:58Z</time>
      </trkpt>
      <trkpt lat="48.26927" lon="2.6222">
        <ele>107.59999847412</ele>
        <time>2013-02-03T09:16:04Z</time>
      </trkpt>
      <trkpt lat="48.26925" lon="2.62202">
        <ele>108</ele>
        <time>2013-02-03T09:16:08Z</time>
      </trkpt>
      <trkpt lat="48.26923" lon="2.6218">
        <ele>108.59999847412</ele>
        <time>2013-02-03T09:16:13Z</time>
      </trkpt>
      <trkpt lat="48.26917" lon="2.6217">
        <ele>108.80000305176</ele>
        <time>2013-02-03T09:16:17Z</time>
      </trkpt>
      <trkpt lat="48.26911" lon="2.62165">
        <ele>108</ele>
        <time>2013-02-03T09:16:19Z</time>
      </trkpt>
      <trkpt lat="48.26907" lon="2.6215">
        <ele>107.59999847412</ele>
        <time>2013-02-03T09:16:23Z</time>
      </trkpt>
      <trkpt lat="48.26912" lon="2.62139">
        <ele>108.19999694824</ele>
        <time>2013-02-03T09:16:28Z</time>
      </trkpt>
      <trkpt lat="48.26914" lon="2.62137">
        <ele>108.59999847412</ele>
        <time>2013-02-03T09:16:29Z</time>
      </trkpt>
      <trkpt lat="48.26921" lon="2.6213">
        <ele>108.80000305176</ele>
        <time>2013-02-03T09:16:32Z</time>
      </trkpt>
      <trkpt lat="48.26918" lon="2.6212">
        <ele>108.80000305176</ele>
        <time>2013-02-03T09:16:36Z</time>
      </trkpt>
      <trkpt lat="48.26914" lon="2.62101">
        <ele>108.59999847412</ele>
        <time>2013-02-03T09:16:41Z</time>
      </trkpt>
      <trkpt lat="48.26915" lon="2.62096">
        <ele>108.80000305176</ele>
        <time>2013-02-03T09:16:43Z</time>
      </trkpt>
      <trkpt lat="48.26909" lon="2.62079">
        <ele>108</ele>
        <time>2013-02-03T09:16:48Z</time>
      </trkpt>
      <trkpt lat="48.26908" lon="2.62076">
        <ele>107.80000305176</ele>
        <time>2013-02-03T09:16:49Z</time>
      </trkpt>
      <trkpt lat="48.26912" lon="2.62057">
        <ele>108.19999694824</ele>
        <time>2013-02-03T09:16:55Z</time>
      </trkpt>
      <trkpt lat="48.26912" lon="2.62054">
        <ele>108</ele>
        <time>2013-02-03T09:16:57Z</time>
      </trkpt>
      <trkpt lat="48.26904" lon="2.62046">
        <ele>107.19999694824</ele>
        <time>2013-02-03T09:17:02Z</time>
      </trkpt>
      <trkpt lat="48.269" lon="2.62042">
        <ele>106.80000305176</ele>
        <time>2013-02-03T09:17:10Z</time>
      </trkpt>
      <trkpt lat="48.26893" lon="2.62036">
        <ele>106.40000152588</ele>
        <time>2013-02-03T09:17:17Z</time>
      </trkpt>
      <trkpt lat="48.26881" lon="2.62028">
        <ele>105.40000152588</ele>
        <time>2013-02-03T09:17:24Z</time>
      </trkpt>
      <trkpt lat="48.26875" lon="2.62023">
        <ele>105</ele>
        <time>2013-02-03T09:17:29Z</time>
      </trkpt>
      <trkpt lat="48.26871" lon="2.62016">
        <ele>104.80000305176</ele>
        <time>2013-02-03T09:17:33Z</time>
      </trkpt>
      <trkpt lat="48.26873" lon="2.62011">
        <ele>105.19999694824</ele>
        <time>2013-02-03T09:17:39Z</time>
      </trkpt>
      <trkpt lat="48.26875" lon="2.62012">
        <ele>105.19999694824</ele>
        <time>2013-02-03T09:17:42Z</time>
      </trkpt>
      <trkpt lat="48.26881" lon="2.62027">
        <ele>105.40000152588</ele>
        <time>2013-02-03T09:17:48Z</time>
      </trkpt>
      <trkpt lat="48.26888" lon="2.62028">
        <ele>106</ele>
        <time>2013-02-03T09:17:53Z</time>
      </trkpt>
      <trkpt lat="48.26893" lon="2.62025">
        <ele>106.40000152588</ele>
        <time>2013-02-03T09:17:57Z</time>
      </trkpt>
      <trkpt lat="48.26893" lon="2.62021">
        <ele>106.40000152588</ele>
        <time>2013-02-03T09:17:59Z</time>
      </trkpt>
      <trkpt lat="48.26899" lon="2.62008">
        <ele>106.80000305176</ele>
        <time>2013-02-03T09:18:06Z</time>
      </trkpt>
      <trkpt lat="48.26899" lon="2.62004">
        <ele>106.80000305176</ele>
        <time>2013-02-03T09:18:08Z</time>
      </trkpt>
      <trkpt lat="48.26897" lon="2.61999">
        <ele>106.80000305176</ele>
        <time>2013-02-03T09:18:12Z</time>
      </trkpt>
      <trkpt lat="48.269" lon="2.61991">
        <ele>107</ele>
        <time>2013-02-03T09:18:16Z</time>
      </trkpt>
      <trkpt lat="48.26901" lon="2.61988">
        <ele>107</ele>
        <time>2013-02-03T09:18:18Z</time>
      </trkpt>
      <trkpt lat="48.269" lon="2.61979">
        <ele>107</ele>
        <time>2013-02-03T09:18:26Z</time>
      </trkpt>
      <trkpt lat="48.26897" lon="2.61974">
        <ele>107</ele>
        <time>2013-02-03T09:18:34Z</time>
      </trkpt>
      <trkpt lat="48.26897" lon="2.6197">
        <ele>107</ele>
        <time>2013-02-03T09:18:50Z</time>
      </trkpt>
      <trkpt lat="48.26895" lon="2.61966">
        <ele>106.80000305176</ele>
        <time>2013-02-03T09:18:52Z</time>
      </trkpt>
      <trkpt lat="48.26889" lon="2.61958">
        <ele>106.80000305176</ele>
        <time>2013-02-03T09:18:57Z</time>
      </trkpt>
      <trkpt lat="48.26888" lon="2.61956">
        <ele>106.80000305176</ele>
        <time>2013-02-03T09:18:58Z</time>
      </trkpt>
      <trkpt lat="48.26888" lon="2.61943">
        <ele>106.80000305176</ele>
        <time>2013-02-03T09:19:03Z</time>
      </trkpt>
      <trkpt lat="48.26894" lon="2.61933">
        <ele>107.19999694824</ele>
        <time>2013-02-03T09:19:07Z</time>
      </trkpt>
      <trkpt lat="48.26894" lon="2.61929">
        <ele>107.19999694824</ele>
        <time>2013-02-03T09:19:08Z</time>
      </trkpt>
      <trkpt lat="48.2689" lon="2.61905">
        <ele>107.19999694824</ele>
        <time>2013-02-03T09:19:14Z</time>
      </trkpt>
      <trkpt lat="48.26884" lon="2.61876">
        <ele>107.19999694824</ele>
        <time>2013-02-03T09:19:21Z</time>
      </trkpt>
      <trkpt lat="48.26879" lon="2.61845">
        <ele>107.59999847412</ele>
        <time>2013-02-03T09:19:28Z</time>
      </trkpt>
      <trkpt lat="48.26878" lon="2.61829">
        <ele>107.80000305176</ele>
        <time>2013-02-03T09:19:34Z</time>
      </trkpt>
      <trkpt lat="48.2688" lon="2.61814">
        <ele>107.59999847412</ele>
        <time>2013-02-03T09:19:40Z</time>
      </trkpt>
      <trkpt lat="48.26884" lon="2.61794">
        <ele>107.40000152588</ele>
        <time>2013-02-03T09:19:45Z</time>
      </trkpt>
      <trkpt lat="48.26883" lon="2.61768">
        <ele>107.40000152588</ele>
        <time>2013-02-03T09:19:50Z</time>
      </trkpt>
      <trkpt lat="48.26879" lon="2.61743">
        <ele>107.59999847412</ele>
        <time>2013-02-03T09:19:54Z</time>
      </trkpt>
      <trkpt lat="48.26873" lon="2.61717">
        <ele>107.59999847412</ele>
        <time>2013-02-03T09:19:58Z</time>
      </trkpt>
      <trkpt lat="48.26861" lon="2.61685">
        <ele>108.19999694824</ele>
        <time>2013-02-03T09:20:03Z</time>
      </trkpt>
      <trkpt lat="48.26857" lon="2.61662">
        <ele>108</ele>
        <time>2013-02-03T09:20:07Z</time>
      </trkpt>
      <trkpt lat="48.26855" lon="2.61657">
        <ele>108.19999694824</ele>
        <time>2013-02-03T09:20:08Z</time>
      </trkpt>
      <trkpt lat="48.26852" lon="2.61628">
        <ele>107.19999694824</ele>
        <time>2013-02-03T09:20:13Z</time>
      </trkpt>
      <trkpt lat="48.26851" lon="2.61621">
        <ele>107</ele>
        <time>2013-02-03T09:20:14Z</time>
      </trkpt>
      <trkpt lat="48.26844" lon="2.61594">
        <ele>107.19999694824</ele>
        <time>2013-02-03T09:20:18Z</time>
      </trkpt>
      <trkpt lat="48.26842" lon="2.61583">
        <ele>107</ele>
        <time>2013-02-03T09:20:20Z</time>
      </trkpt>
      <trkpt lat="48.26838" lon="2.61563">
        <ele>106.80000305176</ele>
        <time>2013-02-03T09:20:23Z</time>
      </trkpt>
      <trkpt lat="48.26836" lon="2.61534">
        <ele>105.40000152588</ele>
        <time>2013-02-03T09:20:28Z</time>
      </trkpt>
      <trkpt lat="48.26835" lon="2.61529">
        <ele>105.19999694824</ele>
        <time>2013-02-03T09:20:29Z</time>
      </trkpt>
      <trkpt lat="48.26828" lon="2.61511">
        <ele>105</ele>
        <time>2013-02-03T09:20:34Z</time>
      </trkpt>
      <trkpt lat="48.26822" lon="2.61497">
        <ele>104.80000305176</ele>
        <time>2013-02-03T09:20:41Z</time>
      </trkpt>
      <trkpt lat="48.2682" lon="2.61492">
        <ele>104.80000305176</ele>
        <time>2013-02-03T09:20:43Z</time>
      </trkpt>
      <trkpt lat="48.26816" lon="2.61469">
        <ele>104.19999694824</ele>
        <time>2013-02-03T09:20:50Z</time>
      </trkpt>
      <trkpt lat="48.26815" lon="2.61452">
        <ele>103.59999847412</ele>
        <time>2013-02-03T09:20:55Z</time>
      </trkpt>
      <trkpt lat="48.26812" lon="2.6143">
        <ele>103</ele>
        <time>2013-02-03T09:21:01Z</time>
      </trkpt>
      <trkpt lat="48.2681" lon="2.61423">
        <ele>103</ele>
        <time>2013-02-03T09:21:03Z</time>
      </trkpt>
      <trkpt lat="48.26809" lon="2.61409">
        <ele>102.80000305176</ele>
        <time>2013-02-03T09:21:07Z</time>
      </trkpt>
      <trkpt lat="48.26802" lon="2.61393">
        <ele>103.59999847412</ele>
        <time>2013-02-03T09:21:13Z</time>
      </trkpt>
      <trkpt lat="48.268" lon="2.61381">
        <ele>103.80000305176</ele>
        <time>2013-02-03T09:21:18Z</time>
      </trkpt>
      <trkpt lat="48.26797" lon="2.61365">
        <ele>103.80000305176</ele>
        <time>2013-02-03T09:21:24Z</time>
      </trkpt>
      <trkpt lat="48.26795" lon="2.61362">
        <ele>104.19999694824</ele>
        <time>2013-02-03T09:21:39Z</time>
      </trkpt>
      <trkpt lat="48.26795" lon="2.61362">
        <ele>104.19999694824</ele>
        <time>2013-02-03T09:21:41Z</time>
      </trkpt>
      <trkpt lat="48.26793" lon="2.61359">
        <ele>104.59999847412</ele>
        <time>2013-02-03T09:21:59Z</time>
      </trkpt>
      <trkpt lat="48.26789" lon="2.61361">
        <ele>105.40000152588</ele>
        <time>2013-02-03T09:22:10Z</time>
      </trkpt>
      <trkpt lat="48.26789" lon="2.61358">
        <ele>105.19999694824</ele>
        <time>2013-02-03T09:22:16Z</time>
      </trkpt>
      <trkpt lat="48.26791" lon="2.61354">
        <ele>104.80000305176</ele>
        <time>2013-02-03T09:22:22Z</time>
      </trkpt>
      <trkpt lat="48.26792" lon="2.61347">
        <ele>104.40000152588</ele>
        <time>2013-02-03T09:22:28Z</time>
      </trkpt>
      <trkpt lat="48.26793" lon="2.61344">
        <ele>104.19999694824</ele>
        <time>2013-02-03T09:22:30Z</time>
      </trkpt>
      <trkpt lat="48.26794" lon="2.61333">
        <ele>103.80000305176</ele>
        <time>2013-02-03T09:22:38Z</time>
      </trkpt>
      <trkpt lat="48.26791" lon="2.61328">
        <ele>104.59999847412</ele>
        <time>2013-02-03T09:22:50Z</time>
      </trkpt>
      <trkpt lat="48.26791" lon="2.61323">
        <ele>104.59999847412</ele>
        <time>2013-02-03T09:23:04Z</time>
      </trkpt>
      <trkpt lat="48.26792" lon="2.61319">
        <ele>104.59999847412</ele>
        <time>2013-02-03T09:23:09Z</time>
      </trkpt>
      <trkpt lat="48.26794" lon="2.61311">
        <ele>104.40000152588</ele>
        <time>2013-02-03T09:23:16Z</time>
      </trkpt>
      <trkpt lat="48.26793" lon="2.61306">
        <ele>104.59999847412</ele>
        <time>2013-02-03T09:23:21Z</time>
      </trkpt>
      <trkpt lat="48.26793" lon="2.61299">
        <ele>104.80000305176</ele>
        <time>2013-02-03T09:23:27Z</time>
      </trkpt>
      <trkpt lat="48.26793" lon="2.61292">
        <ele>105</ele>
        <time>2013-02-03T09:23:34Z</time>
      </trkpt>
      <trkpt lat="48.26793" lon="2.61292">
        <ele>104.80000305176</ele>
        <time>2013-02-03T09:23:35Z</time>
      </trkpt>
      <trkpt lat="48.26795" lon="2.61286">
        <ele>104.59999847412</ele>
        <time>2013-02-03T09:23:39Z</time>
      </trkpt>
      <trkpt lat="48.26796" lon="2.61282">
        <ele>104.40000152588</ele>
        <time>2013-02-03T09:23:47Z</time>
      </trkpt>
      <trkpt lat="48.26796" lon="2.61275">
        <ele>104.59999847412</ele>
        <time>2013-02-03T09:23:55Z</time>
      </trkpt>
      <trkpt lat="48.26798" lon="2.61269">
        <ele>104.40000152588</ele>
        <time>2013-02-03T09:24:02Z</time>
      </trkpt>
      <trkpt lat="48.26799" lon="2.61263">
        <ele>104.40000152588</ele>
        <time>2013-02-03T09:24:10Z</time>
      </trkpt>
      <trkpt lat="48.26803" lon="2.61253">
        <ele>104</ele>
        <time>2013-02-03T09:24:18Z</time>
      </trkpt>
      <trkpt lat="48.26805" lon="2.61249">
        <ele>103.59999847412</ele>
        <time>2013-02-03T09:24:21Z</time>
      </trkpt>
      <trkpt lat="48.26813" lon="2.61239">
        <ele>102.59999847412</ele>
        <time>2013-02-03T09:24:29Z</time>
      </trkpt>
      <trkpt lat="48.26815" lon="2.61234">
        <ele>102.19999694824</ele>
        <time>2013-02-03T09:24:32Z</time>
      </trkpt>
      <trkpt lat="48.26816" lon="2.61229">
        <ele>102.19999694824</ele>
        <time>2013-02-03T09:24:37Z</time>
      </trkpt>
      <trkpt lat="48.26818" lon="2.61226">
        <ele>102</ele>
        <time>2013-02-03T09:24:40Z</time>
      </trkpt>
      <trkpt lat="48.26823" lon="2.61214">
        <ele>101.59999847412</ele>
        <time>2013-02-03T09:24:45Z</time>
      </trkpt>
      <trkpt lat="48.26832" lon="2.61194">
        <ele>101</ele>
        <time>2013-02-03T09:24:53Z</time>
      </trkpt>
      <trkpt lat="48.26833" lon="2.61188">
        <ele>101.19999694824</ele>
        <time>2013-02-03T09:24:55Z</time>
      </trkpt>
      <trkpt lat="48.26839" lon="2.61182">
        <ele>99.599998474121</ele>
        <time>2013-02-03T09:25:01Z</time>
      </trkpt>
      <trkpt lat="48.26842" lon="2.61187">
        <ele>98.599998474121</ele>
        <time>2013-02-03T09:25:07Z</time>
      </trkpt>
      <trkpt lat="48.26843" lon="2.61193">
        <ele>98</ele>
        <time>2013-02-03T09:25:12Z</time>
      </trkpt>
      <trkpt lat="48.26843" lon="2.612">
        <ele>98</ele>
        <time>2013-02-03T09:25:18Z</time>
      </trkpt>
      <trkpt lat="48.26842" lon="2.61205">
        <ele>98.199996948242</ele>
        <time>2013-02-03T09:25:21Z</time>
      </trkpt>
      <trkpt lat="48.26838" lon="2.61215">
        <ele>98.800003051758</ele>
        <time>2013-02-03T09:25:26Z</time>
      </trkpt>
      <trkpt lat="48.26834" lon="2.61221">
        <ele>99.800003051758</ele>
        <time>2013-02-03T09:25:32Z</time>
      </trkpt>
      <trkpt lat="48.26827" lon="2.61234">
        <ele>100.40000152588</ele>
        <time>2013-02-03T09:26:05Z</time>
      </trkpt>
      <trkpt lat="48.26823" lon="2.6124">
        <ele>100.80000305176</ele>
        <time>2013-02-03T09:26:13Z</time>
      </trkpt>
      <trkpt lat="48.26828" lon="2.61246">
        <ele>99.800003051758</ele>
        <time>2013-02-03T09:26:33Z</time>
      </trkpt>
      <trkpt lat="48.26828" lon="2.61248">
        <ele>99.800003051758</ele>
        <time>2013-02-03T09:26:40Z</time>
      </trkpt>
      <trkpt lat="48.26825" lon="2.61249">
        <ele>100.19999694824</ele>
        <time>2013-02-03T09:26:54Z</time>
      </trkpt>
      <trkpt lat="48.26822" lon="2.61243">
        <ele>101</ele>
        <time>2013-02-03T09:27:16Z</time>
      </trkpt>
      <trkpt lat="48.2682" lon="2.61253">
        <ele>101</ele>
        <time>2013-02-03T09:27:34Z</time>
      </trkpt>
      <trkpt lat="48.26816" lon="2.61258">
        <ele>101.59999847412</ele>
        <time>2013-02-03T09:27:42Z</time>
      </trkpt>
      <trkpt lat="48.26811" lon="2.61254">
        <ele>102.59999847412</ele>
        <time>2013-02-03T09:27:55Z</time>
      </trkpt>
      <trkpt lat="48.26814" lon="2.61259">
        <ele>102</ele>
        <time>2013-02-03T09:28:02Z</time>
      </trkpt>
      <trkpt lat="48.26813" lon="2.61267">
        <ele>101.80000305176</ele>
        <time>2013-02-03T09:28:16Z</time>
      </trkpt>
      <trkpt lat="48.26811" lon="2.61275">
        <ele>102</ele>
        <time>2013-02-03T09:28:22Z</time>
      </trkpt>
      <trkpt lat="48.26813" lon="2.61277">
        <ele>101.59999847412</ele>
        <time>2013-02-03T09:28:29Z</time>
      </trkpt>
      <trkpt lat="48.26812" lon="2.61281">
        <ele>101.80000305176</ele>
        <time>2013-02-03T09:28:36Z</time>
      </trkpt>
      <trkpt lat="48.26812" lon="2.61287">
        <ele>101.59999847412</ele>
        <time>2013-02-03T09:28:41Z</time>
      </trkpt>
      <trkpt lat="48.26812" lon="2.61289">
        <ele>101.59999847412</ele>
        <time>2013-02-03T09:28:46Z</time>
      </trkpt>
      <trkpt lat="48.26809" lon="2.61295">
        <ele>102</ele>
        <time>2013-02-03T09:28:51Z</time>
      </trkpt>
      <trkpt lat="48.2681" lon="2.61298">
        <ele>101.59999847412</ele>
        <time>2013-02-03T09:28:58Z</time>
      </trkpt>
      <trkpt lat="48.26811" lon="2.61304">
        <ele>101.19999694824</ele>
        <time>2013-02-03T09:29:09Z</time>
      </trkpt>
      <trkpt lat="48.26817" lon="2.61311">
        <ele>99.800003051758</ele>
        <time>2013-02-03T09:29:13Z</time>
      </trkpt>
      <trkpt lat="48.26826" lon="2.61307">
        <ele>98.199996948242</ele>
        <time>2013-02-03T09:29:18Z</time>
      </trkpt>
      <trkpt lat="48.2683" lon="2.61303">
        <ele>97.800003051758</ele>
        <time>2013-02-03T09:29:24Z</time>
      </trkpt>
      <trkpt lat="48.26835" lon="2.61302">
        <ele>96.599998474121</ele>
        <time>2013-02-03T09:29:31Z</time>
      </trkpt>
      <trkpt lat="48.26833" lon="2.61304">
        <ele>97</ele>
        <time>2013-02-03T09:29:34Z</time>
      </trkpt>
      <trkpt lat="48.26827" lon="2.61315">
        <ele>97.800003051758</ele>
        <time>2013-02-03T09:29:40Z</time>
      </trkpt>
      <trkpt lat="48.26822" lon="2.61319">
        <ele>98.599998474121</ele>
        <time>2013-02-03T09:29:43Z</time>
      </trkpt>
      <trkpt lat="48.2682" lon="2.61332">
        <ele>98.599998474121</ele>
        <time>2013-02-03T09:29:48Z</time>
      </trkpt>
      <trkpt lat="48.26824" lon="2.61337">
        <ele>98</ele>
        <time>2013-02-03T09:29:53Z</time>
      </trkpt>
      <trkpt lat="48.26825" lon="2.61341">
        <ele>97.800003051758</ele>
        <time>2013-02-03T09:29:58Z</time>
      </trkpt>
      <trkpt lat="48.26835" lon="2.61348">
        <ele>96.199996948242</ele>
        <time>2013-02-03T09:30:09Z</time>
      </trkpt>
      <trkpt lat="48.26834" lon="2.61352">
        <ele>96.400001525879</ele>
        <time>2013-02-03T09:30:11Z</time>
      </trkpt>
      <trkpt lat="48.26835" lon="2.61369">
        <ele>96.800003051758</ele>
        <time>2013-02-03T09:30:16Z</time>
      </trkpt>
      <trkpt lat="48.26836" lon="2.61373">
        <ele>96.800003051758</ele>
        <time>2013-02-03T09:30:18Z</time>
      </trkpt>
      <trkpt lat="48.26842" lon="2.61386">
        <ele>96</ele>
        <time>2013-02-03T09:30:24Z</time>
      </trkpt>
      <trkpt lat="48.26843" lon="2.61389">
        <ele>95.800003051758</ele>
        <time>2013-02-03T09:30:25Z</time>
      </trkpt>
      <trkpt lat="48.26847" lon="2.61404">
        <ele>95.599998474121</ele>
        <time>2013-02-03T09:30:29Z</time>
      </trkpt>
      <trkpt lat="48.2685" lon="2.61416">
        <ele>95.599998474121</ele>
        <time>2013-02-03T09:30:35Z</time>
      </trkpt>
      <trkpt lat="48.26861" lon="2.6143">
        <ele>94</ele>
        <time>2013-02-03T09:30:41Z</time>
      </trkpt>
      <trkpt lat="48.26876" lon="2.61445">
        <ele>91.800003051758</ele>
        <time>2013-02-03T09:30:46Z</time>
      </trkpt>
      <trkpt lat="48.26886" lon="2.6146">
        <ele>90.800003051758</ele>
        <time>2013-02-03T09:30:50Z</time>
      </trkpt>
      <trkpt lat="48.2689" lon="2.61473">
        <ele>90.599998474121</ele>
        <time>2013-02-03T09:30:55Z</time>
      </trkpt>
      <trkpt lat="48.26894" lon="2.61489">
        <ele>90.800003051758</ele>
        <time>2013-02-03T09:31:00Z</time>
      </trkpt>
      <trkpt lat="48.26905" lon="2.61505">
        <ele>89.599998474121</ele>
        <time>2013-02-03T09:31:05Z</time>
      </trkpt>
      <trkpt lat="48.26913" lon="2.61523">
        <ele>89</ele>
        <time>2013-02-03T09:31:09Z</time>
      </trkpt>
      <trkpt lat="48.26916" lon="2.61537">
        <ele>89.199996948242</ele>
        <time>2013-02-03T09:31:13Z</time>
      </trkpt>
      <trkpt lat="48.26914" lon="2.61553">
        <ele>90.599998474121</ele>
        <time>2013-02-03T09:31:18Z</time>
      </trkpt>
      <trkpt lat="48.26907" lon="2.61555">
        <ele>92.199996948242</ele>
        <time>2013-02-03T09:31:22Z</time>
      </trkpt>
      <trkpt lat="48.26898" lon="2.61556">
        <ele>94.199996948242</ele>
        <time>2013-02-03T09:31:27Z</time>
      </trkpt>
      <trkpt lat="48.2689" lon="2.61559">
        <ele>95.800003051758</ele>
        <time>2013-02-03T09:31:31Z</time>
      </trkpt>
      <trkpt lat="48.26879" lon="2.61565">
        <ele>98.400001525879</ele>
        <time>2013-02-03T09:31:38Z</time>
      </trkpt>
      <trkpt lat="48.26879" lon="2.61566">
        <ele>98.599998474121</ele>
        <time>2013-02-03T09:31:40Z</time>
      </trkpt>
      <trkpt lat="48.26874" lon="2.61581">
        <ele>100.40000152588</ele>
        <time>2013-02-03T09:31:46Z</time>
      </trkpt>
      <trkpt lat="48.26874" lon="2.61592">
        <ele>101</ele>
        <time>2013-02-03T09:31:49Z</time>
      </trkpt>
      <trkpt lat="48.26875" lon="2.61614">
        <ele>102.19999694824</ele>
        <time>2013-02-03T09:31:55Z</time>
      </trkpt>
      <trkpt lat="48.26879" lon="2.61631">
        <ele>102.59999847412</ele>
        <time>2013-02-03T09:32:00Z</time>
      </trkpt>
      <trkpt lat="48.26877" lon="2.61641">
        <ele>103.40000152588</ele>
        <time>2013-02-03T09:32:03Z</time>
      </trkpt>
      <trkpt lat="48.26887" lon="2.61667">
        <ele>103.59999847412</ele>
        <time>2013-02-03T09:32:10Z</time>
      </trkpt>
      <trkpt lat="48.26892" lon="2.61683">
        <ele>103.40000152588</ele>
        <time>2013-02-03T09:32:14Z</time>
      </trkpt>
      <trkpt lat="48.26894" lon="2.61692">
        <ele>103.40000152588</ele>
        <time>2013-02-03T09:32:17Z</time>
      </trkpt>
      <trkpt lat="48.26902" lon="2.6171">
        <ele>103.19999694824</ele>
        <time>2013-02-03T09:32:23Z</time>
      </trkpt>
      <trkpt lat="48.26904" lon="2.61716">
        <ele>103</ele>
        <time>2013-02-03T09:32:25Z</time>
      </trkpt>
      <trkpt lat="48.26911" lon="2.61748">
        <ele>103.40000152588</ele>
        <time>2013-02-03T09:32:33Z</time>
      </trkpt>
      <trkpt lat="48.26913" lon="2.61765">
        <ele>103.80000305176</ele>
        <time>2013-02-03T09:32:37Z</time>
      </trkpt>
      <trkpt lat="48.2691" lon="2.61774">
        <ele>104.59999847412</ele>
        <time>2013-02-03T09:32:41Z</time>
      </trkpt>
      <trkpt lat="48.26906" lon="2.61789">
        <ele>105.19999694824</ele>
        <time>2013-02-03T09:32:47Z</time>
      </trkpt>
      <trkpt lat="48.269" lon="2.61801">
        <ele>106</ele>
        <time>2013-02-03T09:32:52Z</time>
      </trkpt>
      <trkpt lat="48.26899" lon="2.61813">
        <ele>106.40000152588</ele>
        <time>2013-02-03T09:32:58Z</time>
      </trkpt>
      <trkpt lat="48.26907" lon="2.6181">
        <ele>105.80000305176</ele>
        <time>2013-02-03T09:33:03Z</time>
      </trkpt>
      <trkpt lat="48.26913" lon="2.61813">
        <ele>105.40000152588</ele>
        <time>2013-02-03T09:33:08Z</time>
      </trkpt>
      <trkpt lat="48.2691" lon="2.61822">
        <ele>106</ele>
        <time>2013-02-03T09:33:14Z</time>
      </trkpt>
      <trkpt lat="48.26911" lon="2.61836">
        <ele>106.19999694824</ele>
        <time>2013-02-03T09:33:18Z</time>
      </trkpt>
      <trkpt lat="48.2691" lon="2.6185">
        <ele>106.59999847412</ele>
        <time>2013-02-03T09:33:22Z</time>
      </trkpt>
      <trkpt lat="48.26905" lon="2.61852">
        <ele>106.80000305176</ele>
        <time>2013-02-03T09:33:25Z</time>
      </trkpt>
      <trkpt lat="48.26905" lon="2.61857">
        <ele>106.80000305176</ele>
        <time>2013-02-03T09:33:33Z</time>
      </trkpt>
      <trkpt lat="48.26904" lon="2.61861">
        <ele>106.80000305176</ele>
        <time>2013-02-03T09:33:50Z</time>
      </trkpt>
      <trkpt lat="48.26902" lon="2.61875">
        <ele>107</ele>
        <time>2013-02-03T09:33:55Z</time>
      </trkpt>
      <trkpt lat="48.26902" lon="2.61877">
        <ele>107.19999694824</ele>
        <time>2013-02-03T09:33:56Z</time>
      </trkpt>
      <trkpt lat="48.26899" lon="2.61877">
        <ele>107.19999694824</ele>
        <time>2013-02-03T09:33:59Z</time>
      </trkpt>
      <trkpt lat="48.26901" lon="2.6189">
        <ele>107.19999694824</ele>
        <time>2013-02-03T09:34:04Z</time>
      </trkpt>
      <trkpt lat="48.26907" lon="2.61897">
        <ele>107.40000152588</ele>
        <time>2013-02-03T09:34:09Z</time>
      </trkpt>
      <trkpt lat="48.26912" lon="2.61897">
        <ele>107.40000152588</ele>
        <time>2013-02-03T09:34:12Z</time>
      </trkpt>
      <trkpt lat="48.26921" lon="2.61895">
        <ele>107.19999694824</ele>
        <time>2013-02-03T09:34:17Z</time>
      </trkpt>
      <trkpt lat="48.26928" lon="2.61888">
        <ele>106.80000305176</ele>
        <time>2013-02-03T09:34:21Z</time>
      </trkpt>
      <trkpt lat="48.26932" lon="2.61888">
        <ele>106.59999847412</ele>
        <time>2013-02-03T09:34:24Z</time>
      </trkpt>
      <trkpt lat="48.2694" lon="2.61883">
        <ele>106</ele>
        <time>2013-02-03T09:34:29Z</time>
      </trkpt>
      <trkpt lat="48.26947" lon="2.61883">
        <ele>105.59999847412</ele>
        <time>2013-02-03T09:34:33Z</time>
      </trkpt>
      <trkpt lat="48.26953" lon="2.61882">
        <ele>105.40000152588</ele>
        <time>2013-02-03T09:34:37Z</time>
      </trkpt>
      <trkpt lat="48.26955" lon="2.61881">
        <ele>105.19999694824</ele>
        <time>2013-02-03T09:34:38Z</time>
      </trkpt>
      <trkpt lat="48.26968" lon="2.6187">
        <ele>103.80000305176</ele>
        <time>2013-02-03T09:34:44Z</time>
      </trkpt>
      <trkpt lat="48.26974" lon="2.61866">
        <ele>103.19999694824</ele>
        <time>2013-02-03T09:34:46Z</time>
      </trkpt>
      <trkpt lat="48.26989" lon="2.61864">
        <ele>102.19999694824</ele>
        <time>2013-02-03T09:34:51Z</time>
      </trkpt>
      <trkpt lat="48.26999" lon="2.61856">
        <ele>100.80000305176</ele>
        <time>2013-02-03T09:34:55Z</time>
      </trkpt>
      <trkpt lat="48.27008" lon="2.61856">
        <ele>99.599998474121</ele>
        <time>2013-02-03T09:35:00Z</time>
      </trkpt>
      <trkpt lat="48.27013" lon="2.61864">
        <ele>99.599998474121</ele>
        <time>2013-02-03T09:35:04Z</time>
      </trkpt>
      <trkpt lat="48.27018" lon="2.61875">
        <ele>99.800003051758</ele>
        <time>2013-02-03T09:35:08Z</time>
      </trkpt>
      <trkpt lat="48.27025" lon="2.61903">
        <ele>101.19999694824</ele>
        <time>2013-02-03T09:35:14Z</time>
      </trkpt>
      <trkpt lat="48.27025" lon="2.6192">
        <ele>102.40000152588</ele>
        <time>2013-02-03T09:35:18Z</time>
      </trkpt>
      <trkpt lat="48.27027" lon="2.61925">
        <ele>102.59999847412</ele>
        <time>2013-02-03T09:35:23Z</time>
      </trkpt>
      <trkpt lat="48.27028" lon="2.61932">
        <ele>102.59999847412</ele>
        <time>2013-02-03T09:35:31Z</time>
      </trkpt>
      <trkpt lat="48.2703" lon="2.61943">
        <ele>103.19999694824</ele>
        <time>2013-02-03T09:35:41Z</time>
      </trkpt>
      <trkpt lat="48.27034" lon="2.6194">
        <ele>102.59999847412</ele>
        <time>2013-02-03T09:35:50Z</time>
      </trkpt>
      <trkpt lat="48.27033" lon="2.61939">
        <ele>102.59999847412</ele>
        <time>2013-02-03T09:35:56Z</time>
      </trkpt>
      <trkpt lat="48.27031" lon="2.61942">
        <ele>103</ele>
        <time>2013-02-03T09:35:59Z</time>
      </trkpt>
      <trkpt lat="48.27032" lon="2.61949">
        <ele>103.40000152588</ele>
        <time>2013-02-03T09:36:05Z</time>
      </trkpt>
      <trkpt lat="48.27035" lon="2.61954">
        <ele>103.19999694824</ele>
        <time>2013-02-03T09:36:09Z</time>
      </trkpt>
      <trkpt lat="48.27036" lon="2.61954">
        <ele>103.19999694824</ele>
        <time>2013-02-03T09:36:10Z</time>
      </trkpt>
      <trkpt lat="48.27041" lon="2.6196">
        <ele>103.19999694824</ele>
        <time>2013-02-03T09:36:15Z</time>
      </trkpt>
      <trkpt lat="48.27039" lon="2.61963">
        <ele>103.40000152588</ele>
        <time>2013-02-03T09:36:18Z</time>
      </trkpt>
      <trkpt lat="48.2704" lon="2.61976">
        <ele>104.40000152588</ele>
        <time>2013-02-03T09:36:24Z</time>
      </trkpt>
      <trkpt lat="48.27034" lon="2.61985">
        <ele>105.40000152588</ele>
        <time>2013-02-03T09:36:29Z</time>
      </trkpt>
      <trkpt lat="48.27032" lon="2.61982">
        <ele>105.19999694824</ele>
        <time>2013-02-03T09:36:31Z</time>
      </trkpt>
      <trkpt lat="48.2703" lon="2.61972">
        <ele>104.80000305176</ele>
        <time>2013-02-03T09:36:34Z</time>
      </trkpt>
      <trkpt lat="48.27018" lon="2.6196">
        <ele>105.19999694824</ele>
        <time>2013-02-03T09:36:39Z</time>
      </trkpt>
      <trkpt lat="48.27009" lon="2.61957">
        <ele>106</ele>
        <time>2013-02-03T09:36:43Z</time>
      </trkpt>
      <trkpt lat="48.27003" lon="2.61951">
        <ele>106.40000152588</ele>
        <time>2013-02-03T09:36:47Z</time>
      </trkpt>
      <trkpt lat="48.26992" lon="2.61945">
        <ele>106.80000305176</ele>
        <time>2013-02-03T09:36:52Z</time>
      </trkpt>
      <trkpt lat="48.2699" lon="2.61942">
        <ele>106.59999847412</ele>
        <time>2013-02-03T09:36:54Z</time>
      </trkpt>
      <trkpt lat="48.26981" lon="2.61937">
        <ele>106.80000305176</ele>
        <time>2013-02-03T09:36:59Z</time>
      </trkpt>
      <trkpt lat="48.26969" lon="2.61932">
        <ele>106.80000305176</ele>
        <time>2013-02-03T09:37:05Z</time>
      </trkpt>
      <trkpt lat="48.26967" lon="2.61931">
        <ele>107</ele>
        <time>2013-02-03T09:37:06Z</time>
      </trkpt>
      <trkpt lat="48.26962" lon="2.61929">
        <ele>107</ele>
        <time>2013-02-03T09:37:08Z</time>
      </trkpt>
      <trkpt lat="48.26952" lon="2.61935">
        <ele>107.19999694824</ele>
        <time>2013-02-03T09:37:13Z</time>
      </trkpt>
      <trkpt lat="48.26949" lon="2.61947">
        <ele>107.40000152588</ele>
        <time>2013-02-03T09:37:17Z</time>
      </trkpt>
      <trkpt lat="48.26948" lon="2.61956">
        <ele>107.59999847412</ele>
        <time>2013-02-03T09:37:20Z</time>
      </trkpt>
      <trkpt lat="48.26935" lon="2.6196">
        <ele>107.59999847412</ele>
        <time>2013-02-03T09:37:26Z</time>
      </trkpt>
      <trkpt lat="48.26933" lon="2.61964">
        <ele>107.80000305176</ele>
        <time>2013-02-03T09:37:29Z</time>
      </trkpt>
      <trkpt lat="48.26934" lon="2.61975">
        <ele>107.80000305176</ele>
        <time>2013-02-03T09:37:33Z</time>
      </trkpt>
      <trkpt lat="48.26939" lon="2.61987">
        <ele>107.80000305176</ele>
        <time>2013-02-03T09:37:38Z</time>
      </trkpt>
      <trkpt lat="48.26941" lon="2.61994">
        <ele>107.80000305176</ele>
        <time>2013-02-03T09:37:41Z</time>
      </trkpt>
      <trkpt lat="48.26945" lon="2.62005">
        <ele>108</ele>
        <time>2013-02-03T09:37:47Z</time>
      </trkpt>
      <trkpt lat="48.26949" lon="2.62012">
        <ele>108</ele>
        <time>2013-02-03T09:37:52Z</time>
      </trkpt>
      <trkpt lat="48.2695" lon="2.62015">
        <ele>108</ele>
        <time>2013-02-03T09:37:53Z</time>
      </trkpt>
      <trkpt lat="48.26953" lon="2.62023">
        <ele>108</ele>
        <time>2013-02-03T09:37:56Z</time>
      </trkpt>
      <trkpt lat="48.26957" lon="2.62035">
        <ele>108</ele>
        <time>2013-02-03T09:38:01Z</time>
      </trkpt>
      <trkpt lat="48.26958" lon="2.62053">
        <ele>108</ele>
        <time>2013-02-03T09:38:07Z</time>
      </trkpt>
      <trkpt lat="48.26958" lon="2.6206">
        <ele>108</ele>
        <time>2013-02-03T09:38:09Z</time>
      </trkpt>
      <trkpt lat="48.26962" lon="2.62085">
        <ele>107.80000305176</ele>
        <time>2013-02-03T09:38:14Z</time>
      </trkpt>
      <trkpt lat="48.26961" lon="2.62092">
        <ele>107.80000305176</ele>
        <time>2013-02-03T09:38:16Z</time>
      </trkpt>
      <trkpt lat="48.26962" lon="2.62118">
        <ele>108</ele>
        <time>2013-02-03T09:38:22Z</time>
      </trkpt>
      <trkpt lat="48.26968" lon="2.62135">
        <ele>108</ele>
        <time>2013-02-03T09:38:27Z</time>
      </trkpt>
      <trkpt lat="48.26976" lon="2.62142">
        <ele>108</ele>
        <time>2013-02-03T09:38:32Z</time>
      </trkpt>
      <trkpt lat="48.26975" lon="2.62132">
        <ele>108</ele>
        <time>2013-02-03T09:38:36Z</time>
      </trkpt>
      <trkpt lat="48.2698" lon="2.62121">
        <ele>107.80000305176</ele>
        <time>2013-02-03T09:38:40Z</time>
      </trkpt>
      <trkpt lat="48.26986" lon="2.62109">
        <ele>107.40000152588</ele>
        <time>2013-02-03T09:38:45Z</time>
      </trkpt>
      <trkpt lat="48.26988" lon="2.62107">
        <ele>107.40000152588</ele>
        <time>2013-02-03T09:38:46Z</time>
      </trkpt>
      <trkpt lat="48.26997" lon="2.621">
        <ele>107.19999694824</ele>
        <time>2013-02-03T09:38:51Z</time>
      </trkpt>
      <trkpt lat="48.27003" lon="2.62085">
        <ele>107</ele>
        <time>2013-02-03T09:38:56Z</time>
      </trkpt>
      <trkpt lat="48.27006" lon="2.62077">
        <ele>107</ele>
        <time>2013-02-03T09:38:59Z</time>
      </trkpt>
      <trkpt lat="48.27005" lon="2.62069">
        <ele>107.19999694824</ele>
        <time>2013-02-03T09:39:01Z</time>
      </trkpt>
      <trkpt lat="48.27" lon="2.62058">
        <ele>107.19999694824</ele>
        <time>2013-02-03T09:39:05Z</time>
      </trkpt>
      <trkpt lat="48.2699" lon="2.62049">
        <ele>107.40000152588</ele>
        <time>2013-02-03T09:39:09Z</time>
      </trkpt>
      <trkpt lat="48.26985" lon="2.62036">
        <ele>107.59999847412</ele>
        <time>2013-02-03T09:39:14Z</time>
      </trkpt>
      <trkpt lat="48.26978" lon="2.62021">
        <ele>107.80000305176</ele>
        <time>2013-02-03T09:39:20Z</time>
      </trkpt>
      <trkpt lat="48.26972" lon="2.62015">
        <ele>107.80000305176</ele>
        <time>2013-02-03T09:39:24Z</time>
      </trkpt>
      <trkpt lat="48.26972" lon="2.62005">
        <ele>107.80000305176</ele>
        <time>2013-02-03T09:39:28Z</time>
      </trkpt>
      <trkpt lat="48.26973" lon="2.61998">
        <ele>107.80000305176</ele>
        <time>2013-02-03T09:39:32Z</time>
      </trkpt>
      <trkpt lat="48.26981" lon="2.62001">
        <ele>107.80000305176</ele>
        <time>2013-02-03T09:39:37Z</time>
      </trkpt>
      <trkpt lat="48.2699" lon="2.62005">
        <ele>107.80000305176</ele>
        <time>2013-02-03T09:39:41Z</time>
      </trkpt>
      <trkpt lat="48.27" lon="2.62011">
        <ele>107.80000305176</ele>
        <time>2013-02-03T09:39:46Z</time>
      </trkpt>
      <trkpt lat="48.27003" lon="2.62012">
        <ele>107.59999847412</ele>
        <time>2013-02-03T09:39:48Z</time>
      </trkpt>
      <trkpt lat="48.2701" lon="2.6202">
        <ele>107.40000152588</ele>
        <time>2013-02-03T09:39:53Z</time>
      </trkpt>
      <trkpt lat="48.27012" lon="2.6203">
        <ele>107.19999694824</ele>
        <time>2013-02-03T09:39:57Z</time>
      </trkpt>
      <trkpt lat="48.27014" lon="2.6204">
        <ele>107.19999694824</ele>
        <time>2013-02-03T09:40:00Z</time>
      </trkpt>
      <trkpt lat="48.27018" lon="2.62051">
        <ele>107.19999694824</ele>
        <time>2013-02-03T09:40:04Z</time>
      </trkpt>
      <trkpt lat="48.27027" lon="2.62068">
        <ele>107.40000152588</ele>
        <time>2013-02-03T09:40:10Z</time>
      </trkpt>
      <trkpt lat="48.27033" lon="2.62071">
        <ele>107.40000152588</ele>
        <time>2013-02-03T09:40:12Z</time>
      </trkpt>
      <trkpt lat="48.27047" lon="2.62066">
        <ele>107.59999847412</ele>
        <time>2013-02-03T09:40:17Z</time>
      </trkpt>
      <trkpt lat="48.27059" lon="2.62059">
        <ele>107.40000152588</ele>
        <time>2013-02-03T09:40:22Z</time>
      </trkpt>
      <trkpt lat="48.2707" lon="2.62064">
        <ele>107.59999847412</ele>
        <time>2013-02-03T09:40:27Z</time>
      </trkpt>
      <trkpt lat="48.27085" lon="2.62071">
        <ele>108</ele>
        <time>2013-02-03T09:40:32Z</time>
      </trkpt>
      <trkpt lat="48.2709" lon="2.62076">
        <ele>107.19999694824</ele>
        <time>2013-02-03T09:40:36Z</time>
      </trkpt>
      <trkpt lat="48.27099" lon="2.62094">
        <ele>105.80000305176</ele>
        <time>2013-02-03T09:40:42Z</time>
      </trkpt>
      <trkpt lat="48.27103" lon="2.62112">
        <ele>105</ele>
        <time>2013-02-03T09:40:47Z</time>
      </trkpt>
      <trkpt lat="48.27105" lon="2.62136">
        <ele>104.19999694824</ele>
        <time>2013-02-03T09:40:52Z</time>
      </trkpt>
      <trkpt lat="48.27109" lon="2.62159">
        <ele>103.40000152588</ele>
        <time>2013-02-03T09:40:57Z</time>
      </trkpt>
      <trkpt lat="48.27108" lon="2.62173">
        <ele>103.59999847412</ele>
        <time>2013-02-03T09:41:01Z</time>
      </trkpt>
      <trkpt lat="48.27105" lon="2.62197">
        <ele>104.19999694824</ele>
        <time>2013-02-03T09:41:07Z</time>
      </trkpt>
      <trkpt lat="48.27104" lon="2.6221">
        <ele>104.59999847412</ele>
        <time>2013-02-03T09:41:10Z</time>
      </trkpt>
      <trkpt lat="48.271" lon="2.62217">
        <ele>105.19999694824</ele>
        <time>2013-02-03T09:41:15Z</time>
      </trkpt>
      <trkpt lat="48.2709" lon="2.62226">
        <ele>106.40000152588</ele>
        <time>2013-02-03T09:41:20Z</time>
      </trkpt>
      <trkpt lat="48.27086" lon="2.62236">
        <ele>106.80000305176</ele>
        <time>2013-02-03T09:41:24Z</time>
      </trkpt>
      <trkpt lat="48.27085" lon="2.62239">
        <ele>106.80000305176</ele>
        <time>2013-02-03T09:41:25Z</time>
      </trkpt>
      <trkpt lat="48.27079" lon="2.62245">
        <ele>107</ele>
        <time>2013-02-03T09:41:30Z</time>
      </trkpt>
      <trkpt lat="48.27076" lon="2.62251">
        <ele>107</ele>
        <time>2013-02-03T09:41:33Z</time>
      </trkpt>
      <trkpt lat="48.27066" lon="2.62257">
        <ele>107</ele>
        <time>2013-02-03T09:41:39Z</time>
      </trkpt>
      <trkpt lat="48.27063" lon="2.62265">
        <ele>107.19999694824</ele>
        <time>2013-02-03T09:41:43Z</time>
      </trkpt>
      <trkpt lat="48.27062" lon="2.62279">
        <ele>107</ele>
        <time>2013-02-03T09:41:47Z</time>
      </trkpt>
      <trkpt lat="48.27052" lon="2.62283">
        <ele>107.19999694824</ele>
        <time>2013-02-03T09:41:52Z</time>
      </trkpt>
      <trkpt lat="48.27045" lon="2.62295">
        <ele>107.19999694824</ele>
        <time>2013-02-03T09:41:57Z</time>
      </trkpt>
      <trkpt lat="48.27038" lon="2.62303">
        <ele>107</ele>
        <time>2013-02-03T09:42:02Z</time>
      </trkpt>
      <trkpt lat="48.27032" lon="2.62314">
        <ele>107</ele>
        <time>2013-02-03T09:42:07Z</time>
      </trkpt>
      <trkpt lat="48.27027" lon="2.62309">
        <ele>107</ele>
        <time>2013-02-03T09:42:12Z</time>
      </trkpt>
      <trkpt lat="48.27025" lon="2.62302">
        <ele>107.19999694824</ele>
        <time>2013-02-03T09:42:16Z</time>
      </trkpt>
      <trkpt lat="48.27027" lon="2.62291">
        <ele>107.19999694824</ele>
        <time>2013-02-03T09:42:21Z</time>
      </trkpt>
      <trkpt lat="48.27028" lon="2.62285">
        <ele>107.19999694824</ele>
        <time>2013-02-03T09:42:25Z</time>
      </trkpt>
      <trkpt lat="48.27031" lon="2.62277">
        <ele>107.40000152588</ele>
        <time>2013-02-03T09:42:28Z</time>
      </trkpt>
      <trkpt lat="48.2703" lon="2.62265">
        <ele>107.40000152588</ele>
        <time>2013-02-03T09:42:32Z</time>
      </trkpt>
      <trkpt lat="48.27028" lon="2.62258">
        <ele>107.59999847412</ele>
        <time>2013-02-03T09:42:34Z</time>
      </trkpt>
      <trkpt lat="48.27026" lon="2.6224">
        <ele>107.59999847412</ele>
        <time>2013-02-03T09:42:39Z</time>
      </trkpt>
      <trkpt lat="48.2702" lon="2.62223">
        <ele>107.80000305176</ele>
        <time>2013-02-03T09:42:44Z</time>
      </trkpt>
      <trkpt lat="48.27016" lon="2.62213">
        <ele>107.80000305176</ele>
        <time>2013-02-03T09:42:49Z</time>
      </trkpt>
      <trkpt lat="48.27013" lon="2.62205">
        <ele>107.80000305176</ele>
        <time>2013-02-03T09:42:52Z</time>
      </trkpt>
      <trkpt lat="48.27013" lon="2.62198">
        <ele>107.80000305176</ele>
        <time>2013-02-03T09:42:54Z</time>
      </trkpt>
      <trkpt lat="48.27021" lon="2.62194">
        <ele>107.80000305176</ele>
        <time>2013-02-03T09:42:59Z</time>
      </trkpt>
      <trkpt lat="48.27025" lon="2.62195">
        <ele>107.80000305176</ele>
        <time>2013-02-03T09:43:01Z</time>
      </trkpt>
      <trkpt lat="48.27033" lon="2.62191">
        <ele>107.80000305176</ele>
        <time>2013-02-03T09:43:06Z</time>
      </trkpt>
      <trkpt lat="48.2704" lon="2.62189">
        <ele>107.80000305176</ele>
        <time>2013-02-03T09:43:11Z</time>
      </trkpt>
      <trkpt lat="48.27042" lon="2.62191">
        <ele>107.80000305176</ele>
        <time>2013-02-03T09:43:12Z</time>
      </trkpt>
      <trkpt lat="48.27046" lon="2.62193">
        <ele>107.80000305176</ele>
        <time>2013-02-03T09:43:14Z</time>
      </trkpt>
      <trkpt lat="48.27055" lon="2.62194">
        <ele>107.59999847412</ele>
        <time>2013-02-03T09:43:18Z</time>
      </trkpt>
      <trkpt lat="48.27066" lon="2.62199">
        <ele>107.59999847412</ele>
        <time>2013-02-03T09:43:24Z</time>
      </trkpt>
      <trkpt lat="48.27068" lon="2.6219">
        <ele>107.59999847412</ele>
        <time>2013-02-03T09:43:28Z</time>
      </trkpt>
      <trkpt lat="48.27067" lon="2.62187">
        <ele>107.80000305176</ele>
        <time>2013-02-03T09:43:29Z</time>
      </trkpt>
      <trkpt lat="48.27062" lon="2.62171">
        <ele>107.80000305176</ele>
        <time>2013-02-03T09:43:35Z</time>
      </trkpt>
      <trkpt lat="48.27054" lon="2.62159">
        <ele>108</ele>
        <time>2013-02-03T09:43:40Z</time>
      </trkpt>
      <trkpt lat="48.27053" lon="2.62155">
        <ele>108</ele>
        <time>2013-02-03T09:43:42Z</time>
      </trkpt>
      <trkpt lat="48.27046" lon="2.62139">
        <ele>108</ele>
        <time>2013-02-03T09:43:48Z</time>
      </trkpt>
      <trkpt lat="48.27044" lon="2.62137">
        <ele>108</ele>
        <time>2013-02-03T09:43:49Z</time>
      </trkpt>
      <trkpt lat="48.2704" lon="2.62133">
        <ele>107.80000305176</ele>
        <time>2013-02-03T09:43:51Z</time>
      </trkpt>
      <trkpt lat="48.27034" lon="2.62121">
        <ele>107.80000305176</ele>
        <time>2013-02-03T09:43:57Z</time>
      </trkpt>
      <trkpt lat="48.27026" lon="2.6212">
        <ele>107.59999847412</ele>
        <time>2013-02-03T09:44:02Z</time>
      </trkpt>
      <trkpt lat="48.2702" lon="2.62121">
        <ele>107.59999847412</ele>
        <time>2013-02-03T09:44:06Z</time>
      </trkpt>
      <trkpt lat="48.27009" lon="2.62124">
        <ele>107.40000152588</ele>
        <time>2013-02-03T09:44:11Z</time>
      </trkpt>
      <trkpt lat="48.27001" lon="2.62148">
        <ele>107.59999847412</ele>
        <time>2013-02-03T09:44:18Z</time>
      </trkpt>
      <trkpt lat="48.26999" lon="2.62167">
        <ele>108</ele>
        <time>2013-02-03T09:44:23Z</time>
      </trkpt>
      <trkpt lat="48.26995" lon="2.62177">
        <ele>108</ele>
        <time>2013-02-03T09:44:26Z</time>
      </trkpt>
      <trkpt lat="48.26988" lon="2.62191">
        <ele>108</ele>
        <time>2013-02-03T09:44:31Z</time>
      </trkpt>
      <trkpt lat="48.26987" lon="2.62193">
        <ele>108</ele>
        <time>2013-02-03T09:44:32Z</time>
      </trkpt>
      <trkpt lat="48.26986" lon="2.62206">
        <ele>108</ele>
        <time>2013-02-03T09:44:37Z</time>
      </trkpt>
      <trkpt lat="48.2699" lon="2.62227">
        <ele>107.80000305176</ele>
        <time>2013-02-03T09:44:44Z</time>
      </trkpt>
      <trkpt lat="48.2699" lon="2.62229">
        <ele>107.80000305176</ele>
        <time>2013-02-03T09:44:45Z</time>
      </trkpt>
      <trkpt lat="48.2699" lon="2.62237">
        <ele>107.80000305176</ele>
        <time>2013-02-03T09:44:47Z</time>
      </trkpt>
      <trkpt lat="48.26996" lon="2.62259">
        <ele>107.80000305176</ele>
        <time>2013-02-03T09:44:53Z</time>
      </trkpt>
      <trkpt lat="48.26998" lon="2.62278">
        <ele>107.40000152588</ele>
        <time>2013-02-03T09:44:58Z</time>
      </trkpt>
      <trkpt lat="48.26999" lon="2.62286">
        <ele>107.40000152588</ele>
        <time>2013-02-03T09:45:00Z</time>
      </trkpt>
      <trkpt lat="48.27001" lon="2.62315">
        <ele>107.19999694824</ele>
        <time>2013-02-03T09:45:06Z</time>
      </trkpt>
      <trkpt lat="48.26997" lon="2.62329">
        <ele>106.80000305176</ele>
        <time>2013-02-03T09:45:11Z</time>
      </trkpt>
      <trkpt lat="48.26983" lon="2.6234">
        <ele>106.19999694824</ele>
        <time>2013-02-03T09:45:18Z</time>
      </trkpt>
      <trkpt lat="48.26982" lon="2.62355">
        <ele>106</ele>
        <time>2013-02-03T09:45:22Z</time>
      </trkpt>
      <trkpt lat="48.26984" lon="2.62361">
        <ele>106.19999694824</ele>
        <time>2013-02-03T09:45:24Z</time>
      </trkpt>
      <trkpt lat="48.26985" lon="2.62372">
        <ele>106.19999694824</ele>
        <time>2013-02-03T09:45:29Z</time>
      </trkpt>
      <trkpt lat="48.26984" lon="2.6238">
        <ele>106.19999694824</ele>
        <time>2013-02-03T09:45:32Z</time>
      </trkpt>
      <trkpt lat="48.26984" lon="2.6239">
        <ele>106.19999694824</ele>
        <time>2013-02-03T09:45:35Z</time>
      </trkpt>
      <trkpt lat="48.2698" lon="2.6241">
        <ele>106</ele>
        <time>2013-02-03T09:45:40Z</time>
      </trkpt>
      <trkpt lat="48.26968" lon="2.62414">
        <ele>105.40000152588</ele>
        <time>2013-02-03T09:45:44Z</time>
      </trkpt>
      <trkpt lat="48.26964" lon="2.62425">
        <ele>105</ele>
        <time>2013-02-03T09:45:48Z</time>
      </trkpt>
      <trkpt lat="48.26966" lon="2.62429">
        <ele>105</ele>
        <time>2013-02-03T09:45:49Z</time>
      </trkpt>
      <trkpt lat="48.26977" lon="2.62445">
        <ele>105.40000152588</ele>
        <time>2013-02-03T09:45:55Z</time>
      </trkpt>
      <trkpt lat="48.26981" lon="2.6245">
        <ele>105.40000152588</ele>
        <time>2013-02-03T09:45:57Z</time>
      </trkpt>
      <trkpt lat="48.26988" lon="2.62469">
        <ele>105.19999694824</ele>
        <time>2013-02-03T09:46:03Z</time>
      </trkpt>
      <trkpt lat="48.26996" lon="2.62473">
        <ele>105.40000152588</ele>
        <time>2013-02-03T09:46:07Z</time>
      </trkpt>
      <trkpt lat="48.27004" lon="2.62485">
        <ele>105.40000152588</ele>
        <time>2013-02-03T09:46:11Z</time>
      </trkpt>
      <trkpt lat="48.27009" lon="2.62494">
        <ele>105.40000152588</ele>
        <time>2013-02-03T09:46:13Z</time>
      </trkpt>
      <trkpt lat="48.27013" lon="2.62502">
        <ele>105.40000152588</ele>
        <time>2013-02-03T09:46:15Z</time>
      </trkpt>
      <trkpt lat="48.27016" lon="2.62518">
        <ele>105.19999694824</ele>
        <time>2013-02-03T09:46:20Z</time>
      </trkpt>
      <trkpt lat="48.27013" lon="2.62531">
        <ele>105</ele>
        <time>2013-02-03T09:46:25Z</time>
      </trkpt>
      <trkpt lat="48.27015" lon="2.62542">
        <ele>105</ele>
        <time>2013-02-03T09:46:29Z</time>
      </trkpt>
      <trkpt lat="48.27021" lon="2.62555">
        <ele>105</ele>
        <time>2013-02-03T09:46:33Z</time>
      </trkpt>
      <trkpt lat="48.27025" lon="2.6256">
        <ele>105</ele>
        <time>2013-02-03T09:46:35Z</time>
      </trkpt>
      <trkpt lat="48.27036" lon="2.62558">
        <ele>105.59999847412</ele>
        <time>2013-02-03T09:46:40Z</time>
      </trkpt>
      <trkpt lat="48.27039" lon="2.62555">
        <ele>105.59999847412</ele>
        <time>2013-02-03T09:46:42Z</time>
      </trkpt>
      <trkpt lat="48.27043" lon="2.62552">
        <ele>105.80000305176</ele>
        <time>2013-02-03T09:46:46Z</time>
      </trkpt>
      <trkpt lat="48.27044" lon="2.62547">
        <ele>106</ele>
        <time>2013-02-03T09:46:48Z</time>
      </trkpt>
      <trkpt lat="48.27041" lon="2.62541">
        <ele>105.80000305176</ele>
        <time>2013-02-03T09:46:52Z</time>
      </trkpt>
      <trkpt lat="48.27038" lon="2.62539">
        <ele>105.80000305176</ele>
        <time>2013-02-03T09:46:54Z</time>
      </trkpt>
      <trkpt lat="48.27037" lon="2.62537">
        <ele>105.80000305176</ele>
        <time>2013-02-03T09:46:56Z</time>
      </trkpt>
      <trkpt lat="48.27033" lon="2.62531">
        <ele>105.80000305176</ele>
        <time>2013-02-03T09:47:01Z</time>
      </trkpt>
      <trkpt lat="48.27038" lon="2.62521">
        <ele>106</ele>
        <time>2013-02-03T09:47:06Z</time>
      </trkpt>
      <trkpt lat="48.27043" lon="2.62517">
        <ele>106.19999694824</ele>
        <time>2013-02-03T09:47:11Z</time>
      </trkpt>
      <trkpt lat="48.27044" lon="2.62512">
        <ele>106.40000152588</ele>
        <time>2013-02-03T09:47:14Z</time>
      </trkpt>
      <trkpt lat="48.27044" lon="2.62506">
        <ele>106.40000152588</ele>
        <time>2013-02-03T09:47:19Z</time>
      </trkpt>
      <trkpt lat="48.27041" lon="2.62503">
        <ele>106.40000152588</ele>
        <time>2013-02-03T09:47:22Z</time>
      </trkpt>
      <trkpt lat="48.27038" lon="2.62499">
        <ele>106.19999694824</ele>
        <time>2013-02-03T09:47:27Z</time>
      </trkpt>
      <trkpt lat="48.27038" lon="2.62497">
        <ele>106.40000152588</ele>
        <time>2013-02-03T09:47:29Z</time>
      </trkpt>
      <trkpt lat="48.27036" lon="2.62487">
        <ele>106.40000152588</ele>
        <time>2013-02-03T09:47:34Z</time>
      </trkpt>
      <trkpt lat="48.27034" lon="2.6248">
        <ele>106.40000152588</ele>
        <time>2013-02-03T09:47:38Z</time>
      </trkpt>
      <trkpt lat="48.27028" lon="2.62471">
        <ele>106.40000152588</ele>
        <time>2013-02-03T09:47:42Z</time>
      </trkpt>
      <trkpt lat="48.27021" lon="2.62457">
        <ele>106.40000152588</ele>
        <time>2013-02-03T09:47:47Z</time>
      </trkpt>
      <trkpt lat="48.27018" lon="2.62449">
        <ele>106.59999847412</ele>
        <time>2013-02-03T09:47:49Z</time>
      </trkpt>
      <trkpt lat="48.27012" lon="2.62432">
        <ele>106.80000305176</ele>
        <time>2013-02-03T09:47:54Z</time>
      </trkpt>
      <trkpt lat="48.2701" lon="2.62427">
        <ele>106.80000305176</ele>
        <time>2013-02-03T09:47:56Z</time>
      </trkpt>
      <trkpt lat="48.27012" lon="2.62416">
        <ele>107</ele>
        <time>2013-02-03T09:48:01Z</time>
      </trkpt>
      <trkpt lat="48.27013" lon="2.62401">
        <ele>107</ele>
        <time>2013-02-03T09:48:06Z</time>
      </trkpt>
      <trkpt lat="48.27013" lon="2.62399">
        <ele>107</ele>
        <time>2013-02-03T09:48:07Z</time>
      </trkpt>
      <trkpt lat="48.27015" lon="2.62396">
        <ele>107</ele>
        <time>2013-02-03T09:48:14Z</time>
      </trkpt>
      <trkpt lat="48.27018" lon="2.62398">
        <ele>107</ele>
        <time>2013-02-03T09:48:19Z</time>
      </trkpt>
      <trkpt lat="48.27023" lon="2.62403">
        <ele>107.19999694824</ele>
        <time>2013-02-03T09:48:22Z</time>
      </trkpt>
      <trkpt lat="48.27029" lon="2.624">
        <ele>107.19999694824</ele>
        <time>2013-02-03T09:48:27Z</time>
      </trkpt>
      <trkpt lat="48.2703" lon="2.62398">
        <ele>107.19999694824</ele>
        <time>2013-02-03T09:48:28Z</time>
      </trkpt>
      <trkpt lat="48.27035" lon="2.62391">
        <ele>107.19999694824</ele>
        <time>2013-02-03T09:48:34Z</time>
      </trkpt>
      <trkpt lat="48.27038" lon="2.6239">
        <ele>107.19999694824</ele>
        <time>2013-02-03T09:48:37Z</time>
      </trkpt>
      <trkpt lat="48.27043" lon="2.62389">
        <ele>107.19999694824</ele>
        <time>2013-02-03T09:48:42Z</time>
      </trkpt>
      <trkpt lat="48.27047" lon="2.62397">
        <ele>107.40000152588</ele>
        <time>2013-02-03T09:48:47Z</time>
      </trkpt>
      <trkpt lat="48.2705" lon="2.62402">
        <ele>107.40000152588</ele>
        <time>2013-02-03T09:48:51Z</time>
      </trkpt>
      <trkpt lat="48.27055" lon="2.62405">
        <ele>107.40000152588</ele>
        <time>2013-02-03T09:48:55Z</time>
      </trkpt>
      <trkpt lat="48.27057" lon="2.62407">
        <ele>107.59999847412</ele>
        <time>2013-02-03T09:48:58Z</time>
      </trkpt>
      <trkpt lat="48.27061" lon="2.62418">
        <ele>107.59999847412</ele>
        <time>2013-02-03T09:49:04Z</time>
      </trkpt>
      <trkpt lat="48.27064" lon="2.62425">
        <ele>107.59999847412</ele>
        <time>2013-02-03T09:49:09Z</time>
      </trkpt>
      <trkpt lat="48.27065" lon="2.62428">
        <ele>107.59999847412</ele>
        <time>2013-02-03T09:49:10Z</time>
      </trkpt>
      <trkpt lat="48.27066" lon="2.6244">
        <ele>107.59999847412</ele>
        <time>2013-02-03T09:49:15Z</time>
      </trkpt>
      <trkpt lat="48.27054" lon="2.62438">
        <ele>107.40000152588</ele>
        <time>2013-02-03T09:49:20Z</time>
      </trkpt>
      <trkpt lat="48.27049" lon="2.62446">
        <ele>107.19999694824</ele>
        <time>2013-02-03T09:49:24Z</time>
      </trkpt>
      <trkpt lat="48.27046" lon="2.6245">
        <ele>107</ele>
        <time>2013-02-03T09:49:28Z</time>
      </trkpt>
      <trkpt lat="48.27048" lon="2.62466">
        <ele>107</ele>
        <time>2013-02-03T09:49:33Z</time>
      </trkpt>
      <trkpt lat="48.27049" lon="2.6248">
        <ele>106.80000305176</ele>
        <time>2013-02-03T09:49:37Z</time>
      </trkpt>
      <trkpt lat="48.2705" lon="2.62486">
        <ele>106.80000305176</ele>
        <time>2013-02-03T09:49:41Z</time>
      </trkpt>
      <trkpt lat="48.27052" lon="2.6249">
        <ele>106.80000305176</ele>
        <time>2013-02-03T09:49:45Z</time>
      </trkpt>
      <trkpt lat="48.2706" lon="2.62494">
        <ele>107</ele>
        <time>2013-02-03T09:49:51Z</time>
      </trkpt>
      <trkpt lat="48.27062" lon="2.62496">
        <ele>107.19999694824</ele>
        <time>2013-02-03T09:49:52Z</time>
      </trkpt>
      <trkpt lat="48.27069" lon="2.62507">
        <ele>107.40000152588</ele>
        <time>2013-02-03T09:49:56Z</time>
      </trkpt>
      <trkpt lat="48.27067" lon="2.62518">
        <ele>107</ele>
        <time>2013-02-03T09:50:01Z</time>
      </trkpt>
      <trkpt lat="48.27064" lon="2.62531">
        <ele>106.80000305176</ele>
        <time>2013-02-03T09:50:06Z</time>
      </trkpt>
      <trkpt lat="48.27061" lon="2.62544">
        <ele>106.59999847412</ele>
        <time>2013-02-03T09:50:11Z</time>
      </trkpt>
      <trkpt lat="48.27053" lon="2.62559">
        <ele>106.19999694824</ele>
        <time>2013-02-03T09:50:17Z</time>
      </trkpt>
      <trkpt lat="48.27045" lon="2.62562">
        <ele>105.80000305176</ele>
        <time>2013-02-03T09:50:21Z</time>
      </trkpt>
      <trkpt lat="48.27037" lon="2.62566">
        <ele>105.40000152588</ele>
        <time>2013-02-03T09:50:25Z</time>
      </trkpt>
      <trkpt lat="48.27028" lon="2.62575">
        <ele>105</ele>
        <time>2013-02-03T09:50:29Z</time>
      </trkpt>
      <trkpt lat="48.27018" lon="2.62578">
        <ele>104.59999847412</ele>
        <time>2013-02-03T09:50:34Z</time>
      </trkpt>
      <trkpt lat="48.27008" lon="2.62578">
        <ele>104.19999694824</ele>
        <time>2013-02-03T09:50:38Z</time>
      </trkpt>
      <trkpt lat="48.26999" lon="2.62593">
        <ele>103.40000152588</ele>
        <time>2013-02-03T09:50:44Z</time>
      </trkpt>
      <trkpt lat="48.26991" lon="2.62606">
        <ele>102.59999847412</ele>
        <time>2013-02-03T09:50:49Z</time>
      </trkpt>
      <trkpt lat="48.26986" lon="2.62621">
        <ele>101.59999847412</ele>
        <time>2013-02-03T09:50:53Z</time>
      </trkpt>
      <trkpt lat="48.26994" lon="2.62632">
        <ele>101.40000152588</ele>
        <time>2013-02-03T09:50:57Z</time>
      </trkpt>
      <trkpt lat="48.27002" lon="2.62642">
        <ele>101.19999694824</ele>
        <time>2013-02-03T09:51:00Z</time>
      </trkpt>
      <trkpt lat="48.27009" lon="2.62647">
        <ele>101.19999694824</ele>
        <time>2013-02-03T09:51:03Z</time>
      </trkpt>
      <trkpt lat="48.27016" lon="2.62656">
        <ele>101.19999694824</ele>
        <time>2013-02-03T09:51:07Z</time>
      </trkpt>
      <trkpt lat="48.27031" lon="2.62663">
        <ele>101.59999847412</ele>
        <time>2013-02-03T09:51:13Z</time>
      </trkpt>
      <trkpt lat="48.27036" lon="2.62667">
        <ele>101.59999847412</ele>
        <time>2013-02-03T09:51:15Z</time>
      </trkpt>
      <trkpt lat="48.27045" lon="2.62673">
        <ele>101.40000152588</ele>
        <time>2013-02-03T09:51:18Z</time>
      </trkpt>
      <trkpt lat="48.27059" lon="2.62674">
        <ele>101.80000305176</ele>
        <time>2013-02-03T09:51:23Z</time>
      </trkpt>
      <trkpt lat="48.2707" lon="2.62672">
        <ele>102.59999847412</ele>
        <time>2013-02-03T09:51:28Z</time>
      </trkpt>
      <trkpt lat="48.27078" lon="2.62663">
        <ele>103.80000305176</ele>
        <time>2013-02-03T09:51:32Z</time>
      </trkpt>
      <trkpt lat="48.27085" lon="2.6266">
        <ele>103.80000305176</ele>
        <time>2013-02-03T09:51:36Z</time>
      </trkpt>
      <trkpt lat="48.27087" lon="2.62662">
        <ele>103.40000152588</ele>
        <time>2013-02-03T09:51:37Z</time>
      </trkpt>
      <trkpt lat="48.27099" lon="2.62664">
        <ele>101</ele>
        <time>2013-02-03T09:51:42Z</time>
      </trkpt>
      <trkpt lat="48.27104" lon="2.62664">
        <ele>100</ele>
        <time>2013-02-03T09:51:45Z</time>
      </trkpt>
      <trkpt lat="48.27115" lon="2.62672">
        <ele>97.199996948242</ele>
        <time>2013-02-03T09:51:50Z</time>
      </trkpt>
      <trkpt lat="48.27117" lon="2.62674">
        <ele>96.800003051758</ele>
        <time>2013-02-03T09:51:51Z</time>
      </trkpt>
      <trkpt lat="48.27125" lon="2.62669">
        <ele>95.800003051758</ele>
        <time>2013-02-03T09:51:56Z</time>
      </trkpt>
      <trkpt lat="48.27126" lon="2.62658">
        <ele>95.800003051758</ele>
        <time>2013-02-03T09:51:58Z</time>
      </trkpt>
      <trkpt lat="48.27127" lon="2.62644">
        <ele>96</ele>
        <time>2013-02-03T09:52:01Z</time>
      </trkpt>
      <trkpt lat="48.27127" lon="2.62617">
        <ele>96.800003051758</ele>
        <time>2013-02-03T09:52:08Z</time>
      </trkpt>
      <trkpt lat="48.27125" lon="2.62594">
        <ele>97.599998474121</ele>
        <time>2013-02-03T09:52:13Z</time>
      </trkpt>
      <trkpt lat="48.27125" lon="2.62577">
        <ele>97.800003051758</ele>
        <time>2013-02-03T09:52:17Z</time>
      </trkpt>
      <trkpt lat="48.27123" lon="2.62548">
        <ele>98.400001525879</ele>
        <time>2013-02-03T09:52:23Z</time>
      </trkpt>
      <trkpt lat="48.27123" lon="2.62539">
        <ele>98.400001525879</ele>
        <time>2013-02-03T09:52:25Z</time>
      </trkpt>
      <trkpt lat="48.27121" lon="2.62507">
        <ele>98.800003051758</ele>
        <time>2013-02-03T09:52:31Z</time>
      </trkpt>
      <trkpt lat="48.27119" lon="2.62481">
        <ele>99.599998474121</ele>
        <time>2013-02-03T09:52:36Z</time>
      </trkpt>
      <trkpt lat="48.27118" lon="2.6246">
        <ele>100</ele>
        <time>2013-02-03T09:52:40Z</time>
      </trkpt>
      <trkpt lat="48.27116" lon="2.62441">
        <ele>100.59999847412</ele>
        <time>2013-02-03T09:52:44Z</time>
      </trkpt>
      <trkpt lat="48.27114" lon="2.62419">
        <ele>101.19999694824</ele>
        <time>2013-02-03T09:52:48Z</time>
      </trkpt>
      <trkpt lat="48.27112" lon="2.62392">
        <ele>102</ele>
        <time>2013-02-03T09:52:53Z</time>
      </trkpt>
      <trkpt lat="48.27109" lon="2.62373">
        <ele>102.80000305176</ele>
        <time>2013-02-03T09:52:57Z</time>
      </trkpt>
      <trkpt lat="48.27106" lon="2.62352">
        <ele>103.40000152588</ele>
        <time>2013-02-03T09:53:01Z</time>
      </trkpt>
      <trkpt lat="48.27105" lon="2.62349">
        <ele>103.80000305176</ele>
        <time>2013-02-03T09:53:02Z</time>
      </trkpt>
      <trkpt lat="48.27101" lon="2.62326">
        <ele>104.40000152588</ele>
        <time>2013-02-03T09:53:08Z</time>
      </trkpt>
      <trkpt lat="48.27108" lon="2.62313">
        <ele>103.59999847412</ele>
        <time>2013-02-03T09:53:12Z</time>
      </trkpt>
      <trkpt lat="48.27122" lon="2.62314">
        <ele>101.59999847412</ele>
        <time>2013-02-03T09:53:17Z</time>
      </trkpt>
      <trkpt lat="48.27134" lon="2.62318">
        <ele>100</ele>
        <time>2013-02-03T09:53:21Z</time>
      </trkpt>
      <trkpt lat="48.27137" lon="2.62319">
        <ele>99.599998474121</ele>
        <time>2013-02-03T09:53:22Z</time>
      </trkpt>
      <trkpt lat="48.27154" lon="2.62333">
        <ele>96.800003051758</ele>
        <time>2013-02-03T09:53:27Z</time>
      </trkpt>
      <trkpt lat="48.27159" lon="2.62345">
        <ele>95.400001525879</ele>
        <time>2013-02-03T09:53:30Z</time>
      </trkpt>
      <trkpt lat="48.27162" lon="2.62375">
        <ele>93.199996948242</ele>
        <time>2013-02-03T09:53:35Z</time>
      </trkpt>
      <trkpt lat="48.27165" lon="2.62406">
        <ele>90.800003051758</ele>
        <time>2013-02-03T09:53:40Z</time>
      </trkpt>
      <trkpt lat="48.27165" lon="2.62422">
        <ele>90.199996948242</ele>
        <time>2013-02-03T09:53:42Z</time>
      </trkpt>
      <trkpt lat="48.27164" lon="2.62449">
        <ele>89.599998474121</ele>
        <time>2013-02-03T09:53:46Z</time>
      </trkpt>
      <trkpt lat="48.27167" lon="2.62479">
        <ele>88.400001525879</ele>
        <time>2013-02-03T09:53:52Z</time>
      </trkpt>
      <trkpt lat="48.27168" lon="2.62489">
        <ele>88</ele>
        <time>2013-02-03T09:53:56Z</time>
      </trkpt>
      <trkpt lat="48.27171" lon="2.62511">
        <ele>87.800003051758</ele>
        <time>2013-02-03T09:54:01Z</time>
      </trkpt>
      <trkpt lat="48.27168" lon="2.62542">
        <ele>88.400001525879</ele>
        <time>2013-02-03T09:54:06Z</time>
      </trkpt>
      <trkpt lat="48.27162" lon="2.62563">
        <ele>89.599998474121</ele>
        <time>2013-02-03T09:54:10Z</time>
      </trkpt>
      <trkpt lat="48.27165" lon="2.62585">
        <ele>89.199996948242</ele>
        <time>2013-02-03T09:54:14Z</time>
      </trkpt>
      <trkpt lat="48.27171" lon="2.62595">
        <ele>88.400001525879</ele>
        <time>2013-02-03T09:54:20Z</time>
      </trkpt>
      <trkpt lat="48.27174" lon="2.62608">
        <ele>88</ele>
        <time>2013-02-03T09:54:24Z</time>
      </trkpt>
      <trkpt lat="48.27176" lon="2.62634">
        <ele>87.599998474121</ele>
        <time>2013-02-03T09:54:30Z</time>
      </trkpt>
      <trkpt lat="48.27178" lon="2.62655">
        <ele>87.199996948242</ele>
        <time>2013-02-03T09:54:35Z</time>
      </trkpt>
      <trkpt lat="48.27178" lon="2.62681">
        <ele>86.599998474121</ele>
        <time>2013-02-03T09:54:40Z</time>
      </trkpt>
      <trkpt lat="48.27175" lon="2.62702">
        <ele>86.400001525879</ele>
        <time>2013-02-03T09:54:45Z</time>
      </trkpt>
      <trkpt lat="48.27171" lon="2.62726">
        <ele>86.199996948242</ele>
        <time>2013-02-03T09:54:49Z</time>
      </trkpt>
      <trkpt lat="48.27162" lon="2.6274">
        <ele>86.599998474121</ele>
        <time>2013-02-03T09:54:53Z</time>
      </trkpt>
      <trkpt lat="48.2716" lon="2.62747">
        <ele>86.599998474121</ele>
        <time>2013-02-03T09:54:57Z</time>
      </trkpt>
      <trkpt lat="48.27161" lon="2.62749">
        <ele>86.400001525879</ele>
        <time>2013-02-03T09:55:02Z</time>
      </trkpt>
      <trkpt lat="48.27154" lon="2.62748">
        <ele>87</ele>
        <time>2013-02-03T09:55:08Z</time>
      </trkpt>
      <trkpt lat="48.27146" lon="2.62749">
        <ele>87.599998474121</ele>
        <time>2013-02-03T09:55:12Z</time>
      </trkpt>
      <trkpt lat="48.27143" lon="2.62752">
        <ele>87.800003051758</ele>
        <time>2013-02-03T09:55:15Z</time>
      </trkpt>
      <trkpt lat="48.27138" lon="2.62753">
        <ele>88.199996948242</ele>
        <time>2013-02-03T09:55:18Z</time>
      </trkpt>
      <trkpt lat="48.27126" lon="2.62753">
        <ele>89</ele>
        <time>2013-02-03T09:55:25Z</time>
      </trkpt>
      <trkpt lat="48.27119" lon="2.62757">
        <ele>89.400001525879</ele>
        <time>2013-02-03T09:55:29Z</time>
      </trkpt>
      <trkpt lat="48.27114" lon="2.62759">
        <ele>89.800003051758</ele>
        <time>2013-02-03T09:55:32Z</time>
      </trkpt>
      <trkpt lat="48.27113" lon="2.62756">
        <ele>90</ele>
        <time>2013-02-03T09:55:39Z</time>
      </trkpt>
      <trkpt lat="48.27108" lon="2.62755">
        <ele>90.400001525879</ele>
        <time>2013-02-03T09:55:44Z</time>
      </trkpt>
      <trkpt lat="48.27103" lon="2.62754">
        <ele>90.800003051758</ele>
        <time>2013-02-03T09:55:48Z</time>
      </trkpt>
      <trkpt lat="48.27097" lon="2.62752">
        <ele>91.599998474121</ele>
        <time>2013-02-03T09:55:53Z</time>
      </trkpt>
      <trkpt lat="48.27097" lon="2.62752">
        <ele>91.599998474121</ele>
        <time>2013-02-03T09:55:54Z</time>
      </trkpt>
      <trkpt lat="48.27096" lon="2.62753">
        <ele>91.599998474121</ele>
        <time>2013-02-03T09:55:57Z</time>
      </trkpt>
      <trkpt lat="48.27091" lon="2.62758">
        <ele>91.599998474121</ele>
        <time>2013-02-03T09:56:04Z</time>
      </trkpt>
      <trkpt lat="48.27087" lon="2.62747">
        <ele>93</ele>
        <time>2013-02-03T09:56:14Z</time>
      </trkpt>
      <trkpt lat="48.27076" lon="2.62746">
        <ele>93.400001525879</ele>
        <time>2013-02-03T09:56:20Z</time>
      </trkpt>
      <trkpt lat="48.27073" lon="2.62745">
        <ele>93.400001525879</ele>
        <time>2013-02-03T09:56:23Z</time>
      </trkpt>
      <trkpt lat="48.27065" lon="2.62746">
        <ele>93.400001525879</ele>
        <time>2013-02-03T09:56:28Z</time>
      </trkpt>
      <trkpt lat="48.27056" lon="2.62736">
        <ele>94.599998474121</ele>
        <time>2013-02-03T09:56:35Z</time>
      </trkpt>
      <trkpt lat="48.27055" lon="2.62733">
        <ele>94.800003051758</ele>
        <time>2013-02-03T09:56:39Z</time>
      </trkpt>
      <trkpt lat="48.27059" lon="2.62737">
        <ele>94.400001525879</ele>
        <time>2013-02-03T09:56:45Z</time>
      </trkpt>
      <trkpt lat="48.27063" lon="2.62741">
        <ele>94</ele>
        <time>2013-02-03T09:56:52Z</time>
      </trkpt>
      <trkpt lat="48.27069" lon="2.62743">
        <ele>93.800003051758</ele>
        <time>2013-02-03T09:56:57Z</time>
      </trkpt>
      <trkpt lat="48.27073" lon="2.62747">
        <ele>93.400001525879</ele>
        <time>2013-02-03T09:57:00Z</time>
      </trkpt>
      <trkpt lat="48.27079" lon="2.62746">
        <ele>93.400001525879</ele>
        <time>2013-02-03T09:57:05Z</time>
      </trkpt>
      <trkpt lat="48.27087" lon="2.62743">
        <ele>93.400001525879</ele>
        <time>2013-02-03T09:57:13Z</time>
      </trkpt>
      <trkpt lat="48.27088" lon="2.62744">
        <ele>93.199996948242</ele>
        <time>2013-02-03T09:57:14Z</time>
      </trkpt>
      <trkpt lat="48.27092" lon="2.62741">
        <ele>93.400001525879</ele>
        <time>2013-02-03T09:57:18Z</time>
      </trkpt>
      <trkpt lat="48.27098" lon="2.62739">
        <ele>92.800003051758</ele>
        <time>2013-02-03T09:57:22Z</time>
      </trkpt>
      <trkpt lat="48.27111" lon="2.62736">
        <ele>92</ele>
        <time>2013-02-03T09:57:29Z</time>
      </trkpt>
      <trkpt lat="48.2712" lon="2.62731">
        <ele>91.400001525879</ele>
        <time>2013-02-03T09:57:35Z</time>
      </trkpt>
      <trkpt lat="48.27126" lon="2.62727">
        <ele>91</ele>
        <time>2013-02-03T09:57:40Z</time>
      </trkpt>
      <trkpt lat="48.27129" lon="2.62716">
        <ele>91.599998474121</ele>
        <time>2013-02-03T09:57:46Z</time>
      </trkpt>
      <trkpt lat="48.27129" lon="2.62713">
        <ele>91.800003051758</ele>
        <time>2013-02-03T09:57:48Z</time>
      </trkpt>
      <trkpt lat="48.27129" lon="2.62707">
        <ele>92.199996948242</ele>
        <time>2013-02-03T09:57:53Z</time>
      </trkpt>
      <trkpt lat="48.27126" lon="2.627">
        <ele>93.199996948242</ele>
        <time>2013-02-03T09:57:58Z</time>
      </trkpt>
      <trkpt lat="48.27125" lon="2.62699">
        <ele>93.400001525879</ele>
        <time>2013-02-03T09:57:59Z</time>
      </trkpt>
      <trkpt lat="48.27117" lon="2.62697">
        <ele>94.800003051758</ele>
        <time>2013-02-03T09:58:05Z</time>
      </trkpt>
      <trkpt lat="48.27111" lon="2.62704">
        <ele>95</ele>
        <time>2013-02-03T09:58:10Z</time>
      </trkpt>
      <trkpt lat="48.27101" lon="2.62704">
        <ele>96.400001525879</ele>
        <time>2013-02-03T09:58:15Z</time>
      </trkpt>
      <trkpt lat="48.27088" lon="2.62698">
        <ele>99.199996948242</ele>
        <time>2013-02-03T09:58:21Z</time>
      </trkpt>
      <trkpt lat="48.27085" lon="2.62696">
        <ele>99.599998474121</ele>
        <time>2013-02-03T09:58:22Z</time>
      </trkpt>
      <trkpt lat="48.27071" lon="2.62695">
        <ele>99.800003051758</ele>
        <time>2013-02-03T09:58:28Z</time>
      </trkpt>
      <trkpt lat="48.27058" lon="2.6269">
        <ele>100</ele>
        <time>2013-02-03T09:58:34Z</time>
      </trkpt>
      <trkpt lat="48.27048" lon="2.62689">
        <ele>99.599998474121</ele>
        <time>2013-02-03T09:58:38Z</time>
      </trkpt>
      <trkpt lat="48.27033" lon="2.62683">
        <ele>99.800003051758</ele>
        <time>2013-02-03T09:58:43Z</time>
      </trkpt>
      <trkpt lat="48.27022" lon="2.62683">
        <ele>99.400001525879</ele>
        <time>2013-02-03T09:58:47Z</time>
      </trkpt>
      <trkpt lat="48.27019" lon="2.62686">
        <ele>99</ele>
        <time>2013-02-03T09:58:48Z</time>
      </trkpt>
      <trkpt lat="48.27006" lon="2.62688">
        <ele>98.400001525879</ele>
        <time>2013-02-03T09:58:53Z</time>
      </trkpt>
      <trkpt lat="48.26998" lon="2.62698">
        <ele>97.199996948242</ele>
        <time>2013-02-03T09:58:57Z</time>
      </trkpt>
      <trkpt lat="48.26991" lon="2.62695">
        <ele>97.400001525879</ele>
        <time>2013-02-03T09:59:01Z</time>
      </trkpt>
      <trkpt lat="48.26987" lon="2.62685">
        <ele>98.199996948242</ele>
        <time>2013-02-03T09:59:06Z</time>
      </trkpt>
      <trkpt lat="48.26986" lon="2.62682">
        <ele>98.400001525879</ele>
        <time>2013-02-03T09:59:07Z</time>
      </trkpt>
      <trkpt lat="48.26976" lon="2.62664">
        <ele>99.400001525879</ele>
        <time>2013-02-03T09:59:14Z</time>
      </trkpt>
      <trkpt lat="48.26968" lon="2.62646">
        <ele>100</ele>
        <time>2013-02-03T09:59:20Z</time>
      </trkpt>
      <trkpt lat="48.26966" lon="2.62642">
        <ele>100.19999694824</ele>
        <time>2013-02-03T09:59:22Z</time>
      </trkpt>
      <trkpt lat="48.2696" lon="2.6263">
        <ele>100.59999847412</ele>
        <time>2013-02-03T09:59:27Z</time>
      </trkpt>
      <trkpt lat="48.2696" lon="2.62619">
        <ele>101</ele>
        <time>2013-02-03T09:59:31Z</time>
      </trkpt>
      <trkpt lat="48.26962" lon="2.62613">
        <ele>101.19999694824</ele>
        <time>2013-02-03T09:59:34Z</time>
      </trkpt>
      <trkpt lat="48.2696" lon="2.626">
        <ele>101.80000305176</ele>
        <time>2013-02-03T09:59:39Z</time>
      </trkpt>
      <trkpt lat="48.26951" lon="2.62592">
        <ele>101.80000305176</ele>
        <time>2013-02-03T09:59:43Z</time>
      </trkpt>
      <trkpt lat="48.26953" lon="2.62581">
        <ele>102.19999694824</ele>
        <time>2013-02-03T09:59:47Z</time>
      </trkpt>
      <trkpt lat="48.26952" lon="2.62571">
        <ele>102.40000152588</ele>
        <time>2013-02-03T09:59:50Z</time>
      </trkpt>
      <trkpt lat="48.26952" lon="2.62568">
        <ele>102.40000152588</ele>
        <time>2013-02-03T09:59:51Z</time>
      </trkpt>
      <trkpt lat="48.26953" lon="2.62561">
        <ele>102.59999847412</ele>
        <time>2013-02-03T09:59:53Z</time>
      </trkpt>
      <trkpt lat="48.26957" lon="2.62551">
        <ele>103</ele>
        <time>2013-02-03T09:59:57Z</time>
      </trkpt>
      <trkpt lat="48.26957" lon="2.62534">
        <ele>103.19999694824</ele>
        <time>2013-02-03T10:00:02Z</time>
      </trkpt>
      <trkpt lat="48.26965" lon="2.62521">
        <ele>103.59999847412</ele>
        <time>2013-02-03T10:00:07Z</time>
      </trkpt>
      <trkpt lat="48.26966" lon="2.62502">
        <ele>104</ele>
        <time>2013-02-03T10:00:12Z</time>
      </trkpt>
      <trkpt lat="48.26957" lon="2.62494">
        <ele>104</ele>
        <time>2013-02-03T10:00:15Z</time>
      </trkpt>
      <trkpt lat="48.26952" lon="2.62487">
        <ele>103.80000305176</ele>
        <time>2013-02-03T10:00:18Z</time>
      </trkpt>
      <trkpt lat="48.26951" lon="2.6248">
        <ele>104</ele>
        <time>2013-02-03T10:00:20Z</time>
      </trkpt>
      <trkpt lat="48.2694" lon="2.62457">
        <ele>103.80000305176</ele>
        <time>2013-02-03T10:00:25Z</time>
      </trkpt>
      <trkpt lat="48.26925" lon="2.62446">
        <ele>103.19999694824</ele>
        <time>2013-02-03T10:00:29Z</time>
      </trkpt>
      <trkpt lat="48.26916" lon="2.6244">
        <ele>102.80000305176</ele>
        <time>2013-02-03T10:00:33Z</time>
      </trkpt>
      <trkpt lat="48.26905" lon="2.62442">
        <ele>102.80000305176</ele>
        <time>2013-02-03T10:00:37Z</time>
      </trkpt>
      <trkpt lat="48.26898" lon="2.62452">
        <ele>102.80000305176</ele>
        <time>2013-02-03T10:00:43Z</time>
      </trkpt>
      <trkpt lat="48.26893" lon="2.62457">
        <ele>102.80000305176</ele>
        <time>2013-02-03T10:00:46Z</time>
      </trkpt>
      <trkpt lat="48.26895" lon="2.62471">
        <ele>103</ele>
        <time>2013-02-03T10:00:51Z</time>
      </trkpt>
      <trkpt lat="48.26905" lon="2.62486">
        <ele>103</ele>
        <time>2013-02-03T10:00:57Z</time>
      </trkpt>
      <trkpt lat="48.26907" lon="2.62486">
        <ele>103</ele>
        <time>2013-02-03T10:00:58Z</time>
      </trkpt>
      <trkpt lat="48.26915" lon="2.62482">
        <ele>103</ele>
        <time>2013-02-03T10:01:03Z</time>
      </trkpt>
      <trkpt lat="48.26911" lon="2.62492">
        <ele>103</ele>
        <time>2013-02-03T10:01:09Z</time>
      </trkpt>
      <trkpt lat="48.26901" lon="2.62501">
        <ele>103</ele>
        <time>2013-02-03T10:01:14Z</time>
      </trkpt>
      <trkpt lat="48.269" lon="2.62503">
        <ele>103</ele>
        <time>2013-02-03T10:01:15Z</time>
      </trkpt>
      <trkpt lat="48.26902" lon="2.62516">
        <ele>102.80000305176</ele>
        <time>2013-02-03T10:01:20Z</time>
      </trkpt>
      <trkpt lat="48.26905" lon="2.6252">
        <ele>102.59999847412</ele>
        <time>2013-02-03T10:01:24Z</time>
      </trkpt>
      <trkpt lat="48.26904" lon="2.62526">
        <ele>102.40000152588</ele>
        <time>2013-02-03T10:01:27Z</time>
      </trkpt>
      <trkpt lat="48.26904" lon="2.62534">
        <ele>102.19999694824</ele>
        <time>2013-02-03T10:01:30Z</time>
      </trkpt>
      <trkpt lat="48.26908" lon="2.62549">
        <ele>101.80000305176</ele>
        <time>2013-02-03T10:01:35Z</time>
      </trkpt>
      <trkpt lat="48.26911" lon="2.62563">
        <ele>101.59999847412</ele>
        <time>2013-02-03T10:01:39Z</time>
      </trkpt>
      <trkpt lat="48.26914" lon="2.62578">
        <ele>101</ele>
        <time>2013-02-03T10:01:43Z</time>
      </trkpt>
      <trkpt lat="48.26916" lon="2.62581">
        <ele>101</ele>
        <time>2013-02-03T10:01:44Z</time>
      </trkpt>
      <trkpt lat="48.26923" lon="2.62606">
        <ele>100.40000152588</ele>
        <time>2013-02-03T10:01:49Z</time>
      </trkpt>
      <trkpt lat="48.26924" lon="2.6261">
        <ele>100.19999694824</ele>
        <time>2013-02-03T10:01:51Z</time>
      </trkpt>
      <trkpt lat="48.26931" lon="2.6262">
        <ele>100</ele>
        <time>2013-02-03T10:01:56Z</time>
      </trkpt>
      <trkpt lat="48.26932" lon="2.62621">
        <ele>100</ele>
        <time>2013-02-03T10:01:57Z</time>
      </trkpt>
      <trkpt lat="48.2694" lon="2.62643">
        <ele>99.400001525879</ele>
        <time>2013-02-03T10:02:04Z</time>
      </trkpt>
      <trkpt lat="48.26943" lon="2.62651">
        <ele>99.199996948242</ele>
        <time>2013-02-03T10:02:08Z</time>
      </trkpt>
      <trkpt lat="48.26946" lon="2.62656">
        <ele>99</ele>
        <time>2013-02-03T10:02:13Z</time>
      </trkpt>
      <trkpt lat="48.26947" lon="2.62669">
        <ele>98.599998474121</ele>
        <time>2013-02-03T10:02:17Z</time>
      </trkpt>
      <trkpt lat="48.26949" lon="2.6268">
        <ele>98</ele>
        <time>2013-02-03T10:02:23Z</time>
      </trkpt>
      <trkpt lat="48.26954" lon="2.62696">
        <ele>97</ele>
        <time>2013-02-03T10:02:27Z</time>
      </trkpt>
      <trkpt lat="48.26963" lon="2.62714">
        <ele>96</ele>
        <time>2013-02-03T10:02:33Z</time>
      </trkpt>
      <trkpt lat="48.26972" lon="2.62731">
        <ele>94.800003051758</ele>
        <time>2013-02-03T10:02:37Z</time>
      </trkpt>
      <trkpt lat="48.26983" lon="2.6275">
        <ele>93.400001525879</ele>
        <time>2013-02-03T10:02:41Z</time>
      </trkpt>
      <trkpt lat="48.26993" lon="2.62765">
        <ele>92.400001525879</ele>
        <time>2013-02-03T10:02:46Z</time>
      </trkpt>
      <trkpt lat="48.27011" lon="2.62773">
        <ele>91.599998474121</ele>
        <time>2013-02-03T10:02:51Z</time>
      </trkpt>
      <trkpt lat="48.27027" lon="2.62783">
        <ele>90.800003051758</ele>
        <time>2013-02-03T10:02:56Z</time>
      </trkpt>
      <trkpt lat="48.27033" lon="2.62792">
        <ele>90</ele>
        <time>2013-02-03T10:02:59Z</time>
      </trkpt>
      <trkpt lat="48.27048" lon="2.62803">
        <ele>88.800003051758</ele>
        <time>2013-02-03T10:03:04Z</time>
      </trkpt>
      <trkpt lat="48.27051" lon="2.62806">
        <ele>88.599998474121</ele>
        <time>2013-02-03T10:03:05Z</time>
      </trkpt>
      <trkpt lat="48.27065" lon="2.62806">
        <ele>88.199996948242</ele>
        <time>2013-02-03T10:03:10Z</time>
      </trkpt>
      <trkpt lat="48.27069" lon="2.62803">
        <ele>88.199996948242</ele>
        <time>2013-02-03T10:03:12Z</time>
      </trkpt>
      <trkpt lat="48.27082" lon="2.62798">
        <ele>88.400001525879</ele>
        <time>2013-02-03T10:03:17Z</time>
      </trkpt>
      <trkpt lat="48.2709" lon="2.62798">
        <ele>88</ele>
        <time>2013-02-03T10:03:20Z</time>
      </trkpt>
      <trkpt lat="48.27099" lon="2.62798">
        <ele>87.599998474121</ele>
        <time>2013-02-03T10:03:24Z</time>
      </trkpt>
      <trkpt lat="48.27105" lon="2.6281">
        <ele>86.199996948242</ele>
        <time>2013-02-03T10:03:29Z</time>
      </trkpt>
      <trkpt lat="48.27107" lon="2.62812">
        <ele>86</ele>
        <time>2013-02-03T10:03:33Z</time>
      </trkpt>
      <trkpt lat="48.27104" lon="2.62805">
        <ele>86.800003051758</ele>
        <time>2013-02-03T10:03:42Z</time>
      </trkpt>
      <trkpt lat="48.27093" lon="2.62805">
        <ele>87.199996948242</ele>
        <time>2013-02-03T10:03:48Z</time>
      </trkpt>
      <trkpt lat="48.2709" lon="2.62806">
        <ele>87.199996948242</ele>
        <time>2013-02-03T10:03:49Z</time>
      </trkpt>
      <trkpt lat="48.27073" lon="2.62812">
        <ele>87.400001525879</ele>
        <time>2013-02-03T10:03:56Z</time>
      </trkpt>
      <trkpt lat="48.27056" lon="2.62812">
        <ele>88</ele>
        <time>2013-02-03T10:04:01Z</time>
      </trkpt>
      <trkpt lat="48.27038" lon="2.62811">
        <ele>88.599998474121</ele>
        <time>2013-02-03T10:04:06Z</time>
      </trkpt>
      <trkpt lat="48.2702" lon="2.62806">
        <ele>89.599998474121</ele>
        <time>2013-02-03T10:04:11Z</time>
      </trkpt>
      <trkpt lat="48.26998" lon="2.62801">
        <ele>90.599998474121</ele>
        <time>2013-02-03T10:04:18Z</time>
      </trkpt>
      <trkpt lat="48.26987" lon="2.62795">
        <ele>91.400001525879</ele>
        <time>2013-02-03T10:04:23Z</time>
      </trkpt>
      <trkpt lat="48.26977" lon="2.62787">
        <ele>92.199996948242</ele>
        <time>2013-02-03T10:04:29Z</time>
      </trkpt>
      <trkpt lat="48.26966" lon="2.62771">
        <ele>93.199996948242</ele>
        <time>2013-02-03T10:04:35Z</time>
      </trkpt>
      <trkpt lat="48.2696" lon="2.62763">
        <ele>93.599998474121</ele>
        <time>2013-02-03T10:04:38Z</time>
      </trkpt>
      <trkpt lat="48.26951" lon="2.62752">
        <ele>94</ele>
        <time>2013-02-03T10:04:43Z</time>
      </trkpt>
      <trkpt lat="48.26947" lon="2.62747">
        <ele>94.400001525879</ele>
        <time>2013-02-03T10:04:45Z</time>
      </trkpt>
      <trkpt lat="48.26937" lon="2.62726">
        <ele>95.599998474121</ele>
        <time>2013-02-03T10:04:51Z</time>
      </trkpt>
      <trkpt lat="48.26926" lon="2.62705">
        <ele>96.599998474121</ele>
        <time>2013-02-03T10:04:57Z</time>
      </trkpt>
      <trkpt lat="48.26916" lon="2.62683">
        <ele>97.400001525879</ele>
        <time>2013-02-03T10:05:04Z</time>
      </trkpt>
      <trkpt lat="48.26905" lon="2.62659">
        <ele>98.599998474121</ele>
        <time>2013-02-03T10:05:11Z</time>
      </trkpt>
      <trkpt lat="48.26896" lon="2.62635">
        <ele>99.800003051758</ele>
        <time>2013-02-03T10:05:19Z</time>
      </trkpt>
      <trkpt lat="48.26892" lon="2.62621">
        <ele>100.19999694824</ele>
        <time>2013-02-03T10:05:24Z</time>
      </trkpt>
      <trkpt lat="48.26886" lon="2.62604">
        <ele>101</ele>
        <time>2013-02-03T10:05:31Z</time>
      </trkpt>
      <trkpt lat="48.26881" lon="2.6259">
        <ele>101.59999847412</ele>
        <time>2013-02-03T10:05:37Z</time>
      </trkpt>
      <trkpt lat="48.26882" lon="2.62575">
        <ele>102</ele>
        <time>2013-02-03T10:05:43Z</time>
      </trkpt>
      <trkpt lat="48.26874" lon="2.62552">
        <ele>102.40000152588</ele>
        <time>2013-02-03T10:05:48Z</time>
      </trkpt>
      <trkpt lat="48.26869" lon="2.62536">
        <ele>102.80000305176</ele>
        <time>2013-02-03T10:05:53Z</time>
      </trkpt>
      <trkpt lat="48.26862" lon="2.62518">
        <ele>103.19999694824</ele>
        <time>2013-02-03T10:05:59Z</time>
      </trkpt>
      <trkpt lat="48.26857" lon="2.62494">
        <ele>103.59999847412</ele>
        <time>2013-02-03T10:06:05Z</time>
      </trkpt>
      <trkpt lat="48.26853" lon="2.62481">
        <ele>103.40000152588</ele>
        <time>2013-02-03T10:06:08Z</time>
      </trkpt>
      <trkpt lat="48.26836" lon="2.62472">
        <ele>103.19999694824</ele>
        <time>2013-02-03T10:06:14Z</time>
      </trkpt>
      <trkpt lat="48.26834" lon="2.62472">
        <ele>103.19999694824</ele>
        <time>2013-02-03T10:06:15Z</time>
      </trkpt>
      <trkpt lat="48.26818" lon="2.62476">
        <ele>103.59999847412</ele>
        <time>2013-02-03T10:06:21Z</time>
      </trkpt>
      <trkpt lat="48.26817" lon="2.62478">
        <ele>103.59999847412</ele>
        <time>2013-02-03T10:06:22Z</time>
      </trkpt>
      <trkpt lat="48.26818" lon="2.62493">
        <ele>104</ele>
        <time>2013-02-03T10:06:27Z</time>
      </trkpt>
      <trkpt lat="48.26812" lon="2.62507">
        <ele>104</ele>
        <time>2013-02-03T10:06:33Z</time>
      </trkpt>
      <trkpt lat="48.26811" lon="2.62511">
        <ele>104</ele>
        <time>2013-02-03T10:06:37Z</time>
      </trkpt>
      <trkpt lat="48.26809" lon="2.62512">
        <ele>104</ele>
        <time>2013-02-03T10:06:42Z</time>
      </trkpt>
      <trkpt lat="48.26811" lon="2.62521">
        <ele>104</ele>
        <time>2013-02-03T10:06:48Z</time>
      </trkpt>
      <trkpt lat="48.26816" lon="2.6254">
        <ele>103.80000305176</ele>
        <time>2013-02-03T10:06:54Z</time>
      </trkpt>
      <trkpt lat="48.26816" lon="2.62543">
        <ele>103.80000305176</ele>
        <time>2013-02-03T10:06:55Z</time>
      </trkpt>
      <trkpt lat="48.26814" lon="2.62555">
        <ele>103.59999847412</ele>
        <time>2013-02-03T10:07:00Z</time>
      </trkpt>
      <trkpt lat="48.26814" lon="2.62562">
        <ele>103.59999847412</ele>
        <time>2013-02-03T10:07:02Z</time>
      </trkpt>
      <trkpt lat="48.26812" lon="2.62573">
        <ele>103.59999847412</ele>
        <time>2013-02-03T10:07:08Z</time>
      </trkpt>
      <trkpt lat="48.26814" lon="2.62583">
        <ele>103.40000152588</ele>
        <time>2013-02-03T10:07:11Z</time>
      </trkpt>
      <trkpt lat="48.26816" lon="2.62595">
        <ele>103.19999694824</ele>
        <time>2013-02-03T10:07:17Z</time>
      </trkpt>
      <trkpt lat="48.26817" lon="2.62605">
        <ele>102.80000305176</ele>
        <time>2013-02-03T10:07:21Z</time>
      </trkpt>
      <trkpt lat="48.26819" lon="2.62623">
        <ele>102.40000152588</ele>
        <time>2013-02-03T10:07:26Z</time>
      </trkpt>
      <trkpt lat="48.2681" lon="2.62632">
        <ele>102.59999847412</ele>
        <time>2013-02-03T10:07:31Z</time>
      </trkpt>
      <trkpt lat="48.26806" lon="2.62636">
        <ele>102.80000305176</ele>
        <time>2013-02-03T10:07:33Z</time>
      </trkpt>
      <trkpt lat="48.26792" lon="2.6266">
        <ele>103</ele>
        <time>2013-02-03T10:07:38Z</time>
      </trkpt>
      <trkpt lat="48.26779" lon="2.62673">
        <ele>103.40000152588</ele>
        <time>2013-02-03T10:07:42Z</time>
      </trkpt>
      <trkpt lat="48.26777" lon="2.62676">
        <ele>103.59999847412</ele>
        <time>2013-02-03T10:07:43Z</time>
      </trkpt>
      <trkpt lat="48.26761" lon="2.62678">
        <ele>104.40000152588</ele>
        <time>2013-02-03T10:07:49Z</time>
      </trkpt>
      <trkpt lat="48.26761" lon="2.62689">
        <ele>104.19999694824</ele>
        <time>2013-02-03T10:07:53Z</time>
      </trkpt>
      <trkpt lat="48.26767" lon="2.62709">
        <ele>103.80000305176</ele>
        <time>2013-02-03T10:07:57Z</time>
      </trkpt>
      <trkpt lat="48.26772" lon="2.62719">
        <ele>103.59999847412</ele>
        <time>2013-02-03T10:08:00Z</time>
      </trkpt>
      <trkpt lat="48.26779" lon="2.62731">
        <ele>103</ele>
        <time>2013-02-03T10:08:04Z</time>
      </trkpt>
      <trkpt lat="48.26783" lon="2.62733">
        <ele>102.80000305176</ele>
        <time>2013-02-03T10:08:06Z</time>
      </trkpt>
      <trkpt lat="48.26803" lon="2.62723">
        <ele>101.40000152588</ele>
        <time>2013-02-03T10:08:13Z</time>
      </trkpt>
      <trkpt lat="48.26833" lon="2.62716">
        <ele>99.800003051758</ele>
        <time>2013-02-03T10:08:20Z</time>
      </trkpt>
      <trkpt lat="48.26849" lon="2.62709">
        <ele>99.199996948242</ele>
        <time>2013-02-03T10:08:25Z</time>
      </trkpt>
      <trkpt lat="48.26851" lon="2.62707">
        <ele>99.199996948242</ele>
        <time>2013-02-03T10:08:26Z</time>
      </trkpt>
      <trkpt lat="48.26861" lon="2.62694">
        <ele>99.199996948242</ele>
        <time>2013-02-03T10:08:32Z</time>
      </trkpt>
      <trkpt lat="48.26866" lon="2.62694">
        <ele>99</ele>
        <time>2013-02-03T10:08:37Z</time>
      </trkpt>
      <trkpt lat="48.2687" lon="2.62689">
        <ele>99</ele>
        <time>2013-02-03T10:08:41Z</time>
      </trkpt>
      <trkpt lat="48.26877" lon="2.6268">
        <ele>99</ele>
        <time>2013-02-03T10:08:44Z</time>
      </trkpt>
      <trkpt lat="48.26878" lon="2.62682">
        <ele>98.800003051758</ele>
        <time>2013-02-03T10:08:45Z</time>
      </trkpt>
      <trkpt lat="48.26882" lon="2.62684">
        <ele>98.599998474121</ele>
        <time>2013-02-03T10:08:50Z</time>
      </trkpt>
      <trkpt lat="48.26886" lon="2.62687">
        <ele>98.400001525879</ele>
        <time>2013-02-03T10:08:52Z</time>
      </trkpt>
      <trkpt lat="48.269" lon="2.62696">
        <ele>97.599998474121</ele>
        <time>2013-02-03T10:08:57Z</time>
      </trkpt>
      <trkpt lat="48.26905" lon="2.62711">
        <ele>96.800003051758</ele>
        <time>2013-02-03T10:09:01Z</time>
      </trkpt>
      <trkpt lat="48.269" lon="2.62721">
        <ele>96.599998474121</ele>
        <time>2013-02-03T10:09:04Z</time>
      </trkpt>
      <trkpt lat="48.26892" lon="2.62725">
        <ele>96.800003051758</ele>
        <time>2013-02-03T10:09:07Z</time>
      </trkpt>
      <trkpt lat="48.26873" lon="2.62739">
        <ele>97.400001525879</ele>
        <time>2013-02-03T10:09:15Z</time>
      </trkpt>
      <trkpt lat="48.26854" lon="2.62754">
        <ele>98</ele>
        <time>2013-02-03T10:09:23Z</time>
      </trkpt>
      <trkpt lat="48.26847" lon="2.62763">
        <ele>98.400001525879</ele>
        <time>2013-02-03T10:09:29Z</time>
      </trkpt>
      <trkpt lat="48.26843" lon="2.62775">
        <ele>98.800003051758</ele>
        <time>2013-02-03T10:09:34Z</time>
      </trkpt>
      <trkpt lat="48.26843" lon="2.62778">
        <ele>98.800003051758</ele>
        <time>2013-02-03T10:09:37Z</time>
      </trkpt>
      <trkpt lat="48.26844" lon="2.62784">
        <ele>98.800003051758</ele>
        <time>2013-02-03T10:09:43Z</time>
      </trkpt>
      <trkpt lat="48.26843" lon="2.62789">
        <ele>99</ele>
        <time>2013-02-03T10:09:50Z</time>
      </trkpt>
      <trkpt lat="48.26839" lon="2.62792">
        <ele>99.199996948242</ele>
        <time>2013-02-03T10:09:56Z</time>
      </trkpt>
      <trkpt lat="48.26835" lon="2.62796">
        <ele>99.400001525879</ele>
        <time>2013-02-03T10:10:02Z</time>
      </trkpt>
      <trkpt lat="48.26831" lon="2.62801">
        <ele>99.599998474121</ele>
        <time>2013-02-03T10:10:09Z</time>
      </trkpt>
      <trkpt lat="48.26826" lon="2.62806">
        <ele>100</ele>
        <time>2013-02-03T10:10:14Z</time>
      </trkpt>
      <trkpt lat="48.26821" lon="2.62804">
        <ele>100.19999694824</ele>
        <time>2013-02-03T10:10:21Z</time>
      </trkpt>
      <trkpt lat="48.26816" lon="2.62806">
        <ele>100.40000152588</ele>
        <time>2013-02-03T10:10:25Z</time>
      </trkpt>
      <trkpt lat="48.26813" lon="2.62809">
        <ele>100.59999847412</ele>
        <time>2013-02-03T10:10:29Z</time>
      </trkpt>
      <trkpt lat="48.26811" lon="2.62819">
        <ele>100.59999847412</ele>
        <time>2013-02-03T10:10:39Z</time>
      </trkpt>
      <trkpt lat="48.2681" lon="2.62821">
        <ele>100.80000305176</ele>
        <time>2013-02-03T10:10:44Z</time>
      </trkpt>
      <trkpt lat="48.26805" lon="2.6282">
        <ele>101</ele>
        <time>2013-02-03T10:10:51Z</time>
      </trkpt>
      <trkpt lat="48.26798" lon="2.62823">
        <ele>101.19999694824</ele>
        <time>2013-02-03T10:10:55Z</time>
      </trkpt>
      <trkpt lat="48.26795" lon="2.62839">
        <ele>101.40000152588</ele>
        <time>2013-02-03T10:11:02Z</time>
      </trkpt>
      <trkpt lat="48.26799" lon="2.62858">
        <ele>101.40000152588</ele>
        <time>2013-02-03T10:11:08Z</time>
      </trkpt>
      <trkpt lat="48.26806" lon="2.62881">
        <ele>101.59999847412</ele>
        <time>2013-02-03T10:11:16Z</time>
      </trkpt>
      <trkpt lat="48.26815" lon="2.62888">
        <ele>101.80000305176</ele>
        <time>2013-02-03T10:11:21Z</time>
      </trkpt>
      <trkpt lat="48.26829" lon="2.62896">
        <ele>102.19999694824</ele>
        <time>2013-02-03T10:11:27Z</time>
      </trkpt>
      <trkpt lat="48.26843" lon="2.62894">
        <ele>101.59999847412</ele>
        <time>2013-02-03T10:11:31Z</time>
      </trkpt>
      <trkpt lat="48.26862" lon="2.62879">
        <ele>100.19999694824</ele>
        <time>2013-02-03T10:11:36Z</time>
      </trkpt>
      <trkpt lat="48.26868" lon="2.62877">
        <ele>99.800003051758</ele>
        <time>2013-02-03T10:11:37Z</time>
      </trkpt>
      <trkpt lat="48.26888" lon="2.62878">
        <ele>98.800003051758</ele>
        <time>2013-02-03T10:11:42Z</time>
      </trkpt>
      <trkpt lat="48.26897" lon="2.6289">
        <ele>98.800003051758</ele>
        <time>2013-02-03T10:11:47Z</time>
      </trkpt>
      <trkpt lat="48.2691" lon="2.62898">
        <ele>98.599998474121</ele>
        <time>2013-02-03T10:11:51Z</time>
      </trkpt>
      <trkpt lat="48.26912" lon="2.62906">
        <ele>98.800003051758</ele>
        <time>2013-02-03T10:11:55Z</time>
      </trkpt>
      <trkpt lat="48.26911" lon="2.62908">
        <ele>98.800003051758</ele>
        <time>2013-02-03T10:11:57Z</time>
      </trkpt>
      <trkpt lat="48.26917" lon="2.62914">
        <ele>98.800003051758</ele>
        <time>2013-02-03T10:12:03Z</time>
      </trkpt>
      <trkpt lat="48.26921" lon="2.62924">
        <ele>98.400001525879</ele>
        <time>2013-02-03T10:12:07Z</time>
      </trkpt>
      <trkpt lat="48.26931" lon="2.62948">
        <ele>97.599998474121</ele>
        <time>2013-02-03T10:12:13Z</time>
      </trkpt>
      <trkpt lat="48.26943" lon="2.62969">
        <ele>96.400001525879</ele>
        <time>2013-02-03T10:12:17Z</time>
      </trkpt>
      <trkpt lat="48.26953" lon="2.62993">
        <ele>95.400001525879</ele>
        <time>2013-02-03T10:12:22Z</time>
      </trkpt>
      <trkpt lat="48.26959" lon="2.63018">
        <ele>94.400001525879</ele>
        <time>2013-02-03T10:12:27Z</time>
      </trkpt>
      <trkpt lat="48.26961" lon="2.63041">
        <ele>93.599998474121</ele>
        <time>2013-02-03T10:12:31Z</time>
      </trkpt>
      <trkpt lat="48.26955" lon="2.6306">
        <ele>93.599998474121</ele>
        <time>2013-02-03T10:12:35Z</time>
      </trkpt>
      <trkpt lat="48.26951" lon="2.63082">
        <ele>93.199996948242</ele>
        <time>2013-02-03T10:12:39Z</time>
      </trkpt>
      <trkpt lat="48.26945" lon="2.63107">
        <ele>93</ele>
        <time>2013-02-03T10:12:43Z</time>
      </trkpt>
      <trkpt lat="48.26937" lon="2.63121">
        <ele>93</ele>
        <time>2013-02-03T10:12:47Z</time>
      </trkpt>
      <trkpt lat="48.26925" lon="2.63127">
        <ele>93.400001525879</ele>
        <time>2013-02-03T10:12:51Z</time>
      </trkpt>
      <trkpt lat="48.26921" lon="2.63134">
        <ele>93.400001525879</ele>
        <time>2013-02-03T10:12:53Z</time>
      </trkpt>
      <trkpt lat="48.26916" lon="2.63136">
        <ele>93.599998474121</ele>
        <time>2013-02-03T10:12:55Z</time>
      </trkpt>
      <trkpt lat="48.26912" lon="2.63147">
        <ele>93.800003051758</ele>
        <time>2013-02-03T10:13:00Z</time>
      </trkpt>
      <trkpt lat="48.26909" lon="2.63159">
        <ele>94</ele>
        <time>2013-02-03T10:13:04Z</time>
      </trkpt>
      <trkpt lat="48.26907" lon="2.63177">
        <ele>94.199996948242</ele>
        <time>2013-02-03T10:13:09Z</time>
      </trkpt>
      <trkpt lat="48.26903" lon="2.63193">
        <ele>94.800003051758</ele>
        <time>2013-02-03T10:13:13Z</time>
      </trkpt>
      <trkpt lat="48.26896" lon="2.63212">
        <ele>96</ele>
        <time>2013-02-03T10:13:19Z</time>
      </trkpt>
      <trkpt lat="48.26887" lon="2.63225">
        <ele>97.199996948242</ele>
        <time>2013-02-03T10:13:23Z</time>
      </trkpt>
      <trkpt lat="48.26884" lon="2.63226">
        <ele>97.599998474121</ele>
        <time>2013-02-03T10:13:24Z</time>
      </trkpt>
      <trkpt lat="48.26874" lon="2.63227">
        <ele>98.800003051758</ele>
        <time>2013-02-03T10:13:30Z</time>
      </trkpt>
      <trkpt lat="48.26871" lon="2.63225">
        <ele>99</ele>
        <time>2013-02-03T10:13:31Z</time>
      </trkpt>
      <trkpt lat="48.26855" lon="2.63225">
        <ele>101</ele>
        <time>2013-02-03T10:13:38Z</time>
      </trkpt>
      <trkpt lat="48.26849" lon="2.63233">
        <ele>101.80000305176</ele>
        <time>2013-02-03T10:13:43Z</time>
      </trkpt>
      <trkpt lat="48.26848" lon="2.63238">
        <ele>102</ele>
        <time>2013-02-03T10:13:45Z</time>
      </trkpt>
      <trkpt lat="48.26847" lon="2.63247">
        <ele>102.19999694824</ele>
        <time>2013-02-03T10:13:49Z</time>
      </trkpt>
      <trkpt lat="48.2685" lon="2.63261">
        <ele>101.80000305176</ele>
        <time>2013-02-03T10:13:55Z</time>
      </trkpt>
      <trkpt lat="48.26852" lon="2.63275">
        <ele>101.59999847412</ele>
        <time>2013-02-03T10:14:01Z</time>
      </trkpt>
      <trkpt lat="48.26854" lon="2.63283">
        <ele>101.40000152588</ele>
        <time>2013-02-03T10:14:05Z</time>
      </trkpt>
      <trkpt lat="48.26855" lon="2.63294">
        <ele>101.19999694824</ele>
        <time>2013-02-03T10:14:10Z</time>
      </trkpt>
      <trkpt lat="48.26856" lon="2.633">
        <ele>101</ele>
        <time>2013-02-03T10:14:13Z</time>
      </trkpt>
      <trkpt lat="48.26858" lon="2.63309">
        <ele>100.80000305176</ele>
        <time>2013-02-03T10:14:18Z</time>
      </trkpt>
      <trkpt lat="48.26856" lon="2.63322">
        <ele>101</ele>
        <time>2013-02-03T10:14:22Z</time>
      </trkpt>
      <trkpt lat="48.26852" lon="2.63328">
        <ele>101.59999847412</ele>
        <time>2013-02-03T10:14:25Z</time>
      </trkpt>
      <trkpt lat="48.2684" lon="2.63336">
        <ele>103</ele>
        <time>2013-02-03T10:14:31Z</time>
      </trkpt>
      <trkpt lat="48.26832" lon="2.63349">
        <ele>104</ele>
        <time>2013-02-03T10:14:36Z</time>
      </trkpt>
      <trkpt lat="48.26831" lon="2.63361">
        <ele>104</ele>
        <time>2013-02-03T10:14:40Z</time>
      </trkpt>
      <trkpt lat="48.26839" lon="2.6337">
        <ele>103</ele>
        <time>2013-02-03T10:14:44Z</time>
      </trkpt>
      <trkpt lat="48.26844" lon="2.63371">
        <ele>102.40000152588</ele>
        <time>2013-02-03T10:14:45Z</time>
      </trkpt>
      <trkpt lat="48.26863" lon="2.63374">
        <ele>99.400001525879</ele>
        <time>2013-02-03T10:14:50Z</time>
      </trkpt>
      <trkpt lat="48.26878" lon="2.63379">
        <ele>97</ele>
        <time>2013-02-03T10:14:54Z</time>
      </trkpt>
      <trkpt lat="48.2688" lon="2.6338">
        <ele>96.800003051758</ele>
        <time>2013-02-03T10:14:55Z</time>
      </trkpt>
      <trkpt lat="48.26884" lon="2.63399">
        <ele>95.800003051758</ele>
        <time>2013-02-03T10:14:59Z</time>
      </trkpt>
      <trkpt lat="48.26896" lon="2.63416">
        <ele>93.400001525879</ele>
        <time>2013-02-03T10:15:03Z</time>
      </trkpt>
      <trkpt lat="48.26913" lon="2.63423">
        <ele>90.400001525879</ele>
        <time>2013-02-03T10:15:07Z</time>
      </trkpt>
      <trkpt lat="48.26926" lon="2.63424">
        <ele>89</ele>
        <time>2013-02-03T10:15:10Z</time>
      </trkpt>
      <trkpt lat="48.26935" lon="2.63426">
        <ele>88.199996948242</ele>
        <time>2013-02-03T10:15:12Z</time>
      </trkpt>
      <trkpt lat="48.26965" lon="2.63449">
        <ele>85</ele>
        <time>2013-02-03T10:15:18Z</time>
      </trkpt>
      <trkpt lat="48.26976" lon="2.6346">
        <ele>83.599998474121</ele>
        <time>2013-02-03T10:15:20Z</time>
      </trkpt>
      <trkpt lat="48.2699" lon="2.63481">
        <ele>81.599998474121</ele>
        <time>2013-02-03T10:15:24Z</time>
      </trkpt>
      <trkpt lat="48.27001" lon="2.63498">
        <ele>80</ele>
        <time>2013-02-03T10:15:28Z</time>
      </trkpt>
      <trkpt lat="48.27006" lon="2.63507">
        <ele>80.199996948242</ele>
        <time>2013-02-03T10:15:30Z</time>
      </trkpt>
      <trkpt lat="48.27023" lon="2.63532">
        <ele>80.599998474121</ele>
        <time>2013-02-03T10:15:35Z</time>
      </trkpt>
      <trkpt lat="48.27029" lon="2.63548">
        <ele>80.800003051758</ele>
        <time>2013-02-03T10:15:37Z</time>
      </trkpt>
      <trkpt lat="48.27031" lon="2.63571">
        <ele>81.199996948242</ele>
        <time>2013-02-03T10:15:41Z</time>
      </trkpt>
      <trkpt lat="48.27033" lon="2.63598">
        <ele>81.199996948242</ele>
        <time>2013-02-03T10:15:46Z</time>
      </trkpt>
      <trkpt lat="48.27037" lon="2.63609">
        <ele>81</ele>
        <time>2013-02-03T10:15:48Z</time>
      </trkpt>
      <trkpt lat="48.27045" lon="2.63628">
        <ele>80.400001525879</ele>
        <time>2013-02-03T10:15:51Z</time>
      </trkpt>
      <trkpt lat="48.27055" lon="2.63641">
        <ele>79.800003051758</ele>
        <time>2013-02-03T10:15:56Z</time>
      </trkpt>
      <trkpt lat="48.27054" lon="2.63644">
        <ele>79.800003051758</ele>
        <time>2013-02-03T10:15:57Z</time>
      </trkpt>
      <trkpt lat="48.27048" lon="2.63673">
        <ele>79.800003051758</ele>
        <time>2013-02-03T10:16:04Z</time>
      </trkpt>
      <trkpt lat="48.27043" lon="2.63697">
        <ele>79.800003051758</ele>
        <time>2013-02-03T10:16:09Z</time>
      </trkpt>
      <trkpt lat="48.27043" lon="2.63725">
        <ele>79.199996948242</ele>
        <time>2013-02-03T10:16:14Z</time>
      </trkpt>
      <trkpt lat="48.2704" lon="2.63745">
        <ele>79</ele>
        <time>2013-02-03T10:16:18Z</time>
      </trkpt>
      <trkpt lat="48.27039" lon="2.63773">
        <ele>78.800003051758</ele>
        <time>2013-02-03T10:16:22Z</time>
      </trkpt>
      <trkpt lat="48.27041" lon="2.63795">
        <ele>78.599998474121</ele>
        <time>2013-02-03T10:16:25Z</time>
      </trkpt>
      <trkpt lat="48.27044" lon="2.63834">
        <ele>78.400001525879</ele>
        <time>2013-02-03T10:16:30Z</time>
      </trkpt>
      <trkpt lat="48.27045" lon="2.63858">
        <ele>78</ele>
        <time>2013-02-03T10:16:33Z</time>
      </trkpt>
      <trkpt lat="48.27039" lon="2.63885">
        <ele>77.800003051758</ele>
        <time>2013-02-03T10:16:38Z</time>
      </trkpt>
      <trkpt lat="48.2703" lon="2.63882">
        <ele>78</ele>
        <time>2013-02-03T10:16:41Z</time>
      </trkpt>
      <trkpt lat="48.27016" lon="2.63875">
        <ele>78.599998474121</ele>
        <time>2013-02-03T10:16:45Z</time>
      </trkpt>
      <trkpt lat="48.27006" lon="2.63868">
        <ele>79</ele>
        <time>2013-02-03T10:16:48Z</time>
      </trkpt>
      <trkpt lat="48.26996" lon="2.63869">
        <ele>79.400001525879</ele>
        <time>2013-02-03T10:16:52Z</time>
      </trkpt>
      <trkpt lat="48.26988" lon="2.6387">
        <ele>80.400001525879</ele>
        <time>2013-02-03T10:16:55Z</time>
      </trkpt>
      <trkpt lat="48.2698" lon="2.63883">
        <ele>80.800003051758</ele>
        <time>2013-02-03T10:17:00Z</time>
      </trkpt>
      <trkpt lat="48.26968" lon="2.63897">
        <ele>81.599998474121</ele>
        <time>2013-02-03T10:17:05Z</time>
      </trkpt>
      <trkpt lat="48.2696" lon="2.63905">
        <ele>82.199996948242</ele>
        <time>2013-02-03T10:17:09Z</time>
      </trkpt>
      <trkpt lat="48.26948" lon="2.63914">
        <ele>83</ele>
        <time>2013-02-03T10:17:13Z</time>
      </trkpt>
      <trkpt lat="48.26934" lon="2.63915">
        <ele>84.400001525879</ele>
        <time>2013-02-03T10:17:18Z</time>
      </trkpt>
      <trkpt lat="48.26926" lon="2.63918">
        <ele>85</ele>
        <time>2013-02-03T10:17:21Z</time>
      </trkpt>
      <trkpt lat="48.26914" lon="2.63923">
        <ele>86.199996948242</ele>
        <time>2013-02-03T10:17:28Z</time>
      </trkpt>
      <trkpt lat="48.26906" lon="2.63926">
        <ele>87.199996948242</ele>
        <time>2013-02-03T10:17:32Z</time>
      </trkpt>
      <trkpt lat="48.26901" lon="2.63926">
        <ele>87.800003051758</ele>
        <time>2013-02-03T10:17:34Z</time>
      </trkpt>
      <trkpt lat="48.26888" lon="2.63918">
        <ele>89.400001525879</ele>
        <time>2013-02-03T10:17:41Z</time>
      </trkpt>
      <trkpt lat="48.26885" lon="2.63918">
        <ele>89.599998474121</ele>
        <time>2013-02-03T10:17:43Z</time>
      </trkpt>
      <trkpt lat="48.26879" lon="2.63917">
        <ele>90.400001525879</ele>
        <time>2013-02-03T10:17:47Z</time>
      </trkpt>
      <trkpt lat="48.26871" lon="2.63912">
        <ele>91.599998474121</ele>
        <time>2013-02-03T10:17:54Z</time>
      </trkpt>
      <trkpt lat="48.26867" lon="2.63909">
        <ele>92.199996948242</ele>
        <time>2013-02-03T10:17:58Z</time>
      </trkpt>
      <trkpt lat="48.2686" lon="2.63903">
        <ele>93.199996948242</ele>
        <time>2013-02-03T10:18:04Z</time>
      </trkpt>
      <trkpt lat="48.26855" lon="2.63896">
        <ele>94.199996948242</ele>
        <time>2013-02-03T10:18:09Z</time>
      </trkpt>
      <trkpt lat="48.26849" lon="2.639">
        <ele>94.599998474121</ele>
        <time>2013-02-03T10:18:16Z</time>
      </trkpt>
      <trkpt lat="48.26845" lon="2.63905">
        <ele>95</ele>
        <time>2013-02-03T10:18:20Z</time>
      </trkpt>
      <trkpt lat="48.26837" lon="2.639">
        <ele>96</ele>
        <time>2013-02-03T10:18:26Z</time>
      </trkpt>
      <trkpt lat="48.26835" lon="2.63897">
        <ele>96.400001525879</ele>
        <time>2013-02-03T10:18:28Z</time>
      </trkpt>
      <trkpt lat="48.26828" lon="2.63885">
        <ele>97.599998474121</ele>
        <time>2013-02-03T10:18:35Z</time>
      </trkpt>
      <trkpt lat="48.26825" lon="2.63884">
        <ele>97.800003051758</ele>
        <time>2013-02-03T10:18:41Z</time>
      </trkpt>
      <trkpt lat="48.26823" lon="2.63889">
        <ele>97.800003051758</ele>
        <time>2013-02-03T10:18:49Z</time>
      </trkpt>
      <trkpt lat="48.26821" lon="2.63888">
        <ele>98.199996948242</ele>
        <time>2013-02-03T10:18:58Z</time>
      </trkpt>
      <trkpt lat="48.26821" lon="2.63886">
        <ele>98.199996948242</ele>
        <time>2013-02-03T10:18:59Z</time>
      </trkpt>
      <trkpt lat="48.2682" lon="2.63877">
        <ele>98.599998474121</ele>
        <time>2013-02-03T10:19:06Z</time>
      </trkpt>
      <trkpt lat="48.26818" lon="2.63874">
        <ele>98.800003051758</ele>
        <time>2013-02-03T10:19:13Z</time>
      </trkpt>
      <trkpt lat="48.26818" lon="2.6387">
        <ele>99</ele>
        <time>2013-02-03T10:19:15Z</time>
      </trkpt>
      <trkpt lat="48.26814" lon="2.63864">
        <ele>99.599998474121</ele>
        <time>2013-02-03T10:19:21Z</time>
      </trkpt>
      <trkpt lat="48.2681" lon="2.63855">
        <ele>100.19999694824</ele>
        <time>2013-02-03T10:19:29Z</time>
      </trkpt>
      <trkpt lat="48.26807" lon="2.63847">
        <ele>100.80000305176</ele>
        <time>2013-02-03T10:19:36Z</time>
      </trkpt>
      <trkpt lat="48.26806" lon="2.63842">
        <ele>101</ele>
        <time>2013-02-03T10:19:42Z</time>
      </trkpt>
      <trkpt lat="48.26805" lon="2.63845">
        <ele>101</ele>
        <time>2013-02-03T10:19:57Z</time>
      </trkpt>
      <trkpt lat="48.26803" lon="2.63842">
        <ele>101.19999694824</ele>
        <time>2013-02-03T10:19:59Z</time>
      </trkpt>
      <trkpt lat="48.26797" lon="2.63832">
        <ele>102</ele>
        <time>2013-02-03T10:20:05Z</time>
      </trkpt>
      <trkpt lat="48.26791" lon="2.63826">
        <ele>102.40000152588</ele>
        <time>2013-02-03T10:20:13Z</time>
      </trkpt>
      <trkpt lat="48.26786" lon="2.63821">
        <ele>102.80000305176</ele>
        <time>2013-02-03T10:20:18Z</time>
      </trkpt>
      <trkpt lat="48.26785" lon="2.6382">
        <ele>102.80000305176</ele>
        <time>2013-02-03T10:20:19Z</time>
      </trkpt>
      <trkpt lat="48.26778" lon="2.63816">
        <ele>103.40000152588</ele>
        <time>2013-02-03T10:20:23Z</time>
      </trkpt>
      <trkpt lat="48.26771" lon="2.63815">
        <ele>104</ele>
        <time>2013-02-03T10:20:27Z</time>
      </trkpt>
      <trkpt lat="48.26762" lon="2.63819">
        <ele>104.80000305176</ele>
        <time>2013-02-03T10:20:33Z</time>
      </trkpt>
      <trkpt lat="48.26753" lon="2.63821">
        <ele>105.59999847412</ele>
        <time>2013-02-03T10:20:40Z</time>
      </trkpt>
      <trkpt lat="48.26754" lon="2.63823">
        <ele>105.59999847412</ele>
        <time>2013-02-03T10:20:46Z</time>
      </trkpt>
      <trkpt lat="48.26754" lon="2.63824">
        <ele>105.59999847412</ele>
        <time>2013-02-03T10:20:55Z</time>
      </trkpt>
      <trkpt lat="48.26747" lon="2.63827">
        <ele>106</ele>
        <time>2013-02-03T10:23:15Z</time>
      </trkpt>
      <trkpt lat="48.26743" lon="2.63837">
        <ele>106</ele>
        <time>2013-02-03T10:23:19Z</time>
      </trkpt>
      <trkpt lat="48.2674" lon="2.63874">
        <ele>105.80000305176</ele>
        <time>2013-02-03T10:23:26Z</time>
      </trkpt>
      <trkpt lat="48.26739" lon="2.63916">
        <ele>105.19999694824</ele>
        <time>2013-02-03T10:23:34Z</time>
      </trkpt>
      <trkpt lat="48.26739" lon="2.63957">
        <ele>105.80000305176</ele>
        <time>2013-02-03T10:23:41Z</time>
      </trkpt>
      <trkpt lat="48.26739" lon="2.63992">
        <ele>106</ele>
        <time>2013-02-03T10:23:48Z</time>
      </trkpt>
      <trkpt lat="48.26736" lon="2.64006">
        <ele>106.40000152588</ele>
        <time>2013-02-03T10:23:53Z</time>
      </trkpt>
      <trkpt lat="48.26739" lon="2.64021">
        <ele>106.80000305176</ele>
        <time>2013-02-03T10:23:59Z</time>
      </trkpt>
      <trkpt lat="48.26742" lon="2.64025">
        <ele>107</ele>
        <time>2013-02-03T10:24:01Z</time>
      </trkpt>
      <trkpt lat="48.26749" lon="2.64029">
        <ele>107</ele>
        <time>2013-02-03T10:24:07Z</time>
      </trkpt>
      <trkpt lat="48.26754" lon="2.6403">
        <ele>106.59999847412</ele>
        <time>2013-02-03T10:24:11Z</time>
      </trkpt>
      <trkpt lat="48.26756" lon="2.64032">
        <ele>106.40000152588</ele>
        <time>2013-02-03T10:24:15Z</time>
      </trkpt>
      <trkpt lat="48.2676" lon="2.6404">
        <ele>106.19999694824</ele>
        <time>2013-02-03T10:24:25Z</time>
      </trkpt>
      <trkpt lat="48.2676" lon="2.6404">
        <ele>106</ele>
        <time>2013-02-03T10:24:32Z</time>
      </trkpt>
      <trkpt lat="48.26763" lon="2.64037">
        <ele>105.59999847412</ele>
        <time>2013-02-03T10:24:37Z</time>
      </trkpt>
      <trkpt lat="48.26774" lon="2.64032">
        <ele>104.19999694824</ele>
        <time>2013-02-03T10:24:57Z</time>
      </trkpt>
      <trkpt lat="48.26772" lon="2.64022">
        <ele>104</ele>
        <time>2013-02-03T10:25:03Z</time>
      </trkpt>
      <trkpt lat="48.26771" lon="2.64015">
        <ele>104</ele>
        <time>2013-02-03T10:25:07Z</time>
      </trkpt>
      <trkpt lat="48.26774" lon="2.64013">
        <ele>103.59999847412</ele>
        <time>2013-02-03T10:25:12Z</time>
      </trkpt>
      <trkpt lat="48.26789" lon="2.64015">
        <ele>101.80000305176</ele>
        <time>2013-02-03T10:25:37Z</time>
      </trkpt>
      <trkpt lat="48.26792" lon="2.64003">
        <ele>101</ele>
        <time>2013-02-03T10:25:42Z</time>
      </trkpt>
      <trkpt lat="48.26796" lon="2.64004">
        <ele>100.59999847412</ele>
        <time>2013-02-03T10:25:46Z</time>
      </trkpt>
      <trkpt lat="48.26797" lon="2.6401">
        <ele>100.59999847412</ele>
        <time>2013-02-03T10:25:51Z</time>
      </trkpt>
      <trkpt lat="48.268" lon="2.64008">
        <ele>100.19999694824</ele>
        <time>2013-02-03T10:25:56Z</time>
      </trkpt>
      <trkpt lat="48.26795" lon="2.63991">
        <ele>100.40000152588</ele>
        <time>2013-02-03T10:26:09Z</time>
      </trkpt>
      <trkpt lat="48.26799" lon="2.63985">
        <ele>100</ele>
        <time>2013-02-03T10:26:14Z</time>
      </trkpt>
      <trkpt lat="48.26804" lon="2.63986">
        <ele>99.400001525879</ele>
        <time>2013-02-03T10:26:26Z</time>
      </trkpt>
      <trkpt lat="48.26815" lon="2.64002">
        <ele>98.199996948242</ele>
        <time>2013-02-03T10:26:32Z</time>
      </trkpt>
      <trkpt lat="48.26821" lon="2.64017">
        <ele>98</ele>
        <time>2013-02-03T10:26:37Z</time>
      </trkpt>
      <trkpt lat="48.26823" lon="2.64021">
        <ele>98</ele>
        <time>2013-02-03T10:26:38Z</time>
      </trkpt>
      <trkpt lat="48.26832" lon="2.64033">
        <ele>97.400001525879</ele>
        <time>2013-02-03T10:26:43Z</time>
      </trkpt>
      <trkpt lat="48.26834" lon="2.64036">
        <ele>97.199996948242</ele>
        <time>2013-02-03T10:26:45Z</time>
      </trkpt>
      <trkpt lat="48.26834" lon="2.64039">
        <ele>97.199996948242</ele>
        <time>2013-02-03T10:26:50Z</time>
      </trkpt>
      <trkpt lat="48.26834" lon="2.64045">
        <ele>97.400001525879</ele>
        <time>2013-02-03T10:26:54Z</time>
      </trkpt>
      <trkpt lat="48.26835" lon="2.6405">
        <ele>97.400001525879</ele>
        <time>2013-02-03T10:26:56Z</time>
      </trkpt>
      <trkpt lat="48.26838" lon="2.64055">
        <ele>97.199996948242</ele>
        <time>2013-02-03T10:27:02Z</time>
      </trkpt>
      <trkpt lat="48.26844" lon="2.64061">
        <ele>96.599998474121</ele>
        <time>2013-02-03T10:27:17Z</time>
      </trkpt>
      <trkpt lat="48.26846" lon="2.6406">
        <ele>96.400001525879</ele>
        <time>2013-02-03T10:27:18Z</time>
      </trkpt>
      <trkpt lat="48.26858" lon="2.64061">
        <ele>94.599998474121</ele>
        <time>2013-02-03T10:27:24Z</time>
      </trkpt>
      <trkpt lat="48.2686" lon="2.64062">
        <ele>94.400001525879</ele>
        <time>2013-02-03T10:27:25Z</time>
      </trkpt>
      <trkpt lat="48.26869" lon="2.64064">
        <ele>93</ele>
        <time>2013-02-03T10:27:30Z</time>
      </trkpt>
      <trkpt lat="48.26876" lon="2.64072">
        <ele>92.400001525879</ele>
        <time>2013-02-03T10:27:35Z</time>
      </trkpt>
      <trkpt lat="48.26881" lon="2.64075">
        <ele>91.800003051758</ele>
        <time>2013-02-03T10:27:37Z</time>
      </trkpt>
      <trkpt lat="48.26889" lon="2.6408">
        <ele>90.800003051758</ele>
        <time>2013-02-03T10:27:40Z</time>
      </trkpt>
      <trkpt lat="48.26897" lon="2.64089">
        <ele>89.800003051758</ele>
        <time>2013-02-03T10:27:45Z</time>
      </trkpt>
      <trkpt lat="48.26897" lon="2.64092">
        <ele>90</ele>
        <time>2013-02-03T10:27:49Z</time>
      </trkpt>
      <trkpt lat="48.26896" lon="2.64101">
        <ele>90</ele>
        <time>2013-02-03T10:27:57Z</time>
      </trkpt>
      <trkpt lat="48.26898" lon="2.64107">
        <ele>89.800003051758</ele>
        <time>2013-02-03T10:28:01Z</time>
      </trkpt>
      <trkpt lat="48.26902" lon="2.64122">
        <ele>89.400001525879</ele>
        <time>2013-02-03T10:28:20Z</time>
      </trkpt>
      <trkpt lat="48.26902" lon="2.64124">
        <ele>89.400001525879</ele>
        <time>2013-02-03T10:28:21Z</time>
      </trkpt>
      <trkpt lat="48.26908" lon="2.6413">
        <ele>88.400001525879</ele>
        <time>2013-02-03T10:28:26Z</time>
      </trkpt>
      <trkpt lat="48.2691" lon="2.64136">
        <ele>88</ele>
        <time>2013-02-03T10:28:31Z</time>
      </trkpt>
      <trkpt lat="48.26912" lon="2.64134">
        <ele>87.800003051758</ele>
        <time>2013-02-03T10:28:35Z</time>
      </trkpt>
      <trkpt lat="48.26919" lon="2.6414">
        <ele>86.599998474121</ele>
        <time>2013-02-03T10:28:40Z</time>
      </trkpt>
      <trkpt lat="48.26921" lon="2.64142">
        <ele>86.400001525879</ele>
        <time>2013-02-03T10:28:41Z</time>
      </trkpt>
      <trkpt lat="48.26931" lon="2.64155">
        <ele>85.400001525879</ele>
        <time>2013-02-03T10:28:46Z</time>
      </trkpt>
      <trkpt lat="48.26943" lon="2.64164">
        <ele>84</ele>
        <time>2013-02-03T10:28:50Z</time>
      </trkpt>
      <trkpt lat="48.26948" lon="2.64176">
        <ele>83.199996948242</ele>
        <time>2013-02-03T10:28:54Z</time>
      </trkpt>
      <trkpt lat="48.26955" lon="2.64193">
        <ele>82.199996948242</ele>
        <time>2013-02-03T10:28:58Z</time>
      </trkpt>
      <trkpt lat="48.26955" lon="2.64208">
        <ele>81.800003051758</ele>
        <time>2013-02-03T10:29:02Z</time>
      </trkpt>
      <trkpt lat="48.26954" lon="2.64221">
        <ele>81.400001525879</ele>
        <time>2013-02-03T10:29:06Z</time>
      </trkpt>
      <trkpt lat="48.26952" lon="2.64224">
        <ele>81.599998474121</ele>
        <time>2013-02-03T10:29:07Z</time>
      </trkpt>
      <trkpt lat="48.26937" lon="2.64246">
        <ele>82.400001525879</ele>
        <time>2013-02-03T10:29:14Z</time>
      </trkpt>
      <trkpt lat="48.26924" lon="2.64269">
        <ele>82.400001525879</ele>
        <time>2013-02-03T10:29:19Z</time>
      </trkpt>
      <trkpt lat="48.2691" lon="2.64299">
        <ele>82.400001525879</ele>
        <time>2013-02-03T10:29:25Z</time>
      </trkpt>
      <trkpt lat="48.26899" lon="2.64329">
        <ele>81.800003051758</ele>
        <time>2013-02-03T10:29:31Z</time>
      </trkpt>
      <trkpt lat="48.26875" lon="2.6436">
        <ele>82.400001525879</ele>
        <time>2013-02-03T10:29:39Z</time>
      </trkpt>
      <trkpt lat="48.26862" lon="2.64386">
        <ele>81.400001525879</ele>
        <time>2013-02-03T10:29:44Z</time>
      </trkpt>
      <trkpt lat="48.26857" lon="2.64395">
        <ele>80.800003051758</ele>
        <time>2013-02-03T10:29:46Z</time>
      </trkpt>
      <trkpt lat="48.26845" lon="2.64394">
        <ele>81.199996948242</ele>
        <time>2013-02-03T10:29:51Z</time>
      </trkpt>
      <trkpt lat="48.26845" lon="2.64382">
        <ele>82.199996948242</ele>
        <time>2013-02-03T10:29:55Z</time>
      </trkpt>
      <trkpt lat="48.26841" lon="2.64375">
        <ele>83.199996948242</ele>
        <time>2013-02-03T10:29:59Z</time>
      </trkpt>
      <trkpt lat="48.26836" lon="2.64368">
        <ele>84</ele>
        <time>2013-02-03T10:30:03Z</time>
      </trkpt>
      <trkpt lat="48.26753" lon="2.64472">
        <ele>75.9</ele>
        <time>2013-02-03T10:46:59Z</time>
      </trkpt>
      <trkpt lat="48.26753" lon="2.64472">
        <ele>123</ele>
        <time>2013-02-03T10:47:00Z</time>
      </trkpt>
      <trkpt lat="48.26765" lon="2.64484">
        <ele>120.2</ele>
        <time>2013-02-03T10:47:38Z</time>
      </trkpt>
      <trkpt lat="48.26793" lon="2.645">
        <ele>124.1</ele>
        <time>2013-02-03T10:47:54Z</time>
      </trkpt>
      <trkpt lat="48.26808" lon="2.64538">
        <ele>126.5</ele>
        <time>2013-02-03T10:48:02Z</time>
      </trkpt>
      <trkpt lat="48.26808" lon="2.64576">
        <ele>126.5</ele>
        <time>2013-02-03T10:48:09Z</time>
      </trkpt>
      <trkpt lat="48.26814" lon="2.64616">
        <ele>128.4</ele>
        <time>2013-02-03T10:48:14Z</time>
      </trkpt>
      <trkpt lat="48.2682" lon="2.64649">
        <ele>130.2</ele>
        <time>2013-02-03T10:48:20Z</time>
      </trkpt>
      <trkpt lat="48.26837" lon="2.64677">
        <ele>129</ele>
        <time>2013-02-03T10:48:26Z</time>
      </trkpt>
      <trkpt lat="48.26845" lon="2.64703">
        <ele>133.8</ele>
        <time>2013-02-03T10:48:31Z</time>
      </trkpt>
      <trkpt lat="48.26842" lon="2.6475">
        <ele>130.5</ele>
        <time>2013-02-03T10:48:37Z</time>
      </trkpt>
      <trkpt lat="48.26849" lon="2.64774">
        <ele>128.6</ele>
        <time>2013-02-03T10:48:43Z</time>
      </trkpt>
      <trkpt lat="48.26855" lon="2.64799">
        <ele>124.7</ele>
        <time>2013-02-03T10:48:49Z</time>
      </trkpt>
      <trkpt lat="48.26858" lon="2.64832">
        <ele>130.1</ele>
        <time>2013-02-03T10:48:57Z</time>
      </trkpt>
      <trkpt lat="48.26861" lon="2.64854">
        <ele>129.5</ele>
        <time>2013-02-03T10:49:03Z</time>
      </trkpt>
      <trkpt lat="48.26864" lon="2.64897">
        <ele>126.2</ele>
        <time>2013-02-03T10:49:11Z</time>
      </trkpt>
      <trkpt lat="48.26869" lon="2.6498">
        <ele>121.3</ele>
        <time>2013-02-03T10:49:19Z</time>
      </trkpt>
      <trkpt lat="48.26872" lon="2.6504">
        <ele>118.4</ele>
        <time>2013-02-03T10:49:25Z</time>
      </trkpt>
      <trkpt lat="48.26894" lon="2.65065">
        <ele>116.3</ele>
        <time>2013-02-03T10:49:32Z</time>
      </trkpt>
      <trkpt lat="48.26921" lon="2.65062">
        <ele>116.9</ele>
        <time>2013-02-03T10:49:37Z</time>
      </trkpt>
      <trkpt lat="48.26952" lon="2.65061">
        <ele>116.1</ele>
        <time>2013-02-03T10:49:44Z</time>
      </trkpt>
      <trkpt lat="48.26984" lon="2.65059">
        <ele>114.6</ele>
        <time>2013-02-03T10:49:49Z</time>
      </trkpt>
      <trkpt lat="48.27018" lon="2.65064">
        <ele>111.7</ele>
        <time>2013-02-03T10:49:55Z</time>
      </trkpt>
      <trkpt lat="48.27054" lon="2.6507">
        <ele>116.3</ele>
        <time>2013-02-03T10:50:02Z</time>
      </trkpt>
      <trkpt lat="48.27087" lon="2.65084">
        <ele>120</ele>
        <time>2013-02-03T10:50:08Z</time>
      </trkpt>
      <trkpt lat="48.2712" lon="2.65094">
        <ele>119.8</ele>
        <time>2013-02-03T10:50:14Z</time>
      </trkpt>
      <trkpt lat="48.27134" lon="2.65102">
        <ele>118.3</ele>
        <time>2013-02-03T10:50:17Z</time>
      </trkpt>
      <trkpt lat="48.27169" lon="2.65117">
        <ele>118.1</ele>
        <time>2013-02-03T10:50:23Z</time>
      </trkpt>
      <trkpt lat="48.27188" lon="2.65128">
        <ele>116.9</ele>
        <time>2013-02-03T10:50:27Z</time>
      </trkpt>
      <trkpt lat="48.27219" lon="2.65138">
        <ele>114.8</ele>
        <time>2013-02-03T10:50:33Z</time>
      </trkpt>
      <trkpt lat="48.27238" lon="2.65149">
        <ele>115</ele>
        <time>2013-02-03T10:50:37Z</time>
      </trkpt>
      <trkpt lat="48.27268" lon="2.65169">
        <ele>114.4</ele>
        <time>2013-02-03T10:50:43Z</time>
      </trkpt>
      <trkpt lat="48.27297" lon="2.65175">
        <ele>117.3</ele>
        <time>2013-02-03T10:50:49Z</time>
      </trkpt>
      <trkpt lat="48.27311" lon="2.65142">
        <ele>118.3</ele>
        <time>2013-02-03T10:50:54Z</time>
      </trkpt>
      <trkpt lat="48.27316" lon="2.65098">
        <ele>118.8</ele>
        <time>2013-02-03T10:51:00Z</time>
      </trkpt>
      <trkpt lat="48.27319" lon="2.6506">
        <ele>117.9</ele>
        <time>2013-02-03T10:51:05Z</time>
      </trkpt>
      <trkpt lat="48.27318" lon="2.65037">
        <ele>118</ele>
        <time>2013-02-03T10:51:08Z</time>
      </trkpt>
      <trkpt lat="48.27315" lon="2.64997">
        <ele>123.3</ele>
        <time>2013-02-03T10:51:13Z</time>
      </trkpt>
      <trkpt lat="48.27311" lon="2.64943">
        <ele>122.6</ele>
        <time>2013-02-03T10:51:19Z</time>
      </trkpt>
      <trkpt lat="48.2731" lon="2.64891">
        <ele>119.7</ele>
        <time>2013-02-03T10:51:25Z</time>
      </trkpt>
      <trkpt lat="48.27306" lon="2.64851">
        <ele>119.6</ele>
        <time>2013-02-03T10:51:31Z</time>
      </trkpt>
      <trkpt lat="48.27298" lon="2.64795">
        <ele>120.5</ele>
        <time>2013-02-03T10:51:38Z</time>
      </trkpt>
      <trkpt lat="48.27297" lon="2.64756">
        <ele>122.2</ele>
        <time>2013-02-03T10:51:43Z</time>
      </trkpt>
      <trkpt lat="48.27294" lon="2.64709">
        <ele>125.5</ele>
        <time>2013-02-03T10:51:49Z</time>
      </trkpt>
      <trkpt lat="48.27292" lon="2.64659">
        <ele>123.9</ele>
        <time>2013-02-03T10:51:54Z</time>
      </trkpt>
      <trkpt lat="48.27286" lon="2.64616">
        <ele>121.5</ele>
        <time>2013-02-03T10:52:00Z</time>
      </trkpt>
      <trkpt lat="48.27284" lon="2.64563">
        <ele>121.7</ele>
        <time>2013-02-03T10:52:06Z</time>
      </trkpt>
      <trkpt lat="48.27286" lon="2.64515">
        <ele>118.6</ele>
        <time>2013-02-03T10:52:11Z</time>
      </trkpt>
      <trkpt lat="48.27283" lon="2.64477">
        <ele>121</ele>
        <time>2013-02-03T10:52:17Z</time>
      </trkpt>
      <trkpt lat="48.27281" lon="2.6443">
        <ele>117</ele>
        <time>2013-02-03T10:52:22Z</time>
      </trkpt>
      <trkpt lat="48.27282" lon="2.64383">
        <ele>108.8</ele>
        <time>2013-02-03T10:52:29Z</time>
      </trkpt>
      <trkpt lat="48.27282" lon="2.64337">
        <ele>109.4</ele>
        <time>2013-02-03T10:52:35Z</time>
      </trkpt>
      <trkpt lat="48.27284" lon="2.64291">
        <ele>109.9</ele>
        <time>2013-02-03T10:52:41Z</time>
      </trkpt>
      <trkpt lat="48.27291" lon="2.6425">
        <ele>107.8</ele>
        <time>2013-02-03T10:52:47Z</time>
      </trkpt>
      <trkpt lat="48.27293" lon="2.64212">
        <ele>110.1</ele>
        <time>2013-02-03T10:52:52Z</time>
      </trkpt>
      <trkpt lat="48.27294" lon="2.64178">
        <ele>108.5</ele>
        <time>2013-02-03T10:52:57Z</time>
      </trkpt>
      <trkpt lat="48.27295" lon="2.64135">
        <ele>109</ele>
        <time>2013-02-03T10:53:03Z</time>
      </trkpt>
      <trkpt lat="48.27299" lon="2.64101">
        <ele>110</ele>
        <time>2013-02-03T10:53:08Z</time>
      </trkpt>
      <trkpt lat="48.27305" lon="2.64062">
        <ele>112.7</ele>
        <time>2013-02-03T10:53:13Z</time>
      </trkpt>
      <trkpt lat="48.27312" lon="2.64035">
        <ele>112.3</ele>
        <time>2013-02-03T10:53:18Z</time>
      </trkpt>
      <trkpt lat="48.27313" lon="2.63998">
        <ele>112</ele>
        <time>2013-02-03T10:53:23Z</time>
      </trkpt>
      <trkpt lat="48.27316" lon="2.6397">
        <ele>113.7</ele>
        <time>2013-02-03T10:53:27Z</time>
      </trkpt>
      <trkpt lat="48.27322" lon="2.63927">
        <ele>116.2</ele>
        <time>2013-02-03T10:53:33Z</time>
      </trkpt>
      <trkpt lat="48.27329" lon="2.63891">
        <ele>116.7</ele>
        <time>2013-02-03T10:53:38Z</time>
      </trkpt>
      <trkpt lat="48.27334" lon="2.6386">
        <ele>115.1</ele>
        <time>2013-02-03T10:53:44Z</time>
      </trkpt>
      <trkpt lat="48.27342" lon="2.63823">
        <ele>116.1</ele>
        <time>2013-02-03T10:53:50Z</time>
      </trkpt>
      <trkpt lat="48.27364" lon="2.63819">
        <ele>115.7</ele>
        <time>2013-02-03T10:53:56Z</time>
      </trkpt>
      <trkpt lat="48.27389" lon="2.63826">
        <ele>114.8</ele>
        <time>2013-02-03T10:54:01Z</time>
      </trkpt>
      <trkpt lat="48.27418" lon="2.63833">
        <ele>115.7</ele>
        <time>2013-02-03T10:54:07Z</time>
      </trkpt>
      <trkpt lat="48.27452" lon="2.63841">
        <ele>114.9</ele>
        <time>2013-02-03T10:54:13Z</time>
      </trkpt>
      <trkpt lat="48.27474" lon="2.6385">
        <ele>114.7</ele>
        <time>2013-02-03T10:54:18Z</time>
      </trkpt>
      <trkpt lat="48.27505" lon="2.6386">
        <ele>116.9</ele>
        <time>2013-02-03T10:54:25Z</time>
      </trkpt>
      <trkpt lat="48.27538" lon="2.63883">
        <ele>115.8</ele>
        <time>2013-02-03T10:54:31Z</time>
      </trkpt>
      <trkpt lat="48.27565" lon="2.639">
        <ele>113.8</ele>
        <time>2013-02-03T10:54:37Z</time>
      </trkpt>
      <trkpt lat="48.27589" lon="2.63902">
        <ele>112.7</ele>
        <time>2013-02-03T10:54:42Z</time>
      </trkpt>
      <trkpt lat="48.27604" lon="2.63905">
        <ele>110.4</ele>
        <time>2013-02-03T10:54:45Z</time>
      </trkpt>
      <trkpt lat="48.27618" lon="2.6391">
        <ele>110.6</ele>
        <time>2013-02-03T10:54:48Z</time>
      </trkpt>
      <trkpt lat="48.2765" lon="2.63921">
        <ele>111.4</ele>
        <time>2013-02-03T10:54:54Z</time>
      </trkpt>
      <trkpt lat="48.27681" lon="2.63933">
        <ele>112.7</ele>
        <time>2013-02-03T10:55:00Z</time>
      </trkpt>
      <trkpt lat="48.27707" lon="2.63941">
        <ele>112.1</ele>
        <time>2013-02-03T10:55:05Z</time>
      </trkpt>
      <trkpt lat="48.27737" lon="2.63949">
        <ele>111.4</ele>
        <time>2013-02-03T10:55:11Z</time>
      </trkpt>
      <trkpt lat="48.27764" lon="2.63953">
        <ele>112</ele>
        <time>2013-02-03T10:55:17Z</time>
      </trkpt>
      <trkpt lat="48.27796" lon="2.63956">
        <ele>113.2</ele>
        <time>2013-02-03T10:55:23Z</time>
      </trkpt>
      <trkpt lat="48.2782" lon="2.63959">
        <ele>111.7</ele>
        <time>2013-02-03T10:55:29Z</time>
      </trkpt>
      <trkpt lat="48.27851" lon="2.63969">
        <ele>107.3</ele>
        <time>2013-02-03T10:55:35Z</time>
      </trkpt>
      <trkpt lat="48.27874" lon="2.63977">
        <ele>109.3</ele>
        <time>2013-02-03T10:55:42Z</time>
      </trkpt>
      <trkpt lat="48.27899" lon="2.63985">
        <ele>109.8</ele>
        <time>2013-02-03T10:55:48Z</time>
      </trkpt>
      <trkpt lat="48.27916" lon="2.63992">
        <ele>109.3</ele>
        <time>2013-02-03T10:55:52Z</time>
      </trkpt>
      <trkpt lat="48.27945" lon="2.64014">
        <ele>109.9</ele>
        <time>2013-02-03T10:55:58Z</time>
      </trkpt>
      <trkpt lat="48.27961" lon="2.64036">
        <ele>113.8</ele>
        <time>2013-02-03T10:56:05Z</time>
      </trkpt>
      <trkpt lat="48.27981" lon="2.64054">
        <ele>115.6</ele>
        <time>2013-02-03T10:56:12Z</time>
      </trkpt>
      <trkpt lat="48.27992" lon="2.64061">
        <ele>115.4</ele>
        <time>2013-02-03T10:56:15Z</time>
      </trkpt>
      <trkpt lat="48.28013" lon="2.64079">
        <ele>118.8</ele>
        <time>2013-02-03T10:56:21Z</time>
      </trkpt>
      <trkpt lat="48.28041" lon="2.64111">
        <ele>122.8</ele>
        <time>2013-02-03T10:56:29Z</time>
      </trkpt>
      <trkpt lat="48.28058" lon="2.64135">
        <ele>122.5</ele>
        <time>2013-02-03T10:56:35Z</time>
      </trkpt>
      <trkpt lat="48.28078" lon="2.64158">
        <ele>119.9</ele>
        <time>2013-02-03T10:56:42Z</time>
      </trkpt>
      <trkpt lat="48.28093" lon="2.64149">
        <ele>118.8</ele>
        <time>2013-02-03T10:56:47Z</time>
      </trkpt>
      <trkpt lat="48.28114" lon="2.64106">
        <ele>119.9</ele>
        <time>2013-02-03T10:56:53Z</time>
      </trkpt>
      <trkpt lat="48.28131" lon="2.64077">
        <ele>119.6</ele>
        <time>2013-02-03T10:56:58Z</time>
      </trkpt>
      <trkpt lat="48.28144" lon="2.64053">
        <ele>117.1</ele>
        <time>2013-02-03T10:57:06Z</time>
      </trkpt>
      <trkpt lat="48.28156" lon="2.64037">
        <ele>120.1</ele>
        <time>2013-02-03T10:57:17Z</time>
      </trkpt>
      <trkpt lat="48.28175" lon="2.64005">
        <ele>118.8</ele>
        <time>2013-02-03T10:57:25Z</time>
      </trkpt>
      <trkpt lat="48.28187" lon="2.63983">
        <ele>119.8</ele>
        <time>2013-02-03T10:57:30Z</time>
      </trkpt>
      <trkpt lat="48.28202" lon="2.63958">
        <ele>119.8</ele>
        <time>2013-02-03T10:57:36Z</time>
      </trkpt>
      <trkpt lat="48.28217" lon="2.63931">
        <ele>115.4</ele>
        <time>2013-02-03T10:57:42Z</time>
      </trkpt>
      <trkpt lat="48.28237" lon="2.63895">
        <ele>115.4</ele>
        <time>2013-02-03T10:57:49Z</time>
      </trkpt>
      <trkpt lat="48.28255" lon="2.63863">
        <ele>115</ele>
        <time>2013-02-03T10:57:55Z</time>
      </trkpt>
      <trkpt lat="48.28275" lon="2.63834">
        <ele>114.6</ele>
        <time>2013-02-03T10:58:01Z</time>
      </trkpt>
      <trkpt lat="48.28294" lon="2.63803">
        <ele>116</ele>
        <time>2013-02-03T10:58:06Z</time>
      </trkpt>
      <trkpt lat="48.28313" lon="2.63785">
        <ele>112.4</ele>
        <time>2013-02-03T10:58:11Z</time>
      </trkpt>
      <trkpt lat="48.28332" lon="2.63776">
        <ele>113.3</ele>
        <time>2013-02-03T10:58:16Z</time>
      </trkpt>
      <trkpt lat="48.28355" lon="2.63769">
        <ele>116.1</ele>
        <time>2013-02-03T10:58:21Z</time>
      </trkpt>
      <trkpt lat="48.28368" lon="2.63765">
        <ele>118.1</ele>
        <time>2013-02-03T10:58:24Z</time>
      </trkpt>
      <trkpt lat="48.28385" lon="2.63756">
        <ele>118.9</ele>
        <time>2013-02-03T10:58:30Z</time>
      </trkpt>
      <trkpt lat="48.28406" lon="2.63747">
        <ele>122.8</ele>
        <time>2013-02-03T10:58:36Z</time>
      </trkpt>
      <trkpt lat="48.28425" lon="2.63752">
        <ele>120.5</ele>
        <time>2013-02-03T10:58:43Z</time>
      </trkpt>
      <trkpt lat="48.28431" lon="2.63782">
        <ele>119</ele>
        <time>2013-02-03T10:58:48Z</time>
      </trkpt>
      <trkpt lat="48.28442" lon="2.6382">
        <ele>115</ele>
        <time>2013-02-03T10:58:54Z</time>
      </trkpt>
      <trkpt lat="48.28451" lon="2.63853">
        <ele>108.1</ele>
        <time>2013-02-03T10:59:00Z</time>
      </trkpt>
      <trkpt lat="48.2846" lon="2.63889">
        <ele>107</ele>
        <time>2013-02-03T10:59:07Z</time>
      </trkpt>
      <trkpt lat="48.28469" lon="2.63933">
        <ele>97.6</ele>
        <time>2013-02-03T10:59:14Z</time>
      </trkpt>
      <trkpt lat="48.28478" lon="2.63973">
        <ele>97.1</ele>
        <time>2013-02-03T10:59:20Z</time>
      </trkpt>
      <trkpt lat="48.28482" lon="2.64026">
        <ele>103.7</ele>
        <time>2013-02-03T10:59:26Z</time>
      </trkpt>
      <trkpt lat="48.28489" lon="2.64057">
        <ele>101.1</ele>
        <time>2013-02-03T10:59:31Z</time>
      </trkpt>
      <trkpt lat="48.28499" lon="2.64096">
        <ele>109.1</ele>
        <time>2013-02-03T10:59:37Z</time>
      </trkpt>
      <trkpt lat="48.28508" lon="2.64144">
        <ele>113.5</ele>
        <time>2013-02-03T10:59:43Z</time>
      </trkpt>
      <trkpt lat="48.28517" lon="2.64201">
        <ele>119.3</ele>
        <time>2013-02-03T10:59:50Z</time>
      </trkpt>
      <trkpt lat="48.28524" lon="2.64225">
        <ele>121.1</ele>
        <time>2013-02-03T10:59:55Z</time>
      </trkpt>
      <trkpt lat="48.28553" lon="2.64223">
        <ele>121.8</ele>
        <time>2013-02-03T11:00:02Z</time>
      </trkpt>
      <trkpt lat="48.28582" lon="2.64214">
        <ele>122.2</ele>
        <time>2013-02-03T11:00:08Z</time>
      </trkpt>
      <trkpt lat="48.28604" lon="2.6421">
        <ele>119.8</ele>
        <time>2013-02-03T11:00:13Z</time>
      </trkpt>
      <trkpt lat="48.2864" lon="2.64198">
        <ele>124.2</ele>
        <time>2013-02-03T11:00:19Z</time>
      </trkpt>
      <trkpt lat="48.28668" lon="2.64184">
        <ele>124.3</ele>
        <time>2013-02-03T11:00:25Z</time>
      </trkpt>
      <trkpt lat="48.28692" lon="2.64159">
        <ele>124.7</ele>
        <time>2013-02-03T11:00:30Z</time>
      </trkpt>
      <trkpt lat="48.28721" lon="2.64121">
        <ele>124.1</ele>
        <time>2013-02-03T11:00:36Z</time>
      </trkpt>
      <trkpt lat="48.2874" lon="2.64101">
        <ele>124.5</ele>
        <time>2013-02-03T11:00:41Z</time>
      </trkpt>
      <trkpt lat="48.28765" lon="2.64068">
        <ele>124.1</ele>
        <time>2013-02-03T11:00:47Z</time>
      </trkpt>
      <trkpt lat="48.28786" lon="2.64045">
        <ele>122.9</ele>
        <time>2013-02-03T11:00:52Z</time>
      </trkpt>
      <trkpt lat="48.28806" lon="2.64024">
        <ele>120.9</ele>
        <time>2013-02-03T11:00:58Z</time>
      </trkpt>
      <trkpt lat="48.28827" lon="2.63999">
        <ele>120</ele>
        <time>2013-02-03T11:01:03Z</time>
      </trkpt>
      <trkpt lat="48.28837" lon="2.63984">
        <ele>119</ele>
        <time>2013-02-03T11:01:06Z</time>
      </trkpt>
      <trkpt lat="48.28856" lon="2.63956">
        <ele>119.3</ele>
        <time>2013-02-03T11:01:12Z</time>
      </trkpt>
      <trkpt lat="48.2887" lon="2.63939">
        <ele>117.1</ele>
        <time>2013-02-03T11:01:16Z</time>
      </trkpt>
      <trkpt lat="48.28888" lon="2.63914">
        <ele>116.3</ele>
        <time>2013-02-03T11:01:22Z</time>
      </trkpt>
      <trkpt lat="48.28901" lon="2.63918">
        <ele>114.5</ele>
        <time>2013-02-03T11:01:27Z</time>
      </trkpt>
      <trkpt lat="48.28907" lon="2.63963">
        <ele>117.6</ele>
        <time>2013-02-03T11:01:34Z</time>
      </trkpt>
      <trkpt lat="48.2891" lon="2.64009">
        <ele>118.5</ele>
        <time>2013-02-03T11:01:40Z</time>
      </trkpt>
      <trkpt lat="48.28915" lon="2.64045">
        <ele>116.5</ele>
        <time>2013-02-03T11:01:46Z</time>
      </trkpt>
      <trkpt lat="48.28918" lon="2.64094">
        <ele>119.5</ele>
        <time>2013-02-03T11:01:53Z</time>
      </trkpt>
      <trkpt lat="48.2892" lon="2.64143">
        <ele>120.6</ele>
        <time>2013-02-03T11:01:59Z</time>
      </trkpt>
      <trkpt lat="48.28924" lon="2.64167">
        <ele>120</ele>
        <time>2013-02-03T11:02:03Z</time>
      </trkpt>
      <trkpt lat="48.2893" lon="2.64226">
        <ele>122</ele>
        <time>2013-02-03T11:02:12Z</time>
      </trkpt>
      <trkpt lat="48.28934" lon="2.64265">
        <ele>118.6</ele>
        <time>2013-02-03T11:02:17Z</time>
      </trkpt>
      <trkpt lat="48.28948" lon="2.64266">
        <ele>118.7</ele>
        <time>2013-02-03T11:02:23Z</time>
      </trkpt>
      <trkpt lat="48.28984" lon="2.64264">
        <ele>119.4</ele>
        <time>2013-02-03T11:02:30Z</time>
      </trkpt>
      <trkpt lat="48.29025" lon="2.64258">
        <ele>117.8</ele>
        <time>2013-02-03T11:02:36Z</time>
      </trkpt>
      <trkpt lat="48.29046" lon="2.64245">
        <ele>116.3</ele>
        <time>2013-02-03T11:02:41Z</time>
      </trkpt>
      <trkpt lat="48.29071" lon="2.64233">
        <ele>113.2</ele>
        <time>2013-02-03T11:02:46Z</time>
      </trkpt>
      <trkpt lat="48.29099" lon="2.64227">
        <ele>121.3</ele>
        <time>2013-02-03T11:02:52Z</time>
      </trkpt>
      <trkpt lat="48.29127" lon="2.64248">
        <ele>121</ele>
        <time>2013-02-03T11:02:58Z</time>
      </trkpt>
      <trkpt lat="48.2915" lon="2.64276">
        <ele>120.4</ele>
        <time>2013-02-03T11:03:03Z</time>
      </trkpt>
      <trkpt lat="48.2916" lon="2.64291">
        <ele>118.4</ele>
        <time>2013-02-03T11:03:06Z</time>
      </trkpt>
      <trkpt lat="48.2918" lon="2.64319">
        <ele>118</ele>
        <time>2013-02-03T11:03:12Z</time>
      </trkpt>
      <trkpt lat="48.29209" lon="2.64355">
        <ele>120.4</ele>
        <time>2013-02-03T11:03:18Z</time>
      </trkpt>
      <trkpt lat="48.29228" lon="2.64394">
        <ele>123.2</ele>
        <time>2013-02-03T11:03:24Z</time>
      </trkpt>
      <trkpt lat="48.29251" lon="2.64422">
        <ele>123.8</ele>
        <time>2013-02-03T11:03:29Z</time>
      </trkpt>
      <trkpt lat="48.29264" lon="2.64435">
        <ele>126.3</ele>
        <time>2013-02-03T11:03:32Z</time>
      </trkpt>
      <trkpt lat="48.29287" lon="2.6447">
        <ele>127.6</ele>
        <time>2013-02-03T11:03:38Z</time>
      </trkpt>
      <trkpt lat="48.293" lon="2.64501">
        <ele>128.7</ele>
        <time>2013-02-03T11:03:43Z</time>
      </trkpt>
      <trkpt lat="48.29328" lon="2.64537">
        <ele>129.4</ele>
        <time>2013-02-03T11:03:50Z</time>
      </trkpt>
      <trkpt lat="48.29351" lon="2.64574">
        <ele>127.6</ele>
        <time>2013-02-03T11:03:56Z</time>
      </trkpt>
      <trkpt lat="48.29369" lon="2.64597">
        <ele>128.4</ele>
        <time>2013-02-03T11:04:01Z</time>
      </trkpt>
      <trkpt lat="48.29363" lon="2.64632">
        <ele>126.3</ele>
        <time>2013-02-03T11:04:07Z</time>
      </trkpt>
      <trkpt lat="48.29344" lon="2.6467">
        <ele>125.3</ele>
        <time>2013-02-03T11:04:13Z</time>
      </trkpt>
      <trkpt lat="48.29323" lon="2.647">
        <ele>124.5</ele>
        <time>2013-02-03T11:04:18Z</time>
      </trkpt>
      <trkpt lat="48.29307" lon="2.64724">
        <ele>122.2</ele>
        <time>2013-02-03T11:04:24Z</time>
      </trkpt>
      <trkpt lat="48.2929" lon="2.64754">
        <ele>123.5</ele>
        <time>2013-02-03T11:04:30Z</time>
      </trkpt>
      <trkpt lat="48.29318" lon="2.64768">
        <ele>119</ele>
        <time>2013-02-03T11:04:37Z</time>
      </trkpt>
      <trkpt lat="48.29339" lon="2.64781">
        <ele>123.7</ele>
        <time>2013-02-03T11:04:43Z</time>
      </trkpt>
      <trkpt lat="48.29369" lon="2.64816">
        <ele>122</ele>
        <time>2013-02-03T11:04:51Z</time>
      </trkpt>
      <trkpt lat="48.29395" lon="2.64828">
        <ele>121.6</ele>
        <time>2013-02-03T11:04:58Z</time>
      </trkpt>
      <trkpt lat="48.29408" lon="2.64853">
        <ele>120.8</ele>
        <time>2013-02-03T11:05:03Z</time>
      </trkpt>
      <trkpt lat="48.29425" lon="2.64883">
        <ele>118.6</ele>
        <time>2013-02-03T11:05:09Z</time>
      </trkpt>
      <trkpt lat="48.29439" lon="2.649">
        <ele>119.8</ele>
        <time>2013-02-03T11:05:14Z</time>
      </trkpt>
      <trkpt lat="48.29443" lon="2.64927">
        <ele>119.3</ele>
        <time>2013-02-03T11:05:20Z</time>
      </trkpt>
      <trkpt lat="48.29451" lon="2.6495">
        <ele>119.4</ele>
        <time>2013-02-03T11:05:25Z</time>
      </trkpt>
      <trkpt lat="48.29474" lon="2.64964">
        <ele>122</ele>
        <time>2013-02-03T11:05:30Z</time>
      </trkpt>
      <trkpt lat="48.29487" lon="2.64976">
        <ele>117.5</ele>
        <time>2013-02-03T11:05:35Z</time>
      </trkpt>
      <trkpt lat="48.29514" lon="2.64977">
        <ele>120.4</ele>
        <time>2013-02-03T11:05:47Z</time>
      </trkpt>
      <trkpt lat="48.29556" lon="2.65">
        <ele>119.7</ele>
        <time>2013-02-03T11:06:00Z</time>
      </trkpt>
      <trkpt lat="48.29576" lon="2.65019">
        <ele>117.4</ele>
        <time>2013-02-03T11:06:05Z</time>
      </trkpt>
      <trkpt lat="48.29591" lon="2.6504">
        <ele>117.3</ele>
        <time>2013-02-03T11:06:13Z</time>
      </trkpt>
      <trkpt lat="48.29595" lon="2.65088">
        <ele>117.6</ele>
        <time>2013-02-03T11:06:21Z</time>
      </trkpt>
      <trkpt lat="48.29593" lon="2.65109">
        <ele>116.8</ele>
        <time>2013-02-03T11:06:24Z</time>
      </trkpt>
      <trkpt lat="48.29571" lon="2.65153">
        <ele>115</ele>
        <time>2013-02-03T11:06:31Z</time>
      </trkpt>
      <trkpt lat="48.29551" lon="2.65194">
        <ele>118.2</ele>
        <time>2013-02-03T11:06:37Z</time>
      </trkpt>
      <trkpt lat="48.29532" lon="2.65223">
        <ele>121.7</ele>
        <time>2013-02-03T11:06:43Z</time>
      </trkpt>
      <trkpt lat="48.2952" lon="2.6525">
        <ele>122.6</ele>
        <time>2013-02-03T11:06:49Z</time>
      </trkpt>
      <trkpt lat="48.29503" lon="2.65281">
        <ele>121.1</ele>
        <time>2013-02-03T11:06:55Z</time>
      </trkpt>
      <trkpt lat="48.29485" lon="2.65303">
        <ele>119.2</ele>
        <time>2013-02-03T11:07:00Z</time>
      </trkpt>
      <trkpt lat="48.29467" lon="2.65333">
        <ele>118</ele>
        <time>2013-02-03T11:07:06Z</time>
      </trkpt>
      <trkpt lat="48.29453" lon="2.6536">
        <ele>120.7</ele>
        <time>2013-02-03T11:07:11Z</time>
      </trkpt>
      <trkpt lat="48.29456" lon="2.65391">
        <ele>122</ele>
        <time>2013-02-03T11:07:17Z</time>
      </trkpt>
      <trkpt lat="48.2946" lon="2.65434">
        <ele>122.8</ele>
        <time>2013-02-03T11:07:26Z</time>
      </trkpt>
      <trkpt lat="48.29455" lon="2.65474">
        <ele>121</ele>
        <time>2013-02-03T11:07:33Z</time>
      </trkpt>
      <trkpt lat="48.29469" lon="2.65491">
        <ele>118.6</ele>
        <time>2013-02-03T11:07:40Z</time>
      </trkpt>
      <trkpt lat="48.29486" lon="2.65493">
        <ele>119.7</ele>
        <time>2013-02-03T11:07:47Z</time>
      </trkpt>
      <trkpt lat="48.29503" lon="2.65499">
        <ele>119</ele>
        <time>2013-02-03T11:07:56Z</time>
      </trkpt>
      <trkpt lat="48.29513" lon="2.655">
        <ele>118.3</ele>
        <time>2013-02-03T11:08:00Z</time>
      </trkpt>
      <trkpt lat="48.29529" lon="2.6548">
        <ele>121.5</ele>
        <time>2013-02-03T11:08:07Z</time>
      </trkpt>
      <trkpt lat="48.2955" lon="2.65453">
        <ele>123.4</ele>
        <time>2013-02-03T11:08:14Z</time>
      </trkpt>
      <trkpt lat="48.29567" lon="2.65439">
        <ele>118.1</ele>
        <time>2013-02-03T11:08:20Z</time>
      </trkpt>
      <trkpt lat="48.29579" lon="2.6541">
        <ele>112.7</ele>
        <time>2013-02-03T11:08:27Z</time>
      </trkpt>
      <trkpt lat="48.296" lon="2.65418">
        <ele>119</ele>
        <time>2013-02-03T11:08:33Z</time>
      </trkpt>
      <trkpt lat="48.29621" lon="2.65449">
        <ele>120.6</ele>
        <time>2013-02-03T11:08:40Z</time>
      </trkpt>
      <trkpt lat="48.2964" lon="2.65477">
        <ele>127.8</ele>
        <time>2013-02-03T11:08:46Z</time>
      </trkpt>
      <trkpt lat="48.29662" lon="2.65515">
        <ele>132.7</ele>
        <time>2013-02-03T11:08:52Z</time>
      </trkpt>
      <trkpt lat="48.29687" lon="2.65551">
        <ele>126.4</ele>
        <time>2013-02-03T11:08:59Z</time>
      </trkpt>
      <trkpt lat="48.29711" lon="2.65588">
        <ele>131.4</ele>
        <time>2013-02-03T11:09:07Z</time>
      </trkpt>
      <trkpt lat="48.29733" lon="2.65582">
        <ele>128.8</ele>
        <time>2013-02-03T11:09:14Z</time>
      </trkpt>
      <trkpt lat="48.29737" lon="2.65542">
        <ele>122.9</ele>
        <time>2013-02-03T11:09:20Z</time>
      </trkpt>
      <trkpt lat="48.29754" lon="2.65534">
        <ele>115</ele>
        <time>2013-02-03T11:09:27Z</time>
      </trkpt>
      <trkpt lat="48.29775" lon="2.65518">
        <ele>120.5</ele>
        <time>2013-02-03T11:09:33Z</time>
      </trkpt>
      <trkpt lat="48.29802" lon="2.6551">
        <ele>119.6</ele>
        <time>2013-02-03T11:09:39Z</time>
      </trkpt>
      <trkpt lat="48.2983" lon="2.65493">
        <ele>117.2</ele>
        <time>2013-02-03T11:09:47Z</time>
      </trkpt>
      <trkpt lat="48.29857" lon="2.65503">
        <ele>115.1</ele>
        <time>2013-02-03T11:09:55Z</time>
      </trkpt>
      <trkpt lat="48.29874" lon="2.65504">
        <ele>115.1</ele>
        <time>2013-02-03T11:10:03Z</time>
      </trkpt>
      <trkpt lat="48.29899" lon="2.65526">
        <ele>122</ele>
        <time>2013-02-03T11:10:11Z</time>
      </trkpt>
      <trkpt lat="48.29927" lon="2.65521">
        <ele>117.4</ele>
        <time>2013-02-03T11:10:19Z</time>
      </trkpt>
      <trkpt lat="48.29944" lon="2.65499">
        <ele>119.3</ele>
        <time>2013-02-03T11:10:24Z</time>
      </trkpt>
      <trkpt lat="48.29961" lon="2.65487">
        <ele>119.2</ele>
        <time>2013-02-03T11:10:28Z</time>
      </trkpt>
      <trkpt lat="48.29981" lon="2.65472">
        <ele>115.8</ele>
        <time>2013-02-03T11:10:33Z</time>
      </trkpt>
      <trkpt lat="48.29992" lon="2.65461">
        <ele>112.2</ele>
        <time>2013-02-03T11:10:37Z</time>
      </trkpt>
      <trkpt lat="48.30015" lon="2.65439">
        <ele>112.4</ele>
        <time>2013-02-03T11:10:43Z</time>
      </trkpt>
      <trkpt lat="48.30043" lon="2.65418">
        <ele>114.9</ele>
        <time>2013-02-03T11:10:49Z</time>
      </trkpt>
      <trkpt lat="48.30054" lon="2.65411">
        <ele>112.3</ele>
        <time>2013-02-03T11:10:52Z</time>
      </trkpt>
      <trkpt lat="48.30069" lon="2.65404">
        <ele>114.7</ele>
        <time>2013-02-03T11:10:57Z</time>
      </trkpt>
      <trkpt lat="48.30107" lon="2.6536">
        <ele>105</ele>
        <time>2013-02-03T11:11:06Z</time>
      </trkpt>
      <trkpt lat="48.30118" lon="2.65322">
        <ele>111.1</ele>
        <time>2013-02-03T11:11:14Z</time>
      </trkpt>
      <trkpt lat="48.30111" lon="2.65295">
        <ele>117</ele>
        <time>2013-02-03T11:11:24Z</time>
      </trkpt>
      <trkpt lat="48.30108" lon="2.65283">
        <ele>115.3</ele>
        <time>2013-02-03T11:11:30Z</time>
      </trkpt>
      <trkpt lat="48.30121" lon="2.65237">
        <ele>111.9</ele>
        <time>2013-02-03T11:11:45Z</time>
      </trkpt>
      <trkpt lat="48.30114" lon="2.65213">
        <ele>111.5</ele>
        <time>2013-02-03T11:11:57Z</time>
      </trkpt>
      <trkpt lat="48.30106" lon="2.65157">
        <ele>120.6</ele>
        <time>2013-02-03T11:12:10Z</time>
      </trkpt>
      <trkpt lat="48.30093" lon="2.65125">
        <ele>123.7</ele>
        <time>2013-02-03T11:12:17Z</time>
      </trkpt>
      <trkpt lat="48.3009" lon="2.65096">
        <ele>123.8</ele>
        <time>2013-02-03T11:12:23Z</time>
      </trkpt>
      <trkpt lat="48.3009" lon="2.65067">
        <ele>126.5</ele>
        <time>2013-02-03T11:12:28Z</time>
      </trkpt>
      <trkpt lat="48.30099" lon="2.65048">
        <ele>112.2</ele>
        <time>2013-02-03T11:12:34Z</time>
      </trkpt>
      <trkpt lat="48.30111" lon="2.65017">
        <ele>114.9</ele>
        <time>2013-02-03T11:12:42Z</time>
      </trkpt>
      <trkpt lat="48.30121" lon="2.6499">
        <ele>111.4</ele>
        <time>2013-02-03T11:12:50Z</time>
      </trkpt>
      <trkpt lat="48.30134" lon="2.64977">
        <ele>114.5</ele>
        <time>2013-02-03T11:12:57Z</time>
      </trkpt>
      <trkpt lat="48.30142" lon="2.64956">
        <ele>115.5</ele>
        <time>2013-02-03T11:13:02Z</time>
      </trkpt>
      <trkpt lat="48.30155" lon="2.6492">
        <ele>120.8</ele>
        <time>2013-02-03T11:13:10Z</time>
      </trkpt>
      <trkpt lat="48.3019" lon="2.6492">
        <ele>130.5</ele>
        <time>2013-02-03T11:13:19Z</time>
      </trkpt>
      <trkpt lat="48.30207" lon="2.64956">
        <ele>130.2</ele>
        <time>2013-02-03T11:13:26Z</time>
      </trkpt>
      <trkpt lat="48.30218" lon="2.6497">
        <ele>122.5</ele>
        <time>2013-02-03T11:13:31Z</time>
      </trkpt>
      <trkpt lat="48.30219" lon="2.64947">
        <ele>118.5</ele>
        <time>2013-02-03T11:13:41Z</time>
      </trkpt>
      <trkpt lat="48.30222" lon="2.6491">
        <ele>120.1</ele>
        <time>2013-02-03T11:13:52Z</time>
      </trkpt>
      <trkpt lat="48.30239" lon="2.64919">
        <ele>119.9</ele>
        <time>2013-02-03T11:13:58Z</time>
      </trkpt>
      <trkpt lat="48.30251" lon="2.64908">
        <ele>108.5</ele>
        <time>2013-02-03T11:14:06Z</time>
      </trkpt>
      <trkpt lat="48.30261" lon="2.64883">
        <ele>109.4</ele>
        <time>2013-02-03T11:14:12Z</time>
      </trkpt>
      <trkpt lat="48.30281" lon="2.64857">
        <ele>116</ele>
        <time>2013-02-03T11:14:20Z</time>
      </trkpt>
      <trkpt lat="48.30291" lon="2.64848">
        <ele>113.9</ele>
        <time>2013-02-03T11:14:25Z</time>
      </trkpt>
      <trkpt lat="48.303" lon="2.64805">
        <ele>103.7</ele>
        <time>2013-02-03T11:14:35Z</time>
      </trkpt>
      <trkpt lat="48.30307" lon="2.64782">
        <ele>105.4</ele>
        <time>2013-02-03T11:14:41Z</time>
      </trkpt>
      <trkpt lat="48.30326" lon="2.64751">
        <ele>110.9</ele>
        <time>2013-02-03T11:14:48Z</time>
      </trkpt>
      <trkpt lat="48.30343" lon="2.64725">
        <ele>116</ele>
        <time>2013-02-03T11:14:55Z</time>
      </trkpt>
      <trkpt lat="48.30357" lon="2.64716">
        <ele>120.7</ele>
        <time>2013-02-03T11:15:00Z</time>
      </trkpt>
      <trkpt lat="48.30367" lon="2.64688">
        <ele>119.4</ele>
        <time>2013-02-03T11:15:10Z</time>
      </trkpt>
      <trkpt lat="48.30354" lon="2.64651">
        <ele>119.6</ele>
        <time>2013-02-03T11:15:18Z</time>
      </trkpt>
      <trkpt lat="48.30352" lon="2.64615">
        <ele>111.5</ele>
        <time>2013-02-03T11:15:24Z</time>
      </trkpt>
      <trkpt lat="48.30361" lon="2.64591">
        <ele>112</ele>
        <time>2013-02-03T11:15:31Z</time>
      </trkpt>
      <trkpt lat="48.30374" lon="2.64579">
        <ele>117.9</ele>
        <time>2013-02-03T11:15:38Z</time>
      </trkpt>
      <trkpt lat="48.30396" lon="2.64538">
        <ele>117.9</ele>
        <time>2013-02-03T11:15:53Z</time>
      </trkpt>
      <trkpt lat="48.30439" lon="2.64532">
        <ele>125.8</ele>
        <time>2013-02-03T11:16:09Z</time>
      </trkpt>
      <trkpt lat="48.30446" lon="2.6456">
        <ele>113.4</ele>
        <time>2013-02-03T11:16:18Z</time>
      </trkpt>
      <trkpt lat="48.3045" lon="2.64592">
        <ele>114.4</ele>
        <time>2013-02-03T11:16:26Z</time>
      </trkpt>
      <trkpt lat="48.30457" lon="2.6461">
        <ele>103</ele>
        <time>2013-02-03T11:16:35Z</time>
      </trkpt>
      <trkpt lat="48.30469" lon="2.64675">
        <ele>104.8</ele>
        <time>2013-02-03T11:16:49Z</time>
      </trkpt>
      <trkpt lat="48.30467" lon="2.64706">
        <ele>108.3</ele>
        <time>2013-02-03T11:16:54Z</time>
      </trkpt>
      <trkpt lat="48.30468" lon="2.64742">
        <ele>108.7</ele>
        <time>2013-02-03T11:17:01Z</time>
      </trkpt>
      <trkpt lat="48.30469" lon="2.64768">
        <ele>112.6</ele>
        <time>2013-02-03T11:17:06Z</time>
      </trkpt>
      <trkpt lat="48.30463" lon="2.64813">
        <ele>116.4</ele>
        <time>2013-02-03T11:17:14Z</time>
      </trkpt>
      <trkpt lat="48.30462" lon="2.64819">
        <ele>115.4</ele>
        <time>2013-02-03T11:17:16Z</time>
      </trkpt>
      <trkpt lat="48.30461" lon="2.64821">
        <ele>115.4</ele>
        <time>2013-02-03T11:17:22Z</time>
      </trkpt>
      <trkpt lat="48.30471" lon="2.64845">
        <ele>120.4</ele>
        <time>2013-02-03T11:17:35Z</time>
      </trkpt>
      <trkpt lat="48.30482" lon="2.6485">
        <ele>119.9</ele>
        <time>2013-02-03T11:17:41Z</time>
      </trkpt>
      <trkpt lat="48.3051" lon="2.64837">
        <ele>122.7</ele>
        <time>2013-02-03T11:17:49Z</time>
      </trkpt>
      <trkpt lat="48.30528" lon="2.64831">
        <ele>123.4</ele>
        <time>2013-02-03T11:17:54Z</time>
      </trkpt>
      <trkpt lat="48.30563" lon="2.6482">
        <ele>121.3</ele>
        <time>2013-02-03T11:18:00Z</time>
      </trkpt>
      <trkpt lat="48.30594" lon="2.64809">
        <ele>125.2</ele>
        <time>2013-02-03T11:18:07Z</time>
      </trkpt>
      <trkpt lat="48.3061" lon="2.648">
        <ele>119.5</ele>
        <time>2013-02-03T11:18:12Z</time>
      </trkpt>
      <trkpt lat="48.30636" lon="2.64771">
        <ele>110.6</ele>
        <time>2013-02-03T11:18:18Z</time>
      </trkpt>
      <trkpt lat="48.30649" lon="2.64729">
        <ele>112.1</ele>
        <time>2013-02-03T11:18:24Z</time>
      </trkpt>
      <trkpt lat="48.30659" lon="2.64709">
        <ele>112.2</ele>
        <time>2013-02-03T11:18:28Z</time>
      </trkpt>
      <trkpt lat="48.30671" lon="2.6469">
        <ele>113.9</ele>
        <time>2013-02-03T11:18:31Z</time>
      </trkpt>
      <trkpt lat="48.30688" lon="2.64666">
        <ele>113.4</ele>
        <time>2013-02-03T11:18:37Z</time>
      </trkpt>
      <trkpt lat="48.30705" lon="2.64644">
        <ele>113.5</ele>
        <time>2013-02-03T11:18:42Z</time>
      </trkpt>
      <trkpt lat="48.30727" lon="2.64614">
        <ele>109.2</ele>
        <time>2013-02-03T11:18:48Z</time>
      </trkpt>
      <trkpt lat="48.30751" lon="2.64599">
        <ele>115.3</ele>
        <time>2013-02-03T11:18:53Z</time>
      </trkpt>
      <trkpt lat="48.3078" lon="2.64597">
        <ele>116.2</ele>
        <time>2013-02-03T11:18:59Z</time>
      </trkpt>
      <trkpt lat="48.30801" lon="2.64598">
        <ele>118.5</ele>
        <time>2013-02-03T11:19:05Z</time>
      </trkpt>
      <trkpt lat="48.30824" lon="2.64597">
        <ele>115.3</ele>
        <time>2013-02-03T11:19:11Z</time>
      </trkpt>
      <trkpt lat="48.30847" lon="2.64581">
        <ele>115.5</ele>
        <time>2013-02-03T11:19:18Z</time>
      </trkpt>
      <trkpt lat="48.30881" lon="2.64565">
        <ele>124.6</ele>
        <time>2013-02-03T11:19:25Z</time>
      </trkpt>
      <trkpt lat="48.309" lon="2.64559">
        <ele>123.7</ele>
        <time>2013-02-03T11:19:30Z</time>
      </trkpt>
      <trkpt lat="48.30918" lon="2.64552">
        <ele>120.9</ele>
        <time>2013-02-03T11:19:35Z</time>
      </trkpt>
      <trkpt lat="48.30934" lon="2.64547">
        <ele>122.6</ele>
        <time>2013-02-03T11:19:40Z</time>
      </trkpt>
      <trkpt lat="48.3096" lon="2.64536">
        <ele>125.1</ele>
        <time>2013-02-03T11:19:47Z</time>
      </trkpt>
      <trkpt lat="48.30971" lon="2.64531">
        <ele>127.1</ele>
        <time>2013-02-03T11:19:51Z</time>
      </trkpt>
      <trkpt lat="48.30999" lon="2.64522">
        <ele>126.8</ele>
        <time>2013-02-03T11:19:58Z</time>
      </trkpt>
      <trkpt lat="48.31016" lon="2.64519">
        <ele>124.6</ele>
        <time>2013-02-03T11:20:03Z</time>
      </trkpt>
      <trkpt lat="48.31034" lon="2.64516">
        <ele>120.2</ele>
        <time>2013-02-03T11:20:09Z</time>
      </trkpt>
      <trkpt lat="48.31052" lon="2.64495">
        <ele>119.8</ele>
        <time>2013-02-03T11:20:15Z</time>
      </trkpt>
      <trkpt lat="48.3106" lon="2.64469">
        <ele>120</ele>
        <time>2013-02-03T11:20:20Z</time>
      </trkpt>
      <trkpt lat="48.31068" lon="2.64444">
        <ele>121.2</ele>
        <time>2013-02-03T11:20:25Z</time>
      </trkpt>
      <trkpt lat="48.31073" lon="2.6443">
        <ele>123.6</ele>
        <time>2013-02-03T11:20:28Z</time>
      </trkpt>
      <trkpt lat="48.31083" lon="2.64398">
        <ele>125.9</ele>
        <time>2013-02-03T11:20:35Z</time>
      </trkpt>
      <trkpt lat="48.31089" lon="2.6438">
        <ele>124.6</ele>
        <time>2013-02-03T11:20:39Z</time>
      </trkpt>
      <trkpt lat="48.31094" lon="2.64368">
        <ele>126</ele>
        <time>2013-02-03T11:20:42Z</time>
      </trkpt>
      <trkpt lat="48.31101" lon="2.64346">
        <ele>125.2</ele>
        <time>2013-02-03T11:20:48Z</time>
      </trkpt>
      <trkpt lat="48.31113" lon="2.64312">
        <ele>129.1</ele>
        <time>2013-02-03T11:20:57Z</time>
      </trkpt>
      <trkpt lat="48.31119" lon="2.6429">
        <ele>130.1</ele>
        <time>2013-02-03T11:21:06Z</time>
      </trkpt>
      <trkpt lat="48.31133" lon="2.64257">
        <ele>130.9</ele>
        <time>2013-02-03T11:21:17Z</time>
      </trkpt>
      <trkpt lat="48.31142" lon="2.64228">
        <ele>131.3</ele>
        <time>2013-02-03T11:21:26Z</time>
      </trkpt>
      <trkpt lat="48.31143" lon="2.64204">
        <ele>131.7</ele>
        <time>2013-02-03T11:21:32Z</time>
      </trkpt>
      <trkpt lat="48.31141" lon="2.64188">
        <ele>131.5</ele>
        <time>2013-02-03T11:21:37Z</time>
      </trkpt>
      <trkpt lat="48.31133" lon="2.64158">
        <ele>134.2</ele>
        <time>2013-02-03T11:21:47Z</time>
      </trkpt>
      <trkpt lat="48.31137" lon="2.64128">
        <ele>133.8</ele>
        <time>2013-02-03T11:22:00Z</time>
      </trkpt>
      <trkpt lat="48.31155" lon="2.64099">
        <ele>140</ele>
        <time>2013-02-03T11:22:14Z</time>
      </trkpt>
      <trkpt lat="48.31181" lon="2.64092">
        <ele>142.8</ele>
        <time>2013-02-03T11:22:29Z</time>
      </trkpt>
      <trkpt lat="48.31188" lon="2.64066">
        <ele>144.3</ele>
        <time>2013-02-03T11:22:39Z</time>
      </trkpt>
      <trkpt lat="48.31192" lon="2.64036">
        <ele>143.7</ele>
        <time>2013-02-03T11:22:49Z</time>
      </trkpt>
      <trkpt lat="48.31195" lon="2.64006">
        <ele>139.1</ele>
        <time>2013-02-03T11:22:59Z</time>
      </trkpt>
      <trkpt lat="48.31198" lon="2.63981">
        <ele>141.9</ele>
        <time>2013-02-03T11:23:06Z</time>
      </trkpt>
      <trkpt lat="48.31204" lon="2.63953">
        <ele>142.4</ele>
        <time>2013-02-03T11:23:15Z</time>
      </trkpt>
      <trkpt lat="48.31211" lon="2.63917">
        <ele>142.8</ele>
        <time>2013-02-03T11:23:26Z</time>
      </trkpt>
      <trkpt lat="48.3122" lon="2.63884">
        <ele>144.3</ele>
        <time>2013-02-03T11:23:36Z</time>
      </trkpt>
      <trkpt lat="48.31214" lon="2.63861">
        <ele>144</ele>
        <time>2013-02-03T11:23:42Z</time>
      </trkpt>
      <trkpt lat="48.312" lon="2.63837">
        <ele>147.8</ele>
        <time>2013-02-03T11:23:50Z</time>
      </trkpt>
      <trkpt lat="48.31187" lon="2.63812">
        <ele>146.8</ele>
        <time>2013-02-03T11:23:57Z</time>
      </trkpt>
      <trkpt lat="48.31183" lon="2.63769">
        <ele>146.3</ele>
        <time>2013-02-03T11:24:05Z</time>
      </trkpt>
      <trkpt lat="48.31188" lon="2.63739">
        <ele>145.9</ele>
        <time>2013-02-03T11:24:10Z</time>
      </trkpt>
      <trkpt lat="48.31192" lon="2.63721">
        <ele>145.1</ele>
        <time>2013-02-03T11:24:13Z</time>
      </trkpt>
      <trkpt lat="48.31196" lon="2.63705">
        <ele>144.3</ele>
        <time>2013-02-03T11:24:16Z</time>
      </trkpt>
      <trkpt lat="48.31203" lon="2.63666">
        <ele>144.7</ele>
        <time>2013-02-03T11:24:23Z</time>
      </trkpt>
      <trkpt lat="48.31207" lon="2.63647">
        <ele>145.8</ele>
        <time>2013-02-03T11:24:26Z</time>
      </trkpt>
      <trkpt lat="48.31205" lon="2.63621">
        <ele>148.2</ele>
        <time>2013-02-03T11:24:32Z</time>
      </trkpt>
      <trkpt lat="48.31207" lon="2.63598">
        <ele>143.8</ele>
        <time>2013-02-03T11:24:37Z</time>
      </trkpt>
      <trkpt lat="48.31216" lon="2.63535">
        <ele>142.7</ele>
        <time>2013-02-03T11:24:44Z</time>
      </trkpt>
      <trkpt lat="48.31213" lon="2.63502">
        <ele>136.5</ele>
        <time>2013-02-03T11:24:49Z</time>
      </trkpt>
      <trkpt lat="48.31204" lon="2.63451">
        <ele>142.7</ele>
        <time>2013-02-03T11:24:55Z</time>
      </trkpt>
      <trkpt lat="48.31201" lon="2.63373">
        <ele>140.5</ele>
        <time>2013-02-03T11:25:02Z</time>
      </trkpt>
      <trkpt lat="48.31201" lon="2.63345">
        <ele>136.7</ele>
        <time>2013-02-03T11:25:05Z</time>
      </trkpt>
      <trkpt lat="48.31208" lon="2.63284">
        <ele>135.8</ele>
        <time>2013-02-03T11:25:12Z</time>
      </trkpt>
      <trkpt lat="48.31217" lon="2.63242">
        <ele>138.7</ele>
        <time>2013-02-03T11:25:19Z</time>
      </trkpt>
      <trkpt lat="48.31219" lon="2.63202">
        <ele>137</ele>
        <time>2013-02-03T11:25:25Z</time>
      </trkpt>
      <trkpt lat="48.31233" lon="2.63154">
        <ele>128.9</ele>
        <time>2013-02-03T11:25:32Z</time>
      </trkpt>
      <trkpt lat="48.31244" lon="2.63112">
        <ele>128.9</ele>
        <time>2013-02-03T11:25:37Z</time>
      </trkpt>
      <trkpt lat="48.3125" lon="2.6306">
        <ele>133.2</ele>
        <time>2013-02-03T11:25:43Z</time>
      </trkpt>
      <trkpt lat="48.31243" lon="2.6302">
        <ele>137</ele>
        <time>2013-02-03T11:25:49Z</time>
      </trkpt>
      <trkpt lat="48.31242" lon="2.62983">
        <ele>131.5</ele>
        <time>2013-02-03T11:25:54Z</time>
      </trkpt>
      <trkpt lat="48.31245" lon="2.62951">
        <ele>134.3</ele>
        <time>2013-02-03T11:25:59Z</time>
      </trkpt>
      <trkpt lat="48.31258" lon="2.62911">
        <ele>136.2</ele>
        <time>2013-02-03T11:26:06Z</time>
      </trkpt>
      <trkpt lat="48.31261" lon="2.62862">
        <ele>136.9</ele>
        <time>2013-02-03T11:26:12Z</time>
      </trkpt>
      <trkpt lat="48.3126" lon="2.62799">
        <ele>135.3</ele>
        <time>2013-02-03T11:26:18Z</time>
      </trkpt>
      <trkpt lat="48.31258" lon="2.62732">
        <ele>136.1</ele>
        <time>2013-02-03T11:26:24Z</time>
      </trkpt>
      <trkpt lat="48.31253" lon="2.62706">
        <ele>136.3</ele>
        <time>2013-02-03T11:26:30Z</time>
      </trkpt>
      <trkpt lat="48.31246" lon="2.62661">
        <ele>135.2</ele>
        <time>2013-02-03T11:26:38Z</time>
      </trkpt>
      <trkpt lat="48.31239" lon="2.6261">
        <ele>132.4</ele>
        <time>2013-02-03T11:26:45Z</time>
      </trkpt>
      <trkpt lat="48.3124" lon="2.62576">
        <ele>133.5</ele>
        <time>2013-02-03T11:26:51Z</time>
      </trkpt>
      <trkpt lat="48.31261" lon="2.62573">
        <ele>132.8</ele>
        <time>2013-02-03T11:26:57Z</time>
      </trkpt>
      <trkpt lat="48.31281" lon="2.62574">
        <ele>137.7</ele>
        <time>2013-02-03T11:27:02Z</time>
      </trkpt>
      <trkpt lat="48.31298" lon="2.62571">
        <ele>142.5</ele>
        <time>2013-02-03T11:27:10Z</time>
      </trkpt>
      <trkpt lat="48.31315" lon="2.6257">
        <ele>144.4</ele>
        <time>2013-02-03T11:27:21Z</time>
      </trkpt>
      <trkpt lat="48.31331" lon="2.62569">
        <ele>140</ele>
        <time>2013-02-03T11:27:30Z</time>
      </trkpt>
      <trkpt lat="48.31352" lon="2.62567">
        <ele>140.7</ele>
        <time>2013-02-03T11:27:43Z</time>
      </trkpt>
      <trkpt lat="48.3137" lon="2.62567">
        <ele>147.4</ele>
        <time>2013-02-03T11:27:55Z</time>
      </trkpt>
      <trkpt lat="48.3139" lon="2.62562">
        <ele>143.3</ele>
        <time>2013-02-03T11:28:09Z</time>
      </trkpt>
      <trkpt lat="48.31399" lon="2.62543">
        <ele>147.3</ele>
        <time>2013-02-03T11:28:20Z</time>
      </trkpt>
      <trkpt lat="48.31397" lon="2.62526">
        <ele>150.4</ele>
        <time>2013-02-03T11:28:31Z</time>
      </trkpt>
      <trkpt lat="48.31396" lon="2.62504">
        <ele>157.8</ele>
        <time>2013-02-03T11:28:46Z</time>
      </trkpt>
      <trkpt lat="48.3138" lon="2.625">
        <ele>165.9</ele>
        <time>2013-02-03T11:29:03Z</time>
      </trkpt>
      <trkpt lat="48.31362" lon="2.62498">
        <ele>162.6</ele>
        <time>2013-02-03T11:29:16Z</time>
      </trkpt>
      <trkpt lat="48.31349" lon="2.62475">
        <ele>163.9</ele>
        <time>2013-02-03T11:29:26Z</time>
      </trkpt>
      <trkpt lat="48.31348" lon="2.62452">
        <ele>164.5</ele>
        <time>2013-02-03T11:29:36Z</time>
      </trkpt>
      <trkpt lat="48.31359" lon="2.62443">
        <ele>162</ele>
        <time>2013-02-03T11:29:46Z</time>
      </trkpt>
      <trkpt lat="48.31375" lon="2.62428">
        <ele>163.2</ele>
        <time>2013-02-03T11:29:58Z</time>
      </trkpt>
      <trkpt lat="48.31393" lon="2.62413">
        <ele>166.5</ele>
        <time>2013-02-03T11:30:09Z</time>
      </trkpt>
      <trkpt lat="48.31416" lon="2.62404">
        <ele>172.5</ele>
        <time>2013-02-03T11:30:23Z</time>
      </trkpt>
      <trkpt lat="48.31433" lon="2.62382">
        <ele>171.4</ele>
        <time>2013-02-03T11:30:36Z</time>
      </trkpt>
      <trkpt lat="48.31436" lon="2.6237">
        <ele>173.2</ele>
        <time>2013-02-03T11:30:41Z</time>
      </trkpt>
      <trkpt lat="48.31451" lon="2.62355">
        <ele>176.7</ele>
        <time>2013-02-03T11:30:51Z</time>
      </trkpt>
      <trkpt lat="48.31452" lon="2.62323">
        <ele>175.1</ele>
        <time>2013-02-03T11:31:01Z</time>
      </trkpt>
      <trkpt lat="48.31449" lon="2.62293">
        <ele>174.3</ele>
        <time>2013-02-03T11:31:09Z</time>
      </trkpt>
      <trkpt lat="48.31448" lon="2.6226">
        <ele>176.8</ele>
        <time>2013-02-03T11:31:18Z</time>
      </trkpt>
      <trkpt lat="48.31441" lon="2.62218">
        <ele>178.3</ele>
        <time>2013-02-03T11:31:26Z</time>
      </trkpt>
      <trkpt lat="48.31439" lon="2.62182">
        <ele>174.1</ele>
        <time>2013-02-03T11:31:32Z</time>
      </trkpt>
      <trkpt lat="48.31439" lon="2.62146">
        <ele>170.6</ele>
        <time>2013-02-03T11:31:38Z</time>
      </trkpt>
      <trkpt lat="48.31441" lon="2.62111">
        <ele>172.3</ele>
        <time>2013-02-03T11:31:45Z</time>
      </trkpt>
      <trkpt lat="48.31445" lon="2.62072">
        <ele>169.9</ele>
        <time>2013-02-03T11:31:51Z</time>
      </trkpt>
      <trkpt lat="48.31445" lon="2.62043">
        <ele>170.2</ele>
        <time>2013-02-03T11:31:56Z</time>
      </trkpt>
      <trkpt lat="48.3145" lon="2.61985">
        <ele>168.8</ele>
        <time>2013-02-03T11:32:03Z</time>
      </trkpt>
      <trkpt lat="48.31469" lon="2.61967">
        <ele>167.9</ele>
        <time>2013-02-03T11:32:09Z</time>
      </trkpt>
      <trkpt lat="48.31492" lon="2.61952">
        <ele>168.7</ele>
        <time>2013-02-03T11:32:15Z</time>
      </trkpt>
      <trkpt lat="48.31507" lon="2.61925">
        <ele>164.7</ele>
        <time>2013-02-03T11:32:21Z</time>
      </trkpt>
      <trkpt lat="48.31507" lon="2.61895">
        <ele>167.3</ele>
        <time>2013-02-03T11:32:26Z</time>
      </trkpt>
      <trkpt lat="48.315" lon="2.61864">
        <ele>167.8</ele>
        <time>2013-02-03T11:32:32Z</time>
      </trkpt>
      <trkpt lat="48.31474" lon="2.61844">
        <ele>171.4</ele>
        <time>2013-02-03T11:32:38Z</time>
      </trkpt>
      <trkpt lat="48.31443" lon="2.61818">
        <ele>173.4</ele>
        <time>2013-02-03T11:32:44Z</time>
      </trkpt>
      <trkpt lat="48.3141" lon="2.61785">
        <ele>172.2</ele>
        <time>2013-02-03T11:32:50Z</time>
      </trkpt>
      <trkpt lat="48.31393" lon="2.61772">
        <ele>171.6</ele>
        <time>2013-02-03T11:32:53Z</time>
      </trkpt>
      <trkpt lat="48.31371" lon="2.61751">
        <ele>173.4</ele>
        <time>2013-02-03T11:32:58Z</time>
      </trkpt>
      <trkpt lat="48.31343" lon="2.61722">
        <ele>170.9</ele>
        <time>2013-02-03T11:33:05Z</time>
      </trkpt>
      <trkpt lat="48.31322" lon="2.61695">
        <ele>171.1</ele>
        <time>2013-02-03T11:33:10Z</time>
      </trkpt>
      <trkpt lat="48.31293" lon="2.61671">
        <ele>168.7</ele>
        <time>2013-02-03T11:33:16Z</time>
      </trkpt>
      <trkpt lat="48.31261" lon="2.61651">
        <ele>166.5</ele>
        <time>2013-02-03T11:33:22Z</time>
      </trkpt>
      <trkpt lat="48.31234" lon="2.6165">
        <ele>164.3</ele>
        <time>2013-02-03T11:33:28Z</time>
      </trkpt>
      <trkpt lat="48.31218" lon="2.61673">
        <ele>164.5</ele>
        <time>2013-02-03T11:33:32Z</time>
      </trkpt>
      <trkpt lat="48.31225" lon="2.61726">
        <ele>158.6</ele>
        <time>2013-02-03T11:33:38Z</time>
      </trkpt>
      <trkpt lat="48.31212" lon="2.61778">
        <ele>156.2</ele>
        <time>2013-02-03T11:33:43Z</time>
      </trkpt>
      <trkpt lat="48.31187" lon="2.61831">
        <ele>151.1</ele>
        <time>2013-02-03T11:33:48Z</time>
      </trkpt>
      <trkpt lat="48.3118" lon="2.61908">
        <ele>145.9</ele>
        <time>2013-02-03T11:33:54Z</time>
      </trkpt>
      <trkpt lat="48.31194" lon="2.6198">
        <ele>145.6</ele>
        <time>2013-02-03T11:34:00Z</time>
      </trkpt>
      <trkpt lat="48.31211" lon="2.62036">
        <ele>144</ele>
        <time>2013-02-03T11:34:06Z</time>
      </trkpt>
      <trkpt lat="48.31213" lon="2.62062">
        <ele>142.7</ele>
        <time>2013-02-03T11:34:09Z</time>
      </trkpt>
      <trkpt lat="48.31213" lon="2.62112">
        <ele>139.7</ele>
        <time>2013-02-03T11:34:14Z</time>
      </trkpt>
      <trkpt lat="48.31208" lon="2.62145">
        <ele>137.9</ele>
        <time>2013-02-03T11:34:17Z</time>
      </trkpt>
      <trkpt lat="48.31201" lon="2.62176">
        <ele>136.4</ele>
        <time>2013-02-03T11:34:20Z</time>
      </trkpt>
      <trkpt lat="48.31177" lon="2.6222">
        <ele>134.5</ele>
        <time>2013-02-03T11:34:25Z</time>
      </trkpt>
      <trkpt lat="48.31145" lon="2.62275">
        <ele>132.7</ele>
        <time>2013-02-03T11:34:31Z</time>
      </trkpt>
      <trkpt lat="48.31118" lon="2.62332">
        <ele>130.9</ele>
        <time>2013-02-03T11:34:37Z</time>
      </trkpt>
      <trkpt lat="48.31109" lon="2.62361">
        <ele>130.3</ele>
        <time>2013-02-03T11:34:40Z</time>
      </trkpt>
      <trkpt lat="48.31092" lon="2.62408">
        <ele>129.4</ele>
        <time>2013-02-03T11:34:45Z</time>
      </trkpt>
      <trkpt lat="48.31087" lon="2.62437">
        <ele>128.3</ele>
        <time>2013-02-03T11:34:48Z</time>
      </trkpt>
      <trkpt lat="48.31084" lon="2.62465">
        <ele>127.2</ele>
        <time>2013-02-03T11:34:51Z</time>
      </trkpt>
      <trkpt lat="48.31066" lon="2.6248">
        <ele>127.4</ele>
        <time>2013-02-03T11:34:57Z</time>
      </trkpt>
      <trkpt lat="48.31053" lon="2.62466">
        <ele>127.8</ele>
        <time>2013-02-03T11:35:00Z</time>
      </trkpt>
      <trkpt lat="48.31039" lon="2.62439">
        <ele>130.3</ele>
        <time>2013-02-03T11:35:05Z</time>
      </trkpt>
      <trkpt lat="48.31036" lon="2.624">
        <ele>132.4</ele>
        <time>2013-02-03T11:35:10Z</time>
      </trkpt>
      <trkpt lat="48.31031" lon="2.62365">
        <ele>131.8</ele>
        <time>2013-02-03T11:35:15Z</time>
      </trkpt>
      <trkpt lat="48.31022" lon="2.62326">
        <ele>133.1</ele>
        <time>2013-02-03T11:35:21Z</time>
      </trkpt>
      <trkpt lat="48.31011" lon="2.62291">
        <ele>133.3</ele>
        <time>2013-02-03T11:35:27Z</time>
      </trkpt>
      <trkpt lat="48.31003" lon="2.62255">
        <ele>133.7</ele>
        <time>2013-02-03T11:35:32Z</time>
      </trkpt>
      <trkpt lat="48.30993" lon="2.6221">
        <ele>134</ele>
        <time>2013-02-03T11:35:39Z</time>
      </trkpt>
      <trkpt lat="48.30982" lon="2.62182">
        <ele>137</ele>
        <time>2013-02-03T11:35:44Z</time>
      </trkpt>
      <trkpt lat="48.30972" lon="2.62159">
        <ele>143.2</ele>
        <time>2013-02-03T11:35:50Z</time>
      </trkpt>
      <trkpt lat="48.30965" lon="2.62126">
        <ele>144.8</ele>
        <time>2013-02-03T11:35:58Z</time>
      </trkpt>
      <trkpt lat="48.30959" lon="2.62095">
        <ele>146.5</ele>
        <time>2013-02-03T11:36:07Z</time>
      </trkpt>
      <trkpt lat="48.30929" lon="2.62091">
        <ele>152.5</ele>
        <time>2013-02-03T11:36:18Z</time>
      </trkpt>
      <trkpt lat="48.30911" lon="2.62066">
        <ele>151.1</ele>
        <time>2013-02-03T11:36:26Z</time>
      </trkpt>
      <trkpt lat="48.30907" lon="2.62043">
        <ele>150.8</ele>
        <time>2013-02-03T11:36:32Z</time>
      </trkpt>
      <trkpt lat="48.309" lon="2.62013">
        <ele>148.9</ele>
        <time>2013-02-03T11:36:40Z</time>
      </trkpt>
      <trkpt lat="48.30899" lon="2.61984">
        <ele>149.4</ele>
        <time>2013-02-03T11:36:50Z</time>
      </trkpt>
      <trkpt lat="48.30892" lon="2.61964">
        <ele>152.8</ele>
        <time>2013-02-03T11:37:01Z</time>
      </trkpt>
      <trkpt lat="48.30883" lon="2.61935">
        <ele>158.2</ele>
        <time>2013-02-03T11:37:18Z</time>
      </trkpt>
      <trkpt lat="48.30876" lon="2.61919">
        <ele>158.3</ele>
        <time>2013-02-03T11:37:29Z</time>
      </trkpt>
      <trkpt lat="48.30875" lon="2.61904">
        <ele>154.1</ele>
        <time>2013-02-03T11:37:38Z</time>
      </trkpt>
      <trkpt lat="48.30867" lon="2.61868">
        <ele>158</ele>
        <time>2013-02-03T11:37:55Z</time>
      </trkpt>
      <trkpt lat="48.30852" lon="2.61855">
        <ele>157.4</ele>
        <time>2013-02-03T11:38:07Z</time>
      </trkpt>
      <trkpt lat="48.30844" lon="2.61829">
        <ele>162.1</ele>
        <time>2013-02-03T11:38:18Z</time>
      </trkpt>
      <trkpt lat="48.30835" lon="2.61802">
        <ele>165.6</ele>
        <time>2013-02-03T11:38:29Z</time>
      </trkpt>
      <trkpt lat="48.3082" lon="2.61781">
        <ele>172.5</ele>
        <time>2013-02-03T11:38:40Z</time>
      </trkpt>
      <trkpt lat="48.30806" lon="2.61754">
        <ele>169.9</ele>
        <time>2013-02-03T11:38:49Z</time>
      </trkpt>
      <trkpt lat="48.308" lon="2.61724">
        <ele>169</ele>
        <time>2013-02-03T11:38:55Z</time>
      </trkpt>
      <trkpt lat="48.30796" lon="2.61687">
        <ele>165.2</ele>
        <time>2013-02-03T11:39:03Z</time>
      </trkpt>
      <trkpt lat="48.30797" lon="2.61646">
        <ele>167.4</ele>
        <time>2013-02-03T11:39:10Z</time>
      </trkpt>
      <trkpt lat="48.30799" lon="2.61605">
        <ele>164.3</ele>
        <time>2013-02-03T11:39:18Z</time>
      </trkpt>
      <trkpt lat="48.30809" lon="2.61584">
        <ele>166.3</ele>
        <time>2013-02-03T11:39:24Z</time>
      </trkpt>
      <trkpt lat="48.30829" lon="2.61576">
        <ele>161.5</ele>
        <time>2013-02-03T11:39:29Z</time>
      </trkpt>
      <trkpt lat="48.30852" lon="2.61572">
        <ele>161</ele>
        <time>2013-02-03T11:39:36Z</time>
      </trkpt>
      <trkpt lat="48.3087" lon="2.61572">
        <ele>165.6</ele>
        <time>2013-02-03T11:39:41Z</time>
      </trkpt>
      <trkpt lat="48.30889" lon="2.61576">
        <ele>162.4</ele>
        <time>2013-02-03T11:39:50Z</time>
      </trkpt>
      <trkpt lat="48.30922" lon="2.6157">
        <ele>163.2</ele>
        <time>2013-02-03T11:40:00Z</time>
      </trkpt>
      <trkpt lat="48.30938" lon="2.61561">
        <ele>164.1</ele>
        <time>2013-02-03T11:40:06Z</time>
      </trkpt>
      <trkpt lat="48.30956" lon="2.61557">
        <ele>166.4</ele>
        <time>2013-02-03T11:40:15Z</time>
      </trkpt>
      <trkpt lat="48.30979" lon="2.61562">
        <ele>172.3</ele>
        <time>2013-02-03T11:40:24Z</time>
      </trkpt>
      <trkpt lat="48.30989" lon="2.61564">
        <ele>172.4</ele>
        <time>2013-02-03T11:40:27Z</time>
      </trkpt>
      <trkpt lat="48.31004" lon="2.61571">
        <ele>172.3</ele>
        <time>2013-02-03T11:40:32Z</time>
      </trkpt>
      <trkpt lat="48.31023" lon="2.61584">
        <ele>164.7</ele>
        <time>2013-02-03T11:40:38Z</time>
      </trkpt>
      <trkpt lat="48.31048" lon="2.61596">
        <ele>164.1</ele>
        <time>2013-02-03T11:40:45Z</time>
      </trkpt>
      <trkpt lat="48.31064" lon="2.61598">
        <ele>163.3</ele>
        <time>2013-02-03T11:40:50Z</time>
      </trkpt>
      <trkpt lat="48.31063" lon="2.6155">
        <ele>165.8</ele>
        <time>2013-02-03T11:41:00Z</time>
      </trkpt>
      <trkpt lat="48.31066" lon="2.61524">
        <ele>165.8</ele>
        <time>2013-02-03T11:41:05Z</time>
      </trkpt>
      <trkpt lat="48.31043" lon="2.6149">
        <ele>166.3</ele>
        <time>2013-02-03T11:41:11Z</time>
      </trkpt>
      <trkpt lat="48.31" lon="2.6143">
        <ele>163.5</ele>
        <time>2013-02-03T11:41:18Z</time>
      </trkpt>
      <trkpt lat="48.30985" lon="2.61391">
        <ele>166.4</ele>
        <time>2013-02-03T11:41:24Z</time>
      </trkpt>
      <trkpt lat="48.30971" lon="2.61361">
        <ele>164.3</ele>
        <time>2013-02-03T11:41:35Z</time>
      </trkpt>
      <trkpt lat="48.30946" lon="2.6133">
        <ele>155.5</ele>
        <time>2013-02-03T11:41:44Z</time>
      </trkpt>
      <trkpt lat="48.30946" lon="2.6133">
        <ele>155.5</ele>
        <time>2013-02-03T11:41:49Z</time>
      </trkpt>
      <trkpt lat="48.30946" lon="2.6133">
        <ele>155.5</ele>
        <time>2013-02-03T11:41:50Z</time>
      </trkpt>
      <trkpt lat="48.30968" lon="2.61344">
        <ele>150.5</ele>
        <time>2013-02-03T11:41:57Z</time>
      </trkpt>
      <trkpt lat="48.30971" lon="2.6135">
        <ele>149</ele>
        <time>2013-02-03T11:42:00Z</time>
      </trkpt>
      <trkpt lat="48.3098" lon="2.6134">
        <ele>148.5</ele>
        <time>2013-02-03T11:42:12Z</time>
      </trkpt>
      <trkpt lat="48.31008" lon="2.61331">
        <ele>151.2</ele>
        <time>2013-02-03T11:42:27Z</time>
      </trkpt>
      <trkpt lat="48.31023" lon="2.61314">
        <ele>147.3</ele>
        <time>2013-02-03T11:42:37Z</time>
      </trkpt>
      <trkpt lat="48.3103" lon="2.61312">
        <ele>151</ele>
        <time>2013-02-03T11:42:46Z</time>
      </trkpt>
      <trkpt lat="48.31057" lon="2.61322">
        <ele>156.9</ele>
        <time>2013-02-03T11:43:05Z</time>
      </trkpt>
      <trkpt lat="48.31057" lon="2.61343">
        <ele>161.7</ele>
        <time>2013-02-03T11:43:18Z</time>
      </trkpt>
      <trkpt lat="48.31045" lon="2.61371">
        <ele>165.4</ele>
        <time>2013-02-03T11:43:39Z</time>
      </trkpt>
      <trkpt lat="48.31047" lon="2.61393">
        <ele>166.5</ele>
        <time>2013-02-03T11:43:55Z</time>
      </trkpt>
      <trkpt lat="48.31054" lon="2.61418">
        <ele>175.1</ele>
        <time>2013-02-03T11:44:08Z</time>
      </trkpt>
      <trkpt lat="48.31078" lon="2.61426">
        <ele>174</ele>
        <time>2013-02-03T11:44:26Z</time>
      </trkpt>
      <trkpt lat="48.31088" lon="2.61407">
        <ele>170.2</ele>
        <time>2013-02-03T11:44:38Z</time>
      </trkpt>
      <trkpt lat="48.31105" lon="2.61385">
        <ele>169.8</ele>
        <time>2013-02-03T11:44:48Z</time>
      </trkpt>
      <trkpt lat="48.31115" lon="2.61374">
        <ele>166.6</ele>
        <time>2013-02-03T11:44:54Z</time>
      </trkpt>
      <trkpt lat="48.31121" lon="2.61353">
        <ele>164.8</ele>
        <time>2013-02-03T11:45:03Z</time>
      </trkpt>
      <trkpt lat="48.31123" lon="2.61321">
        <ele>150.5</ele>
        <time>2013-02-03T11:45:13Z</time>
      </trkpt>
      <trkpt lat="48.31142" lon="2.6127">
        <ele>156.8</ele>
        <time>2013-02-03T11:45:26Z</time>
      </trkpt>
      <trkpt lat="48.31132" lon="2.61259">
        <ele>157.4</ele>
        <time>2013-02-03T11:45:34Z</time>
      </trkpt>
      <trkpt lat="48.31132" lon="2.61259">
        <ele>157.4</ele>
        <time>2013-02-03T11:45:41Z</time>
      </trkpt>
      <trkpt lat="48.3113" lon="2.61283">
        <ele>159.3</ele>
        <time>2013-02-03T11:45:45Z</time>
      </trkpt>
      <trkpt lat="48.31102" lon="2.61298">
        <ele>144.6</ele>
        <time>2013-02-03T11:45:54Z</time>
      </trkpt>
      <trkpt lat="48.31081" lon="2.61277">
        <ele>149.9</ele>
        <time>2013-02-03T11:46:02Z</time>
      </trkpt>
      <trkpt lat="48.31076" lon="2.61258">
        <ele>153.8</ele>
        <time>2013-02-03T11:46:11Z</time>
      </trkpt>
      <trkpt lat="48.31072" lon="2.61242">
        <ele>142.4</ele>
        <time>2013-02-03T11:46:25Z</time>
      </trkpt>
      <trkpt lat="48.31068" lon="2.61222">
        <ele>144.8</ele>
        <time>2013-02-03T11:46:39Z</time>
      </trkpt>
      <trkpt lat="48.3107" lon="2.61195">
        <ele>156.9</ele>
        <time>2013-02-03T11:46:59Z</time>
      </trkpt>
      <trkpt lat="48.31071" lon="2.61171">
        <ele>157.6</ele>
        <time>2013-02-03T11:47:12Z</time>
      </trkpt>
      <trkpt lat="48.31057" lon="2.61154">
        <ele>160.5</ele>
        <time>2013-02-03T11:47:27Z</time>
      </trkpt>
      <trkpt lat="48.31042" lon="2.61146">
        <ele>161.3</ele>
        <time>2013-02-03T11:47:33Z</time>
      </trkpt>
      <trkpt lat="48.31014" lon="2.61144">
        <ele>159</ele>
        <time>2013-02-03T11:47:39Z</time>
      </trkpt>
      <trkpt lat="48.31007" lon="2.61136">
        <ele>164.8</ele>
        <time>2013-02-03T11:47:44Z</time>
      </trkpt>
      <trkpt lat="48.30994" lon="2.6111">
        <ele>168.2</ele>
        <time>2013-02-03T11:48:03Z</time>
      </trkpt>
      <trkpt lat="48.30994" lon="2.61087">
        <ele>165.3</ele>
        <time>2013-02-03T11:48:15Z</time>
      </trkpt>
      <trkpt lat="48.30996" lon="2.61066">
        <ele>163.3</ele>
        <time>2013-02-03T11:48:27Z</time>
      </trkpt>
      <trkpt lat="48.30978" lon="2.61051">
        <ele>165.2</ele>
        <time>2013-02-03T11:48:40Z</time>
      </trkpt>
      <trkpt lat="48.30964" lon="2.61045">
        <ele>167.8</ele>
        <time>2013-02-03T11:48:48Z</time>
      </trkpt>
      <trkpt lat="48.30951" lon="2.61036">
        <ele>167.3</ele>
        <time>2013-02-03T11:49:02Z</time>
      </trkpt>
      <trkpt lat="48.30922" lon="2.61052">
        <ele>169.7</ele>
        <time>2013-02-03T11:49:19Z</time>
      </trkpt>
      <trkpt lat="48.30911" lon="2.6101">
        <ele>160.8</ele>
        <time>2013-02-03T11:49:37Z</time>
      </trkpt>
      <trkpt lat="48.30897" lon="2.61035">
        <ele>162.8</ele>
        <time>2013-02-03T11:49:48Z</time>
      </trkpt>
      <trkpt lat="48.3087" lon="2.61061">
        <ele>156.4</ele>
        <time>2013-02-03T11:49:59Z</time>
      </trkpt>
      <trkpt lat="48.30859" lon="2.61089">
        <ele>153.7</ele>
        <time>2013-02-03T11:50:05Z</time>
      </trkpt>
      <trkpt lat="48.30876" lon="2.61123">
        <ele>154.5</ele>
        <time>2013-02-03T11:50:14Z</time>
      </trkpt>
      <trkpt lat="48.30878" lon="2.61158">
        <ele>162</ele>
        <time>2013-02-03T11:50:21Z</time>
      </trkpt>
      <trkpt lat="48.30858" lon="2.61161">
        <ele>155.9</ele>
        <time>2013-02-03T11:50:29Z</time>
      </trkpt>
      <trkpt lat="48.30845" lon="2.6116">
        <ele>142.4</ele>
        <time>2013-02-03T11:50:37Z</time>
      </trkpt>
      <trkpt lat="48.30833" lon="2.61164">
        <ele>134.6</ele>
        <time>2013-02-03T11:50:47Z</time>
      </trkpt>
      <trkpt lat="48.30809" lon="2.61224">
        <ele>138.9</ele>
        <time>2013-02-03T11:50:55Z</time>
      </trkpt>
      <trkpt lat="48.30785" lon="2.6122">
        <ele>140.9</ele>
        <time>2013-02-03T11:51:02Z</time>
      </trkpt>
      <trkpt lat="48.30788" lon="2.61198">
        <ele>129.1</ele>
        <time>2013-02-03T11:51:11Z</time>
      </trkpt>
      <trkpt lat="48.3079" lon="2.61177">
        <ele>126.7</ele>
        <time>2013-02-03T11:51:23Z</time>
      </trkpt>
      <trkpt lat="48.30793" lon="2.61158">
        <ele>133.9</ele>
        <time>2013-02-03T11:51:41Z</time>
      </trkpt>
      <trkpt lat="48.30802" lon="2.6113">
        <ele>135</ele>
        <time>2013-02-03T11:52:05Z</time>
      </trkpt>
      <trkpt lat="48.30809" lon="2.61108">
        <ele>129.2</ele>
        <time>2013-02-03T11:52:25Z</time>
      </trkpt>
      <trkpt lat="48.30815" lon="2.61088">
        <ele>132.3</ele>
        <time>2013-02-03T11:52:35Z</time>
      </trkpt>
      <trkpt lat="48.30825" lon="2.61073">
        <ele>143.3</ele>
        <time>2013-02-03T11:52:48Z</time>
      </trkpt>
      <trkpt lat="48.30835" lon="2.61064">
        <ele>143.2</ele>
        <time>2013-02-03T11:53:04Z</time>
      </trkpt>
      <trkpt lat="48.30815" lon="2.6103">
        <ele>150.7</ele>
        <time>2013-02-03T11:53:51Z</time>
      </trkpt>
      <trkpt lat="48.30816" lon="2.60992">
        <ele>144.9</ele>
        <time>2013-02-03T11:54:22Z</time>
      </trkpt>
      <trkpt lat="48.30814" lon="2.60971">
        <ele>154.4</ele>
        <time>2013-02-03T11:54:37Z</time>
      </trkpt>
      <trkpt lat="48.30814" lon="2.60971">
        <ele>154.4</ele>
        <time>2013-02-03T11:54:44Z</time>
      </trkpt>
      <trkpt lat="48.308" lon="2.60959">
        <ele>164.2</ele>
        <time>2013-02-03T11:54:55Z</time>
      </trkpt>
      <trkpt lat="48.30785" lon="2.60954">
        <ele>166.7</ele>
        <time>2013-02-03T11:55:02Z</time>
      </trkpt>
      <trkpt lat="48.30759" lon="2.60948">
        <ele>166.6</ele>
        <time>2013-02-03T11:55:12Z</time>
      </trkpt>
      <trkpt lat="48.30745" lon="2.6095">
        <ele>170.2</ele>
        <time>2013-02-03T11:55:16Z</time>
      </trkpt>
      <trkpt lat="48.30735" lon="2.60966">
        <ele>163.7</ele>
        <time>2013-02-03T11:55:22Z</time>
      </trkpt>
      <trkpt lat="48.30716" lon="2.60982">
        <ele>157.9</ele>
        <time>2013-02-03T11:55:28Z</time>
      </trkpt>
      <trkpt lat="48.30704" lon="2.6103">
        <ele>148.9</ele>
        <time>2013-02-03T11:55:33Z</time>
      </trkpt>
      <trkpt lat="48.30692" lon="2.61084">
        <ele>143.9</ele>
        <time>2013-02-03T11:55:38Z</time>
      </trkpt>
      <trkpt lat="48.30678" lon="2.61154">
        <ele>136.5</ele>
        <time>2013-02-03T11:55:44Z</time>
      </trkpt>
      <trkpt lat="48.30654" lon="2.6121">
        <ele>134.7</ele>
        <time>2013-02-03T11:55:50Z</time>
      </trkpt>
      <trkpt lat="48.30654" lon="2.61225">
        <ele>138.1</ele>
        <time>2013-02-03T11:55:56Z</time>
      </trkpt>
      <trkpt lat="48.3065" lon="2.61238">
        <ele>137.1</ele>
        <time>2013-02-03T11:56:08Z</time>
      </trkpt>
      <trkpt lat="48.30562" lon="2.61226">
        <ele>127.9</ele>
        <time>2013-02-03T11:56:27Z</time>
      </trkpt>
      <trkpt lat="48.30523" lon="2.61216">
        <ele>124.8</ele>
        <time>2013-02-03T11:56:32Z</time>
      </trkpt>
      <trkpt lat="48.30488" lon="2.6121">
        <ele>122.7</ele>
        <time>2013-02-03T11:56:38Z</time>
      </trkpt>
      <trkpt lat="48.30464" lon="2.61198">
        <ele>122.7</ele>
        <time>2013-02-03T11:56:45Z</time>
      </trkpt>
      <trkpt lat="48.30471" lon="2.61176">
        <ele>125.1</ele>
        <time>2013-02-03T11:56:54Z</time>
      </trkpt>
      <trkpt lat="48.30485" lon="2.61156">
        <ele>122.9</ele>
        <time>2013-02-03T11:57:06Z</time>
      </trkpt>
      <trkpt lat="48.30492" lon="2.61139">
        <ele>121.5</ele>
        <time>2013-02-03T11:57:17Z</time>
      </trkpt>
      <trkpt lat="48.3051" lon="2.61111">
        <ele>121.9</ele>
        <time>2013-02-03T11:57:35Z</time>
      </trkpt>
      <trkpt lat="48.30519" lon="2.61096">
        <ele>124.6</ele>
        <time>2013-02-03T11:57:47Z</time>
      </trkpt>
      <trkpt lat="48.30525" lon="2.61085">
        <ele>127.3</ele>
        <time>2013-02-03T11:57:54Z</time>
      </trkpt>
      <trkpt lat="48.30534" lon="2.61072">
        <ele>128.4</ele>
        <time>2013-02-03T11:58:07Z</time>
      </trkpt>
      <trkpt lat="48.30544" lon="2.61059">
        <ele>128.4</ele>
        <time>2013-02-03T11:58:25Z</time>
      </trkpt>
      <trkpt lat="48.30559" lon="2.61025">
        <ele>142.7</ele>
        <time>2013-02-03T11:59:29Z</time>
      </trkpt>
      <trkpt lat="48.30569" lon="2.61005">
        <ele>143.3</ele>
        <time>2013-02-03T11:59:42Z</time>
      </trkpt>
      <trkpt lat="48.30569" lon="2.61005">
        <ele>143.3</ele>
        <time>2013-02-03T11:59:49Z</time>
      </trkpt>
      <trkpt lat="48.30569" lon="2.61005">
        <ele>143.3</ele>
        <time>2013-02-03T11:59:50Z</time>
      </trkpt>
      <trkpt lat="48.30571" lon="2.60962">
        <ele>141.6</ele>
        <time>2013-02-03T12:00:28Z</time>
      </trkpt>
      <trkpt lat="48.30576" lon="2.6095">
        <ele>137.7</ele>
        <time>2013-02-03T12:00:36Z</time>
      </trkpt>
      <trkpt lat="48.3058" lon="2.60924">
        <ele>143.9</ele>
        <time>2013-02-03T12:00:52Z</time>
      </trkpt>
      <trkpt lat="48.3058" lon="2.60899">
        <ele>149.4</ele>
        <time>2013-02-03T12:01:09Z</time>
      </trkpt>
      <trkpt lat="48.30579" lon="2.60868">
        <ele>151.2</ele>
        <time>2013-02-03T12:01:26Z</time>
      </trkpt>
      <trkpt lat="48.30582" lon="2.60843">
        <ele>153.6</ele>
        <time>2013-02-03T12:01:36Z</time>
      </trkpt>
      <trkpt lat="48.30587" lon="2.60817">
        <ele>154</ele>
        <time>2013-02-03T12:01:47Z</time>
      </trkpt>
      <trkpt lat="48.30604" lon="2.60799">
        <ele>152.6</ele>
        <time>2013-02-03T12:01:59Z</time>
      </trkpt>
      <trkpt lat="48.306" lon="2.60776">
        <ele>148.7</ele>
        <time>2013-02-03T12:02:08Z</time>
      </trkpt>
      <trkpt lat="48.30587" lon="2.60741">
        <ele>141.5</ele>
        <time>2013-02-03T12:02:17Z</time>
      </trkpt>
      <trkpt lat="48.30585" lon="2.60704">
        <ele>144.1</ele>
        <time>2013-02-03T12:02:25Z</time>
      </trkpt>
      <trkpt lat="48.30602" lon="2.60686">
        <ele>149.2</ele>
        <time>2013-02-03T12:02:34Z</time>
      </trkpt>
      <trkpt lat="48.30611" lon="2.60673">
        <ele>151.7</ele>
        <time>2013-02-03T12:02:40Z</time>
      </trkpt>
      <trkpt lat="48.30626" lon="2.60658">
        <ele>152.6</ele>
        <time>2013-02-03T12:02:49Z</time>
      </trkpt>
      <trkpt lat="48.30637" lon="2.6065">
        <ele>150.9</ele>
        <time>2013-02-03T12:02:54Z</time>
      </trkpt>
      <trkpt lat="48.30646" lon="2.60646">
        <ele>150.9</ele>
        <time>2013-02-03T12:02:59Z</time>
      </trkpt>
      <trkpt lat="48.30657" lon="2.60644">
        <ele>154.2</ele>
        <time>2013-02-03T12:03:06Z</time>
      </trkpt>
      <trkpt lat="48.30666" lon="2.60642">
        <ele>155</ele>
        <time>2013-02-03T12:03:12Z</time>
      </trkpt>
      <trkpt lat="48.30675" lon="2.60638">
        <ele>153.1</ele>
        <time>2013-02-03T12:03:23Z</time>
      </trkpt>
      <trkpt lat="48.3069" lon="2.6063">
        <ele>158.8</ele>
        <time>2013-02-03T12:03:38Z</time>
      </trkpt>
      <trkpt lat="48.30699" lon="2.60626">
        <ele>160.2</ele>
        <time>2013-02-03T12:03:48Z</time>
      </trkpt>
      <trkpt lat="48.30709" lon="2.60615">
        <ele>163.5</ele>
        <time>2013-02-03T12:04:00Z</time>
      </trkpt>
      <trkpt lat="48.30731" lon="2.60599">
        <ele>164.9</ele>
        <time>2013-02-03T12:04:19Z</time>
      </trkpt>
      <trkpt lat="48.30742" lon="2.6059">
        <ele>166.5</ele>
        <time>2013-02-03T12:04:28Z</time>
      </trkpt>
      <trkpt lat="48.30756" lon="2.60581">
        <ele>165.6</ele>
        <time>2013-02-03T12:04:38Z</time>
      </trkpt>
      <trkpt lat="48.3077" lon="2.60571">
        <ele>165.9</ele>
        <time>2013-02-03T12:04:49Z</time>
      </trkpt>
      <trkpt lat="48.30788" lon="2.60566">
        <ele>164.8</ele>
        <time>2013-02-03T12:05:00Z</time>
      </trkpt>
      <trkpt lat="48.308" lon="2.60558">
        <ele>163.7</ele>
        <time>2013-02-03T12:05:09Z</time>
      </trkpt>
      <trkpt lat="48.30817" lon="2.60532">
        <ele>165.2</ele>
        <time>2013-02-03T12:05:25Z</time>
      </trkpt>
      <trkpt lat="48.3081" lon="2.60509">
        <ele>165.2</ele>
        <time>2013-02-03T12:05:35Z</time>
      </trkpt>
      <trkpt lat="48.30805" lon="2.60486">
        <ele>167.6</ele>
        <time>2013-02-03T12:05:41Z</time>
      </trkpt>
      <trkpt lat="48.30771" lon="2.60444">
        <ele>165.1</ele>
        <time>2013-02-03T12:05:49Z</time>
      </trkpt>
      <trkpt lat="48.30762" lon="2.60423">
        <ele>163</ele>
        <time>2013-02-03T12:05:50Z</time>
      </trkpt>
      <trkpt lat="48.3075" lon="2.604">
        <ele>162.9</ele>
        <time>2013-02-03T12:05:53Z</time>
      </trkpt>
      <trkpt lat="48.30744" lon="2.60376">
        <ele>162</ele>
        <time>2013-02-03T12:05:56Z</time>
      </trkpt>
      <trkpt lat="48.30738" lon="2.60324">
        <ele>157.8</ele>
        <time>2013-02-03T12:06:01Z</time>
      </trkpt>
      <trkpt lat="48.30734" lon="2.60276">
        <ele>157.8</ele>
        <time>2013-02-03T12:06:06Z</time>
      </trkpt>
      <trkpt lat="48.30732" lon="2.60218">
        <ele>153.1</ele>
        <time>2013-02-03T12:06:12Z</time>
      </trkpt>
      <trkpt lat="48.30724" lon="2.60188">
        <ele>149.8</ele>
        <time>2013-02-03T12:06:16Z</time>
      </trkpt>
      <trkpt lat="48.30707" lon="2.60152">
        <ele>148.8</ele>
        <time>2013-02-03T12:06:22Z</time>
      </trkpt>
      <trkpt lat="48.3069" lon="2.60132">
        <ele>142.9</ele>
        <time>2013-02-03T12:06:28Z</time>
      </trkpt>
      <trkpt lat="48.30672" lon="2.60109">
        <ele>143.1</ele>
        <time>2013-02-03T12:06:33Z</time>
      </trkpt>
      <trkpt lat="48.30653" lon="2.60088">
        <ele>142.7</ele>
        <time>2013-02-03T12:06:39Z</time>
      </trkpt>
      <trkpt lat="48.30631" lon="2.6008">
        <ele>139.7</ele>
        <time>2013-02-03T12:06:46Z</time>
      </trkpt>
      <trkpt lat="48.30621" lon="2.60079">
        <ele>141.8</ele>
        <time>2013-02-03T12:06:56Z</time>
      </trkpt>
      <trkpt lat="48.306" lon="2.60064">
        <ele>143.7</ele>
        <time>2013-02-03T12:07:11Z</time>
      </trkpt>
      <trkpt lat="48.30595" lon="2.6006">
        <ele>143.2</ele>
        <time>2013-02-03T12:07:14Z</time>
      </trkpt>
      <trkpt lat="48.30584" lon="2.60052">
        <ele>135.1</ele>
        <time>2013-02-03T12:07:19Z</time>
      </trkpt>
      <trkpt lat="48.30563" lon="2.60032">
        <ele>135.1</ele>
        <time>2013-02-03T12:07:26Z</time>
      </trkpt>
      <trkpt lat="48.30548" lon="2.60018">
        <ele>134.7</ele>
        <time>2013-02-03T12:07:34Z</time>
      </trkpt>
      <trkpt lat="48.30535" lon="2.60001">
        <ele>123</ele>
        <time>2013-02-03T12:07:41Z</time>
      </trkpt>
      <trkpt lat="48.30517" lon="2.59973">
        <ele>113</ele>
        <time>2013-02-03T12:07:50Z</time>
      </trkpt>
      <trkpt lat="48.30493" lon="2.59972">
        <ele>115.3</ele>
        <time>2013-02-03T12:08:00Z</time>
      </trkpt>
      <trkpt lat="48.30481" lon="2.59977">
        <ele>116.2</ele>
        <time>2013-02-03T12:08:06Z</time>
      </trkpt>
      <trkpt lat="48.30468" lon="2.5995">
        <ele>119.7</ele>
        <time>2013-02-03T12:08:16Z</time>
      </trkpt>
      <trkpt lat="48.30461" lon="2.59927">
        <ele>120.4</ele>
        <time>2013-02-03T12:08:24Z</time>
      </trkpt>
      <trkpt lat="48.30471" lon="2.59915">
        <ele>120.8</ele>
        <time>2013-02-03T12:08:35Z</time>
      </trkpt>
      <trkpt lat="48.30506" lon="2.59893">
        <ele>122.1</ele>
        <time>2013-02-03T12:08:50Z</time>
      </trkpt>
      <trkpt lat="48.30527" lon="2.59879">
        <ele>121.9</ele>
        <time>2013-02-03T12:08:58Z</time>
      </trkpt>
      <trkpt lat="48.30536" lon="2.59871">
        <ele>122.4</ele>
        <time>2013-02-03T12:09:02Z</time>
      </trkpt>
      <trkpt lat="48.30554" lon="2.59858">
        <ele>122.7</ele>
        <time>2013-02-03T12:09:10Z</time>
      </trkpt>
      <trkpt lat="48.3057" lon="2.5984">
        <ele>120.6</ele>
        <time>2013-02-03T12:09:21Z</time>
      </trkpt>
      <trkpt lat="48.3058" lon="2.59829">
        <ele>122.2</ele>
        <time>2013-02-03T12:09:31Z</time>
      </trkpt>
      <trkpt lat="48.30573" lon="2.5982">
        <ele>124.1</ele>
        <time>2013-02-03T12:09:42Z</time>
      </trkpt>
      <trkpt lat="48.30578" lon="2.59806">
        <ele>124.4</ele>
        <time>2013-02-03T12:09:47Z</time>
      </trkpt>
      <trkpt lat="48.30584" lon="2.59787">
        <ele>120.6</ele>
        <time>2013-02-03T12:09:55Z</time>
      </trkpt>
      <trkpt lat="48.30589" lon="2.59761">
        <ele>116.8</ele>
        <time>2013-02-03T12:10:09Z</time>
      </trkpt>
      <trkpt lat="48.3059" lon="2.59724">
        <ele>114.5</ele>
        <time>2013-02-03T12:10:26Z</time>
      </trkpt>
      <trkpt lat="48.30596" lon="2.59695">
        <ele>118.4</ele>
        <time>2013-02-03T12:10:36Z</time>
      </trkpt>
      <trkpt lat="48.30601" lon="2.59676">
        <ele>123.9</ele>
        <time>2013-02-03T12:10:42Z</time>
      </trkpt>
      <trkpt lat="48.30607" lon="2.59652">
        <ele>124.6</ele>
        <time>2013-02-03T12:10:51Z</time>
      </trkpt>
      <trkpt lat="48.30609" lon="2.59619">
        <ele>138.8</ele>
        <time>2013-02-03T12:11:02Z</time>
      </trkpt>
      <trkpt lat="48.30615" lon="2.596">
        <ele>140.2</ele>
        <time>2013-02-03T12:11:12Z</time>
      </trkpt>
      <trkpt lat="48.30634" lon="2.59582">
        <ele>141.1</ele>
        <time>2013-02-03T12:11:27Z</time>
      </trkpt>
      <trkpt lat="48.30641" lon="2.59558">
        <ele>143.7</ele>
        <time>2013-02-03T12:11:41Z</time>
      </trkpt>
      <trkpt lat="48.30648" lon="2.5953">
        <ele>144.6</ele>
        <time>2013-02-03T12:11:57Z</time>
      </trkpt>
      <trkpt lat="48.30657" lon="2.59503">
        <ele>152.1</ele>
        <time>2013-02-03T12:12:13Z</time>
      </trkpt>
      <trkpt lat="48.30662" lon="2.5949">
        <ele>152.4</ele>
        <time>2013-02-03T12:12:22Z</time>
      </trkpt>
      <trkpt lat="48.30668" lon="2.59472">
        <ele>155.3</ele>
        <time>2013-02-03T12:12:33Z</time>
      </trkpt>
      <trkpt lat="48.3068" lon="2.59452">
        <ele>154.9</ele>
        <time>2013-02-03T12:12:50Z</time>
      </trkpt>
      <trkpt lat="48.30685" lon="2.59426">
        <ele>156</ele>
        <time>2013-02-03T12:13:07Z</time>
      </trkpt>
      <trkpt lat="48.3069" lon="2.59405">
        <ele>156.8</ele>
        <time>2013-02-03T12:13:18Z</time>
      </trkpt>
      <trkpt lat="48.30684" lon="2.59364">
        <ele>159.1</ele>
        <time>2013-02-03T12:13:32Z</time>
      </trkpt>
      <trkpt lat="48.30663" lon="2.59345">
        <ele>157.2</ele>
        <time>2013-02-03T12:13:41Z</time>
      </trkpt>
      <trkpt lat="48.30634" lon="2.59343">
        <ele>155.3</ele>
        <time>2013-02-03T12:13:48Z</time>
      </trkpt>
      <trkpt lat="48.30621" lon="2.59328">
        <ele>155.8</ele>
        <time>2013-02-03T12:13:54Z</time>
      </trkpt>
      <trkpt lat="48.30618" lon="2.59297">
        <ele>156.2</ele>
        <time>2013-02-03T12:14:02Z</time>
      </trkpt>
      <trkpt lat="48.30618" lon="2.59281">
        <ele>161.6</ele>
        <time>2013-02-03T12:14:06Z</time>
      </trkpt>
      <trkpt lat="48.30615" lon="2.59253">
        <ele>159.5</ele>
        <time>2013-02-03T12:14:14Z</time>
      </trkpt>
      <trkpt lat="48.30606" lon="2.59228">
        <ele>160.2</ele>
        <time>2013-02-03T12:14:20Z</time>
      </trkpt>
      <trkpt lat="48.30601" lon="2.59213">
        <ele>159.1</ele>
        <time>2013-02-03T12:14:23Z</time>
      </trkpt>
      <trkpt lat="48.30596" lon="2.59184">
        <ele>159.4</ele>
        <time>2013-02-03T12:14:29Z</time>
      </trkpt>
      <trkpt lat="48.30589" lon="2.59157">
        <ele>158.1</ele>
        <time>2013-02-03T12:14:35Z</time>
      </trkpt>
      <trkpt lat="48.3059" lon="2.59127">
        <ele>159.5</ele>
        <time>2013-02-03T12:14:42Z</time>
      </trkpt>
      <trkpt lat="48.30611" lon="2.59103">
        <ele>161</ele>
        <time>2013-02-03T12:14:51Z</time>
      </trkpt>
      <trkpt lat="48.30621" lon="2.5909">
        <ele>161</ele>
        <time>2013-02-03T12:14:56Z</time>
      </trkpt>
      <trkpt lat="48.30632" lon="2.59061">
        <ele>155</ele>
        <time>2013-02-03T12:15:05Z</time>
      </trkpt>
      <trkpt lat="48.3064" lon="2.59034">
        <ele>146.2</ele>
        <time>2013-02-03T12:15:13Z</time>
      </trkpt>
      <trkpt lat="48.30631" lon="2.59006">
        <ele>145.8</ele>
        <time>2013-02-03T12:15:18Z</time>
      </trkpt>
      <trkpt lat="48.30616" lon="2.58991">
        <ele>146.1</ele>
        <time>2013-02-03T12:15:23Z</time>
      </trkpt>
      <trkpt lat="48.30618" lon="2.58984">
        <ele>147</ele>
        <time>2013-02-03T12:15:29Z</time>
      </trkpt>
      <trkpt lat="48.30643" lon="2.58988">
        <ele>148.2</ele>
        <time>2013-02-03T12:16:01Z</time>
      </trkpt>
      <trkpt lat="48.30647" lon="2.58984">
        <ele>149.6</ele>
        <time>2013-02-03T12:16:05Z</time>
      </trkpt>
      <trkpt lat="48.30651" lon="2.58973">
        <ele>155</ele>
        <time>2013-02-03T12:16:20Z</time>
      </trkpt>
      <trkpt lat="48.3066" lon="2.58936">
        <ele>162.8</ele>
        <time>2013-02-03T12:17:00Z</time>
      </trkpt>
      <trkpt lat="48.30666" lon="2.58917">
        <ele>163.4</ele>
        <time>2013-02-03T12:17:10Z</time>
      </trkpt>
      <trkpt lat="48.3067" lon="2.58887">
        <ele>158.7</ele>
        <time>2013-02-03T12:17:19Z</time>
      </trkpt>
      <trkpt lat="48.30668" lon="2.58839">
        <ele>156.7</ele>
        <time>2013-02-03T12:17:27Z</time>
      </trkpt>
      <trkpt lat="48.30662" lon="2.58827">
        <ele>154.3</ele>
        <time>2013-02-03T12:17:34Z</time>
      </trkpt>
      <trkpt lat="48.30645" lon="2.58817">
        <ele>157.7</ele>
        <time>2013-02-03T12:17:49Z</time>
      </trkpt>
      <trkpt lat="48.30638" lon="2.58805">
        <ele>160.3</ele>
        <time>2013-02-03T12:17:57Z</time>
      </trkpt>
      <trkpt lat="48.30635" lon="2.58799">
        <ele>160.4</ele>
        <time>2013-02-03T12:18:01Z</time>
      </trkpt>
      <trkpt lat="48.30634" lon="2.58795">
        <ele>163.3</ele>
        <time>2013-02-03T12:18:13Z</time>
      </trkpt>
      <trkpt lat="48.30623" lon="2.58756">
        <ele>169.2</ele>
        <time>2013-02-03T12:18:55Z</time>
      </trkpt>
      <trkpt lat="48.30636" lon="2.58718">
        <ele>165.4</ele>
        <time>2013-02-03T12:19:40Z</time>
      </trkpt>
      <trkpt lat="48.30649" lon="2.58709">
        <ele>162.6</ele>
        <time>2013-02-03T12:19:51Z</time>
      </trkpt>
      <trkpt lat="48.3066" lon="2.58691">
        <ele>166.5</ele>
        <time>2013-02-03T12:20:05Z</time>
      </trkpt>
      <trkpt lat="48.30667" lon="2.58654">
        <ele>154.6</ele>
        <time>2013-02-03T12:20:20Z</time>
      </trkpt>
      <trkpt lat="48.30657" lon="2.58641">
        <ele>158.2</ele>
        <time>2013-02-03T12:20:28Z</time>
      </trkpt>
      <trkpt lat="48.3064" lon="2.58632">
        <ele>154.5</ele>
        <time>2013-02-03T12:20:38Z</time>
      </trkpt>
      <trkpt lat="48.3063" lon="2.58616">
        <ele>155.5</ele>
        <time>2013-02-03T12:20:43Z</time>
      </trkpt>
      <trkpt lat="48.30631" lon="2.58615">
        <ele>156.8</ele>
        <time>2013-02-03T12:20:49Z</time>
      </trkpt>
      <trkpt lat="48.30603" lon="2.58617">
        <ele>148.7</ele>
        <time>2013-02-03T12:21:43Z</time>
      </trkpt>
      <trkpt lat="48.30589" lon="2.58625">
        <ele>147.9</ele>
        <time>2013-02-03T12:21:52Z</time>
      </trkpt>
      <trkpt lat="48.30578" lon="2.58641">
        <ele>147.2</ele>
        <time>2013-02-03T12:22:03Z</time>
      </trkpt>
      <trkpt lat="48.30572" lon="2.58671">
        <ele>145.2</ele>
        <time>2013-02-03T12:22:14Z</time>
      </trkpt>
      <trkpt lat="48.3056" lon="2.58689">
        <ele>146.3</ele>
        <time>2013-02-03T12:22:22Z</time>
      </trkpt>
      <trkpt lat="48.30556" lon="2.587">
        <ele>147.5</ele>
        <time>2013-02-03T12:22:27Z</time>
      </trkpt>
      <trkpt lat="48.30558" lon="2.58707">
        <ele>147.2</ele>
        <time>2013-02-03T12:22:31Z</time>
      </trkpt>
      <trkpt lat="48.30555" lon="2.58707">
        <ele>147.8</ele>
        <time>2013-02-03T12:22:37Z</time>
      </trkpt>
      <trkpt lat="48.30555" lon="2.58707">
        <ele>98.5</ele>
        <time>2013-02-03T12:22:52Z</time>
      </trkpt>
      <trkpt lat="48.30555" lon="2.58707">
        <ele>98.5</ele>
        <time>2013-02-03T12:34:21Z</time>
      </trkpt>
      <trkpt lat="48.30555" lon="2.58708">
        <ele>149.6</ele>
        <time>2013-02-03T12:34:22Z</time>
      </trkpt>
      <trkpt lat="48.30543" lon="2.58734">
        <ele>146.2</ele>
        <time>2013-02-03T12:34:59Z</time>
      </trkpt>
      <trkpt lat="48.30537" lon="2.58743">
        <ele>144.1</ele>
        <time>2013-02-03T12:35:02Z</time>
      </trkpt>
      <trkpt lat="48.3053" lon="2.58763">
        <ele>138.4</ele>
        <time>2013-02-03T12:35:11Z</time>
      </trkpt>
      <trkpt lat="48.30529" lon="2.58776">
        <ele>131.9</ele>
        <time>2013-02-03T12:35:20Z</time>
      </trkpt>
      <trkpt lat="48.305" lon="2.58786">
        <ele>133.2</ele>
        <time>2013-02-03T12:35:35Z</time>
      </trkpt>
      <trkpt lat="48.30505" lon="2.58752">
        <ele>131.3</ele>
        <time>2013-02-03T12:35:42Z</time>
      </trkpt>
      <trkpt lat="48.30513" lon="2.58728">
        <ele>132.9</ele>
        <time>2013-02-03T12:35:48Z</time>
      </trkpt>
      <trkpt lat="48.30492" lon="2.58711">
        <ele>132</ele>
        <time>2013-02-03T12:35:54Z</time>
      </trkpt>
      <trkpt lat="48.30473" lon="2.58707">
        <ele>133.9</ele>
        <time>2013-02-03T12:35:59Z</time>
      </trkpt>
      <trkpt lat="48.30473" lon="2.58707">
        <ele>133.9</ele>
        <time>2013-02-03T12:36:05Z</time>
      </trkpt>
      <trkpt lat="48.30483" lon="2.58682">
        <ele>132.9</ele>
        <time>2013-02-03T12:36:08Z</time>
      </trkpt>
      <trkpt lat="48.30486" lon="2.58658">
        <ele>140.1</ele>
        <time>2013-02-03T12:36:15Z</time>
      </trkpt>
      <trkpt lat="48.30485" lon="2.58624">
        <ele>136.4</ele>
        <time>2013-02-03T12:36:25Z</time>
      </trkpt>
      <trkpt lat="48.30493" lon="2.58606">
        <ele>135.7</ele>
        <time>2013-02-03T12:36:32Z</time>
      </trkpt>
      <trkpt lat="48.30498" lon="2.58575">
        <ele>135.8</ele>
        <time>2013-02-03T12:36:41Z</time>
      </trkpt>
      <trkpt lat="48.30518" lon="2.58579">
        <ele>140.6</ele>
        <time>2013-02-03T12:36:47Z</time>
      </trkpt>
      <trkpt lat="48.30532" lon="2.58574">
        <ele>144.2</ele>
        <time>2013-02-03T12:36:54Z</time>
      </trkpt>
      <trkpt lat="48.30562" lon="2.58561">
        <ele>145.3</ele>
        <time>2013-02-03T12:37:05Z</time>
      </trkpt>
      <trkpt lat="48.3056" lon="2.58544">
        <ele>145.2</ele>
        <time>2013-02-03T12:37:10Z</time>
      </trkpt>
      <trkpt lat="48.30565" lon="2.58521">
        <ele>150</ele>
        <time>2013-02-03T12:37:20Z</time>
      </trkpt>
      <trkpt lat="48.30577" lon="2.58504">
        <ele>144.5</ele>
        <time>2013-02-03T12:37:33Z</time>
      </trkpt>
      <trkpt lat="48.3058" lon="2.58476">
        <ele>149.2</ele>
        <time>2013-02-03T12:37:49Z</time>
      </trkpt>
      <trkpt lat="48.30573" lon="2.58449">
        <ele>151.6</ele>
        <time>2013-02-03T12:38:01Z</time>
      </trkpt>
      <trkpt lat="48.30554" lon="2.58445">
        <ele>147.5</ele>
        <time>2013-02-03T12:38:12Z</time>
      </trkpt>
      <trkpt lat="48.30549" lon="2.5844">
        <ele>146.1</ele>
        <time>2013-02-03T12:38:16Z</time>
      </trkpt>
      <trkpt lat="48.30541" lon="2.58443">
        <ele>145.5</ele>
        <time>2013-02-03T12:38:26Z</time>
      </trkpt>
      <trkpt lat="48.3052" lon="2.58522">
        <ele>144.3</ele>
        <time>2013-02-03T12:38:43Z</time>
      </trkpt>
      <trkpt lat="48.30491" lon="2.58529">
        <ele>148.3</ele>
        <time>2013-02-03T12:38:54Z</time>
      </trkpt>
      <trkpt lat="48.30476" lon="2.58563">
        <ele>150.1</ele>
        <time>2013-02-03T12:39:03Z</time>
      </trkpt>
      <trkpt lat="48.30466" lon="2.58579">
        <ele>147.9</ele>
        <time>2013-02-03T12:39:11Z</time>
      </trkpt>
      <trkpt lat="48.30455" lon="2.58595">
        <ele>145.6</ele>
        <time>2013-02-03T12:39:20Z</time>
      </trkpt>
      <trkpt lat="48.30427" lon="2.58608">
        <ele>139.4</ele>
        <time>2013-02-03T12:39:30Z</time>
      </trkpt>
      <trkpt lat="48.30415" lon="2.5865">
        <ele>133.2</ele>
        <time>2013-02-03T12:39:37Z</time>
      </trkpt>
      <trkpt lat="48.30391" lon="2.58696">
        <ele>128.6</ele>
        <time>2013-02-03T12:39:44Z</time>
      </trkpt>
      <trkpt lat="48.30374" lon="2.58694">
        <ele>127</ele>
        <time>2013-02-03T12:39:49Z</time>
      </trkpt>
      <trkpt lat="48.30362" lon="2.5866">
        <ele>134.4</ele>
        <time>2013-02-03T12:39:56Z</time>
      </trkpt>
      <trkpt lat="48.30352" lon="2.58622">
        <ele>134.4</ele>
        <time>2013-02-03T12:40:04Z</time>
      </trkpt>
      <trkpt lat="48.30345" lon="2.58585">
        <ele>139.2</ele>
        <time>2013-02-03T12:40:09Z</time>
      </trkpt>
      <trkpt lat="48.30341" lon="2.58554">
        <ele>150.7</ele>
        <time>2013-02-03T12:40:15Z</time>
      </trkpt>
      <trkpt lat="48.30331" lon="2.58524">
        <ele>150.5</ele>
        <time>2013-02-03T12:40:21Z</time>
      </trkpt>
      <trkpt lat="48.30325" lon="2.58511">
        <ele>149.3</ele>
        <time>2013-02-03T12:40:24Z</time>
      </trkpt>
      <trkpt lat="48.30313" lon="2.58486">
        <ele>142.1</ele>
        <time>2013-02-03T12:40:32Z</time>
      </trkpt>
      <trkpt lat="48.30298" lon="2.58469">
        <ele>137.8</ele>
        <time>2013-02-03T12:40:39Z</time>
      </trkpt>
      <trkpt lat="48.3028" lon="2.58445">
        <ele>133.7</ele>
        <time>2013-02-03T12:40:45Z</time>
      </trkpt>
      <trkpt lat="48.30269" lon="2.58423">
        <ele>134</ele>
        <time>2013-02-03T12:40:51Z</time>
      </trkpt>
      <trkpt lat="48.30254" lon="2.58383">
        <ele>131</ele>
        <time>2013-02-03T12:40:59Z</time>
      </trkpt>
      <trkpt lat="48.30245" lon="2.58359">
        <ele>132.4</ele>
        <time>2013-02-03T12:41:04Z</time>
      </trkpt>
      <trkpt lat="48.30252" lon="2.58346">
        <ele>134.4</ele>
        <time>2013-02-03T12:41:09Z</time>
      </trkpt>
      <trkpt lat="48.30268" lon="2.5835">
        <ele>136.3</ele>
        <time>2013-02-03T12:41:17Z</time>
      </trkpt>
      <trkpt lat="48.30291" lon="2.58363">
        <ele>135.4</ele>
        <time>2013-02-03T12:41:26Z</time>
      </trkpt>
      <trkpt lat="48.30301" lon="2.5837">
        <ele>135</ele>
        <time>2013-02-03T12:41:35Z</time>
      </trkpt>
      <trkpt lat="48.30301" lon="2.5837">
        <ele>135</ele>
        <time>2013-02-03T12:41:43Z</time>
      </trkpt>
      <trkpt lat="48.30318" lon="2.58379">
        <ele>135.8</ele>
        <time>2013-02-03T12:41:59Z</time>
      </trkpt>
      <trkpt lat="48.30347" lon="2.58408">
        <ele>141.5</ele>
        <time>2013-02-03T12:42:14Z</time>
      </trkpt>
      <trkpt lat="48.30364" lon="2.58418">
        <ele>141.6</ele>
        <time>2013-02-03T12:42:22Z</time>
      </trkpt>
      <trkpt lat="48.30375" lon="2.58432">
        <ele>141.8</ele>
        <time>2013-02-03T12:42:29Z</time>
      </trkpt>
      <trkpt lat="48.30387" lon="2.58439">
        <ele>142.2</ele>
        <time>2013-02-03T12:42:36Z</time>
      </trkpt>
      <trkpt lat="48.30404" lon="2.58469">
        <ele>150.5</ele>
        <time>2013-02-03T12:42:49Z</time>
      </trkpt>
      <trkpt lat="48.30418" lon="2.58486">
        <ele>144.8</ele>
        <time>2013-02-03T12:42:54Z</time>
      </trkpt>
      <trkpt lat="48.30427" lon="2.58495">
        <ele>143.1</ele>
        <time>2013-02-03T12:43:00Z</time>
      </trkpt>
      <trkpt lat="48.30428" lon="2.58497">
        <ele>144.9</ele>
        <time>2013-02-03T12:43:01Z</time>
      </trkpt>
      <trkpt lat="48.30431" lon="2.58494">
        <ele>142.8</ele>
        <time>2013-02-03T12:43:07Z</time>
      </trkpt>
      <trkpt lat="48.30438" lon="2.58473">
        <ele>143.6</ele>
        <time>2013-02-03T12:43:22Z</time>
      </trkpt>
      <trkpt lat="48.30456" lon="2.58471">
        <ele>147.8</ele>
        <time>2013-02-03T12:43:31Z</time>
      </trkpt>
      <trkpt lat="48.30467" lon="2.58466">
        <ele>151.4</ele>
        <time>2013-02-03T12:43:43Z</time>
      </trkpt>
      <trkpt lat="48.30462" lon="2.58446">
        <ele>158.3</ele>
        <time>2013-02-03T12:43:56Z</time>
      </trkpt>
      <trkpt lat="48.30465" lon="2.58425">
        <ele>159.8</ele>
        <time>2013-02-03T12:44:08Z</time>
      </trkpt>
      <trkpt lat="48.30454" lon="2.58415">
        <ele>158.5</ele>
        <time>2013-02-03T12:44:16Z</time>
      </trkpt>
      <trkpt lat="48.30431" lon="2.584">
        <ele>158.1</ele>
        <time>2013-02-03T12:44:28Z</time>
      </trkpt>
      <trkpt lat="48.30417" lon="2.58387">
        <ele>157.9</ele>
        <time>2013-02-03T12:44:39Z</time>
      </trkpt>
      <trkpt lat="48.30401" lon="2.5837">
        <ele>156.7</ele>
        <time>2013-02-03T12:44:53Z</time>
      </trkpt>
      <trkpt lat="48.304" lon="2.58347">
        <ele>159.6</ele>
        <time>2013-02-03T12:45:07Z</time>
      </trkpt>
      <trkpt lat="48.30382" lon="2.5833">
        <ele>157.5</ele>
        <time>2013-02-03T12:45:24Z</time>
      </trkpt>
      <trkpt lat="48.30372" lon="2.58347">
        <ele>157.1</ele>
        <time>2013-02-03T12:45:28Z</time>
      </trkpt>
      <trkpt lat="48.30373" lon="2.58347">
        <ele>156.4</ele>
        <time>2013-02-03T12:45:36Z</time>
      </trkpt>
      <trkpt lat="48.30355" lon="2.58313">
        <ele>152.5</ele>
        <time>2013-02-03T12:46:06Z</time>
      </trkpt>
      <trkpt lat="48.30343" lon="2.58285">
        <ele>150.2</ele>
        <time>2013-02-03T12:46:18Z</time>
      </trkpt>
      <trkpt lat="48.30336" lon="2.58265">
        <ele>150</ele>
        <time>2013-02-03T12:46:31Z</time>
      </trkpt>
      <trkpt lat="48.30293" lon="2.58236">
        <ele>148.9</ele>
        <time>2013-02-03T12:46:47Z</time>
      </trkpt>
      <trkpt lat="48.30283" lon="2.58218">
        <ele>151.5</ele>
        <time>2013-02-03T12:46:53Z</time>
      </trkpt>
      <trkpt lat="48.30259" lon="2.58197">
        <ele>150.5</ele>
        <time>2013-02-03T12:47:03Z</time>
      </trkpt>
      <trkpt lat="48.30233" lon="2.58197">
        <ele>150.6</ele>
        <time>2013-02-03T12:47:11Z</time>
      </trkpt>
      <trkpt lat="48.30222" lon="2.58177">
        <ele>152</ele>
        <time>2013-02-03T12:47:18Z</time>
      </trkpt>
      <trkpt lat="48.30214" lon="2.58144">
        <ele>151.5</ele>
        <time>2013-02-03T12:47:28Z</time>
      </trkpt>
      <trkpt lat="48.30219" lon="2.58114">
        <ele>150.4</ele>
        <time>2013-02-03T12:47:38Z</time>
      </trkpt>
      <trkpt lat="48.3022" lon="2.58084">
        <ele>151.8</ele>
        <time>2013-02-03T12:47:49Z</time>
      </trkpt>
      <trkpt lat="48.30213" lon="2.58052">
        <ele>149.6</ele>
        <time>2013-02-03T12:48:01Z</time>
      </trkpt>
      <trkpt lat="48.30205" lon="2.58013">
        <ele>150.9</ele>
        <time>2013-02-03T12:48:12Z</time>
      </trkpt>
      <trkpt lat="48.30201" lon="2.57998">
        <ele>152.6</ele>
        <time>2013-02-03T12:48:19Z</time>
      </trkpt>
      <trkpt lat="48.30198" lon="2.57966">
        <ele>156.1</ele>
        <time>2013-02-03T12:48:31Z</time>
      </trkpt>
      <trkpt lat="48.3019" lon="2.57938">
        <ele>156.3</ele>
        <time>2013-02-03T12:48:39Z</time>
      </trkpt>
      <trkpt lat="48.30186" lon="2.5793">
        <ele>156.3</ele>
        <time>2013-02-03T12:48:42Z</time>
      </trkpt>
      <trkpt lat="48.30176" lon="2.579">
        <ele>159.1</ele>
        <time>2013-02-03T12:48:51Z</time>
      </trkpt>
      <trkpt lat="48.30156" lon="2.57879">
        <ele>161.1</ele>
        <time>2013-02-03T12:49:01Z</time>
      </trkpt>
      <trkpt lat="48.30145" lon="2.57866">
        <ele>161.7</ele>
        <time>2013-02-03T12:49:09Z</time>
      </trkpt>
      <trkpt lat="48.30149" lon="2.57887">
        <ele>156.5</ele>
        <time>2013-02-03T12:49:19Z</time>
      </trkpt>
      <trkpt lat="48.30149" lon="2.57888">
        <ele>157.9</ele>
        <time>2013-02-03T12:49:28Z</time>
      </trkpt>
      <trkpt lat="48.30155" lon="2.57928">
        <ele>144.1</ele>
        <time>2013-02-03T12:50:01Z</time>
      </trkpt>
      <trkpt lat="48.30132" lon="2.57967">
        <ele>134.7</ele>
        <time>2013-02-03T12:50:07Z</time>
      </trkpt>
      <trkpt lat="48.30131" lon="2.5801">
        <ele>131.1</ele>
        <time>2013-02-03T12:50:13Z</time>
      </trkpt>
      <trkpt lat="48.30131" lon="2.5805">
        <ele>130</ele>
        <time>2013-02-03T12:50:20Z</time>
      </trkpt>
      <trkpt lat="48.30119" lon="2.5808">
        <ele>129.7</ele>
        <time>2013-02-03T12:50:26Z</time>
      </trkpt>
      <trkpt lat="48.30085" lon="2.58122">
        <ele>131.6</ele>
        <time>2013-02-03T12:50:32Z</time>
      </trkpt>
      <trkpt lat="48.30067" lon="2.58135">
        <ele>130.3</ele>
        <time>2013-02-03T12:50:38Z</time>
      </trkpt>
      <trkpt lat="48.30049" lon="2.58152">
        <ele>128.7</ele>
        <time>2013-02-03T12:50:48Z</time>
      </trkpt>
      <trkpt lat="48.30036" lon="2.58187">
        <ele>127.6</ele>
        <time>2013-02-03T12:50:58Z</time>
      </trkpt>
      <trkpt lat="48.30039" lon="2.58219">
        <ele>131.1</ele>
        <time>2013-02-03T12:51:01Z</time>
      </trkpt>
      <trkpt lat="48.30028" lon="2.58225">
        <ele>120.3</ele>
        <time>2013-02-03T12:51:12Z</time>
      </trkpt>
      <trkpt lat="48.2999" lon="2.58279">
        <ele>120.6</ele>
        <time>2013-02-03T12:51:20Z</time>
      </trkpt>
      <trkpt lat="48.29969" lon="2.58319">
        <ele>119.3</ele>
        <time>2013-02-03T12:51:25Z</time>
      </trkpt>
      <trkpt lat="48.29955" lon="2.58327">
        <ele>121</ele>
        <time>2013-02-03T12:51:32Z</time>
      </trkpt>
      <trkpt lat="48.29937" lon="2.58318">
        <ele>122.7</ele>
        <time>2013-02-03T12:51:41Z</time>
      </trkpt>
      <trkpt lat="48.29933" lon="2.58281">
        <ele>127.2</ele>
        <time>2013-02-03T12:51:52Z</time>
      </trkpt>
      <trkpt lat="48.2993" lon="2.58265">
        <ele>125.7</ele>
        <time>2013-02-03T12:51:58Z</time>
      </trkpt>
      <trkpt lat="48.29917" lon="2.58229">
        <ele>126</ele>
        <time>2013-02-03T12:52:09Z</time>
      </trkpt>
      <trkpt lat="48.29912" lon="2.5821">
        <ele>123.7</ele>
        <time>2013-02-03T12:52:14Z</time>
      </trkpt>
      <trkpt lat="48.29907" lon="2.58185">
        <ele>124.6</ele>
        <time>2013-02-03T12:52:20Z</time>
      </trkpt>
      <trkpt lat="48.299" lon="2.58156">
        <ele>123.9</ele>
        <time>2013-02-03T12:52:29Z</time>
      </trkpt>
      <trkpt lat="48.29896" lon="2.58139">
        <ele>127.6</ele>
        <time>2013-02-03T12:52:37Z</time>
      </trkpt>
      <trkpt lat="48.29889" lon="2.58111">
        <ele>128</ele>
        <time>2013-02-03T12:52:46Z</time>
      </trkpt>
      <trkpt lat="48.29885" lon="2.58091">
        <ele>133.3</ele>
        <time>2013-02-03T12:52:53Z</time>
      </trkpt>
      <trkpt lat="48.29856" lon="2.58054">
        <ele>158.7</ele>
        <time>2013-02-03T12:53:06Z</time>
      </trkpt>
      <trkpt lat="48.29862" lon="2.58026">
        <ele>147.1</ele>
        <time>2013-02-03T12:53:15Z</time>
      </trkpt>
      <trkpt lat="48.29861" lon="2.58004">
        <ele>154</ele>
        <time>2013-02-03T12:53:23Z</time>
      </trkpt>
      <trkpt lat="48.29869" lon="2.57982">
        <ele>150.6</ele>
        <time>2013-02-03T12:53:32Z</time>
      </trkpt>
      <trkpt lat="48.29875" lon="2.57963">
        <ele>151.4</ele>
        <time>2013-02-03T12:53:41Z</time>
      </trkpt>
      <trkpt lat="48.29882" lon="2.5793">
        <ele>149.8</ele>
        <time>2013-02-03T12:53:56Z</time>
      </trkpt>
      <trkpt lat="48.29888" lon="2.57906">
        <ele>147.8</ele>
        <time>2013-02-03T12:54:13Z</time>
      </trkpt>
      <trkpt lat="48.29885" lon="2.57888">
        <ele>151.5</ele>
        <time>2013-02-03T12:54:28Z</time>
      </trkpt>
      <trkpt lat="48.29891" lon="2.57848">
        <ele>161.3</ele>
        <time>2013-02-03T12:54:58Z</time>
      </trkpt>
      <trkpt lat="48.29892" lon="2.57841">
        <ele>161.5</ele>
        <time>2013-02-03T12:55:05Z</time>
      </trkpt>
      <trkpt lat="48.2989" lon="2.57828">
        <ele>164.6</ele>
        <time>2013-02-03T12:55:21Z</time>
      </trkpt>
      <trkpt lat="48.29864" lon="2.57811">
        <ele>163.3</ele>
        <time>2013-02-03T12:55:57Z</time>
      </trkpt>
      <trkpt lat="48.29843" lon="2.57805">
        <ele>161.7</ele>
        <time>2013-02-03T12:56:07Z</time>
      </trkpt>
      <trkpt lat="48.29843" lon="2.57826">
        <ele>154</ele>
        <time>2013-02-03T12:56:16Z</time>
      </trkpt>
      <trkpt lat="48.29841" lon="2.57859">
        <ele>144</ele>
        <time>2013-02-03T12:56:27Z</time>
      </trkpt>
      <trkpt lat="48.29841" lon="2.57859">
        <ele>144</ele>
        <time>2013-02-03T12:56:33Z</time>
      </trkpt>
      <trkpt lat="48.29841" lon="2.57859">
        <ele>144</ele>
        <time>2013-02-03T12:56:34Z</time>
      </trkpt>
      <trkpt lat="48.29839" lon="2.57878">
        <ele>149.7</ele>
        <time>2013-02-03T12:56:46Z</time>
      </trkpt>
      <trkpt lat="48.29831" lon="2.57906">
        <ele>132.9</ele>
        <time>2013-02-03T12:57:01Z</time>
      </trkpt>
      <trkpt lat="48.29827" lon="2.57932">
        <ele>125.2</ele>
        <time>2013-02-03T12:57:07Z</time>
      </trkpt>
      <trkpt lat="48.29812" lon="2.57941">
        <ele>130</ele>
        <time>2013-02-03T12:57:13Z</time>
      </trkpt>
      <trkpt lat="48.298" lon="2.57936">
        <ele>133.2</ele>
        <time>2013-02-03T12:57:22Z</time>
      </trkpt>
      <trkpt lat="48.29788" lon="2.57917">
        <ele>141.6</ele>
        <time>2013-02-03T12:57:42Z</time>
      </trkpt>
      <trkpt lat="48.29774" lon="2.57919">
        <ele>144.9</ele>
        <time>2013-02-03T12:57:58Z</time>
      </trkpt>
      <trkpt lat="48.29774" lon="2.57919">
        <ele>144.9</ele>
        <time>2013-02-03T12:58:05Z</time>
      </trkpt>
      <trkpt lat="48.29774" lon="2.57919">
        <ele>144.9</ele>
        <time>2013-02-03T12:58:06Z</time>
      </trkpt>
      <trkpt lat="48.29778" lon="2.57897">
        <ele>147.6</ele>
        <time>2013-02-03T12:58:21Z</time>
      </trkpt>
      <trkpt lat="48.29776" lon="2.57876">
        <ele>149.6</ele>
        <time>2013-02-03T12:58:35Z</time>
      </trkpt>
      <trkpt lat="48.29783" lon="2.57866">
        <ele>149.7</ele>
        <time>2013-02-03T12:58:51Z</time>
      </trkpt>
      <trkpt lat="48.29792" lon="2.57859">
        <ele>152.4</ele>
        <time>2013-02-03T12:59:02Z</time>
      </trkpt>
      <trkpt lat="48.29792" lon="2.57859">
        <ele>152.4</ele>
        <time>2013-02-03T12:59:09Z</time>
      </trkpt>
      <trkpt lat="48.29792" lon="2.57859">
        <ele>152.4</ele>
        <time>2013-02-03T12:59:10Z</time>
      </trkpt>
      <trkpt lat="48.29802" lon="2.57825">
        <ele>160.6</ele>
        <time>2013-02-03T13:00:20Z</time>
      </trkpt>
      <trkpt lat="48.29812" lon="2.57788">
        <ele>161.1</ele>
        <time>2013-02-03T13:01:05Z</time>
      </trkpt>
      <trkpt lat="48.29812" lon="2.57769">
        <ele>157.6</ele>
        <time>2013-02-03T13:01:19Z</time>
      </trkpt>
      <trkpt lat="48.29797" lon="2.57776">
        <ele>158.2</ele>
        <time>2013-02-03T13:01:35Z</time>
      </trkpt>
      <trkpt lat="48.29768" lon="2.57781">
        <ele>162.1</ele>
        <time>2013-02-03T13:01:50Z</time>
      </trkpt>
      <trkpt lat="48.29748" lon="2.57801">
        <ele>162.7</ele>
        <time>2013-02-03T13:01:59Z</time>
      </trkpt>
      <trkpt lat="48.29735" lon="2.57783">
        <ele>160.8</ele>
        <time>2013-02-03T13:02:06Z</time>
      </trkpt>
      <trkpt lat="48.29712" lon="2.57777">
        <ele>156.5</ele>
        <time>2013-02-03T13:02:13Z</time>
      </trkpt>
      <trkpt lat="48.29695" lon="2.57772">
        <ele>159.9</ele>
        <time>2013-02-03T13:02:20Z</time>
      </trkpt>
      <trkpt lat="48.29675" lon="2.57754">
        <ele>163</ele>
        <time>2013-02-03T13:02:32Z</time>
      </trkpt>
      <trkpt lat="48.29673" lon="2.57729">
        <ele>163.2</ele>
        <time>2013-02-03T13:02:46Z</time>
      </trkpt>
      <trkpt lat="48.29677" lon="2.57706">
        <ele>165</ele>
        <time>2013-02-03T13:02:56Z</time>
      </trkpt>
      <trkpt lat="48.29677" lon="2.57706">
        <ele>165</ele>
        <time>2013-02-03T13:03:04Z</time>
      </trkpt>
      <trkpt lat="48.29677" lon="2.57706">
        <ele>165</ele>
        <time>2013-02-03T13:03:05Z</time>
      </trkpt>
      <trkpt lat="48.2967" lon="2.57686">
        <ele>165.3</ele>
        <time>2013-02-03T13:03:20Z</time>
      </trkpt>
      <trkpt lat="48.29669" lon="2.57666">
        <ele>163.8</ele>
        <time>2013-02-03T13:03:30Z</time>
      </trkpt>
      <trkpt lat="48.29647" lon="2.57672">
        <ele>156.9</ele>
        <time>2013-02-03T13:03:45Z</time>
      </trkpt>
      <trkpt lat="48.29638" lon="2.57672">
        <ele>156.6</ele>
        <time>2013-02-03T13:03:52Z</time>
      </trkpt>
      <trkpt lat="48.29638" lon="2.57672">
        <ele>156.6</ele>
        <time>2013-02-03T13:04:00Z</time>
      </trkpt>
      <trkpt lat="48.29619" lon="2.57666">
        <ele>154.1</ele>
        <time>2013-02-03T13:04:07Z</time>
      </trkpt>
      <trkpt lat="48.29612" lon="2.57658">
        <ele>156.7</ele>
        <time>2013-02-03T13:04:12Z</time>
      </trkpt>
      <trkpt lat="48.29605" lon="2.57654">
        <ele>154.8</ele>
        <time>2013-02-03T13:04:23Z</time>
      </trkpt>
      <trkpt lat="48.2959" lon="2.57652">
        <ele>159.3</ele>
        <time>2013-02-03T13:04:37Z</time>
      </trkpt>
      <trkpt lat="48.29532" lon="2.57654">
        <ele>156.1</ele>
        <time>2013-02-03T13:04:53Z</time>
      </trkpt>
      <trkpt lat="48.29517" lon="2.57662">
        <ele>155.1</ele>
        <time>2013-02-03T13:04:58Z</time>
      </trkpt>
      <trkpt lat="48.29498" lon="2.57663">
        <ele>157.2</ele>
        <time>2013-02-03T13:05:05Z</time>
      </trkpt>
      <trkpt lat="48.29473" lon="2.57656">
        <ele>154.6</ele>
        <time>2013-02-03T13:05:13Z</time>
      </trkpt>
      <trkpt lat="48.29465" lon="2.57709">
        <ele>154.1</ele>
        <time>2013-02-03T13:05:21Z</time>
      </trkpt>
      <trkpt lat="48.29464" lon="2.57734">
        <ele>152.1</ele>
        <time>2013-02-03T13:05:27Z</time>
      </trkpt>
      <trkpt lat="48.29454" lon="2.57738">
        <ele>149.7</ele>
        <time>2013-02-03T13:05:34Z</time>
      </trkpt>
      <trkpt lat="48.29415" lon="2.578">
        <ele>143.7</ele>
        <time>2013-02-03T13:05:46Z</time>
      </trkpt>
      <trkpt lat="48.2939" lon="2.57808">
        <ele>134</ele>
        <time>2013-02-03T13:05:53Z</time>
      </trkpt>
      <trkpt lat="48.29365" lon="2.57811">
        <ele>140.3</ele>
        <time>2013-02-03T13:06:00Z</time>
      </trkpt>
      <trkpt lat="48.29338" lon="2.57817">
        <ele>141.6</ele>
        <time>2013-02-03T13:06:09Z</time>
      </trkpt>
      <trkpt lat="48.29321" lon="2.57836">
        <ele>141.1</ele>
        <time>2013-02-03T13:06:16Z</time>
      </trkpt>
      <trkpt lat="48.29308" lon="2.57848">
        <ele>144.3</ele>
        <time>2013-02-03T13:06:24Z</time>
      </trkpt>
      <trkpt lat="48.29288" lon="2.57856">
        <ele>148</ele>
        <time>2013-02-03T13:06:34Z</time>
      </trkpt>
      <trkpt lat="48.29269" lon="2.57873">
        <ele>150.3</ele>
        <time>2013-02-03T13:06:43Z</time>
      </trkpt>
      <trkpt lat="48.29236" lon="2.57881">
        <ele>146.7</ele>
        <time>2013-02-03T13:06:52Z</time>
      </trkpt>
      <trkpt lat="48.29219" lon="2.5787">
        <ele>148.3</ele>
        <time>2013-02-03T13:06:58Z</time>
      </trkpt>
      <trkpt lat="48.29211" lon="2.57855">
        <ele>146.7</ele>
        <time>2013-02-03T13:07:04Z</time>
      </trkpt>
      <trkpt lat="48.29196" lon="2.57843">
        <ele>144</ele>
        <time>2013-02-03T13:07:12Z</time>
      </trkpt>
      <trkpt lat="48.29177" lon="2.57812">
        <ele>148.1</ele>
        <time>2013-02-03T13:07:25Z</time>
      </trkpt>
      <trkpt lat="48.2918" lon="2.57795">
        <ele>154.1</ele>
        <time>2013-02-03T13:07:32Z</time>
      </trkpt>
      <trkpt lat="48.2918" lon="2.57795">
        <ele>154.1</ele>
        <time>2013-02-03T13:07:39Z</time>
      </trkpt>
      <trkpt lat="48.2918" lon="2.57795">
        <ele>154.1</ele>
        <time>2013-02-03T13:07:40Z</time>
      </trkpt>
      <trkpt lat="48.29161" lon="2.57811">
        <ele>153.6</ele>
        <time>2013-02-03T13:07:58Z</time>
      </trkpt>
      <trkpt lat="48.29134" lon="2.57835">
        <ele>161.4</ele>
        <time>2013-02-03T13:10:19Z</time>
      </trkpt>
      <trkpt lat="48.29128" lon="2.5785">
        <ele>163.9</ele>
        <time>2013-02-03T13:10:26Z</time>
      </trkpt>
      <trkpt lat="48.29118" lon="2.57868">
        <ele>165.4</ele>
        <time>2013-02-03T13:10:35Z</time>
      </trkpt>
      <trkpt lat="48.29107" lon="2.57891">
        <ele>166</ele>
        <time>2013-02-03T13:10:46Z</time>
      </trkpt>
      <trkpt lat="48.29098" lon="2.57916">
        <ele>166.5</ele>
        <time>2013-02-03T13:10:57Z</time>
      </trkpt>
      <trkpt lat="48.29094" lon="2.57925">
        <ele>166.7</ele>
        <time>2013-02-03T13:11:01Z</time>
      </trkpt>
      <trkpt lat="48.29091" lon="2.57935">
        <ele>167</ele>
        <time>2013-02-03T13:11:05Z</time>
      </trkpt>
      <trkpt lat="48.29082" lon="2.57965">
        <ele>167.5</ele>
        <time>2013-02-03T13:11:17Z</time>
      </trkpt>
      <trkpt lat="48.29077" lon="2.57983">
        <ele>166.5</ele>
        <time>2013-02-03T13:11:23Z</time>
      </trkpt>
      <trkpt lat="48.29074" lon="2.57993">
        <ele>166.2</ele>
        <time>2013-02-03T13:11:26Z</time>
      </trkpt>
      <trkpt lat="48.29071" lon="2.58004">
        <ele>166.6</ele>
        <time>2013-02-03T13:11:29Z</time>
      </trkpt>
      <trkpt lat="48.29066" lon="2.5802">
        <ele>167.2</ele>
        <time>2013-02-03T13:11:33Z</time>
      </trkpt>
      <trkpt lat="48.29063" lon="2.58039">
        <ele>166.9</ele>
        <time>2013-02-03T13:11:38Z</time>
      </trkpt>
      <trkpt lat="48.29062" lon="2.58072">
        <ele>164.2</ele>
        <time>2013-02-03T13:11:46Z</time>
      </trkpt>
      <trkpt lat="48.29064" lon="2.58097">
        <ele>162</ele>
        <time>2013-02-03T13:11:53Z</time>
      </trkpt>
      <trkpt lat="48.29067" lon="2.58129">
        <ele>162.9</ele>
        <time>2013-02-03T13:12:02Z</time>
      </trkpt>
      <trkpt lat="48.29069" lon="2.58144">
        <ele>163.7</ele>
        <time>2013-02-03T13:12:05Z</time>
      </trkpt>
      <trkpt lat="48.29071" lon="2.58165">
        <ele>166.5</ele>
        <time>2013-02-03T13:12:12Z</time>
      </trkpt>
      <trkpt lat="48.29076" lon="2.58188">
        <ele>165.2</ele>
        <time>2013-02-03T13:12:18Z</time>
      </trkpt>
      <trkpt lat="48.29077" lon="2.58218">
        <ele>165.2</ele>
        <time>2013-02-03T13:12:23Z</time>
      </trkpt>
      <trkpt lat="48.29077" lon="2.58245">
        <ele>162.6</ele>
        <time>2013-02-03T13:12:27Z</time>
      </trkpt>
      <trkpt lat="48.29074" lon="2.58264">
        <ele>162.3</ele>
        <time>2013-02-03T13:12:31Z</time>
      </trkpt>
      <trkpt lat="48.29052" lon="2.58337">
        <ele>160.1</ele>
        <time>2013-02-03T13:12:39Z</time>
      </trkpt>
      <trkpt lat="48.29057" lon="2.5837">
        <ele>156.9</ele>
        <time>2013-02-03T13:12:44Z</time>
      </trkpt>
      <trkpt lat="48.29052" lon="2.58371">
        <ele>156.4</ele>
        <time>2013-02-03T13:12:51Z</time>
      </trkpt>
      <trkpt lat="48.29034" lon="2.58364">
        <ele>151.9</ele>
        <time>2013-02-03T13:13:06Z</time>
      </trkpt>
      <trkpt lat="48.29017" lon="2.5835">
        <ele>156.2</ele>
        <time>2013-02-03T13:13:23Z</time>
      </trkpt>
      <trkpt lat="48.29005" lon="2.58345">
        <ele>154.5</ele>
        <time>2013-02-03T13:13:32Z</time>
      </trkpt>
      <trkpt lat="48.28989" lon="2.5834">
        <ele>155.5</ele>
        <time>2013-02-03T13:13:44Z</time>
      </trkpt>
      <trkpt lat="48.2898" lon="2.58341">
        <ele>158</ele>
        <time>2013-02-03T13:13:56Z</time>
      </trkpt>
      <trkpt lat="48.28959" lon="2.58349">
        <ele>158.4</ele>
        <time>2013-02-03T13:14:12Z</time>
      </trkpt>
      <trkpt lat="48.28943" lon="2.58346">
        <ele>162.9</ele>
        <time>2013-02-03T13:14:26Z</time>
      </trkpt>
      <trkpt lat="48.28927" lon="2.58346">
        <ele>161.2</ele>
        <time>2013-02-03T13:14:39Z</time>
      </trkpt>
      <trkpt lat="48.2891" lon="2.58344">
        <ele>160.2</ele>
        <time>2013-02-03T13:14:53Z</time>
      </trkpt>
      <trkpt lat="48.28897" lon="2.58328">
        <ele>159</ele>
        <time>2013-02-03T13:15:08Z</time>
      </trkpt>
      <trkpt lat="48.28887" lon="2.58329">
        <ele>164.9</ele>
        <time>2013-02-03T13:15:27Z</time>
      </trkpt>
      <trkpt lat="48.28908" lon="2.58353">
        <ele>162.5</ele>
        <time>2013-02-03T13:15:39Z</time>
      </trkpt>
      <trkpt lat="48.28916" lon="2.58368">
        <ele>160.4</ele>
        <time>2013-02-03T13:15:47Z</time>
      </trkpt>
      <trkpt lat="48.28933" lon="2.58384">
        <ele>161.4</ele>
        <time>2013-02-03T13:15:55Z</time>
      </trkpt>
      <trkpt lat="48.28941" lon="2.58392">
        <ele>162.7</ele>
        <time>2013-02-03T13:16:00Z</time>
      </trkpt>
      <trkpt lat="48.28954" lon="2.58394">
        <ele>161.9</ele>
        <time>2013-02-03T13:16:06Z</time>
      </trkpt>
      <trkpt lat="48.28966" lon="2.58406">
        <ele>163.3</ele>
        <time>2013-02-03T13:16:12Z</time>
      </trkpt>
      <trkpt lat="48.28976" lon="2.58433">
        <ele>163</ele>
        <time>2013-02-03T13:16:22Z</time>
      </trkpt>
      <trkpt lat="48.28987" lon="2.58441">
        <ele>165</ele>
        <time>2013-02-03T13:16:27Z</time>
      </trkpt>
      <trkpt lat="48.28993" lon="2.58477">
        <ele>167</ele>
        <time>2013-02-03T13:16:36Z</time>
      </trkpt>
      <trkpt lat="48.28993" lon="2.58494">
        <ele>166.4</ele>
        <time>2013-02-03T13:16:42Z</time>
      </trkpt>
      <trkpt lat="48.29014" lon="2.58544">
        <ele>161.3</ele>
        <time>2013-02-03T13:16:59Z</time>
      </trkpt>
      <trkpt lat="48.29018" lon="2.58551">
        <ele>161.6</ele>
        <time>2013-02-03T13:17:02Z</time>
      </trkpt>
      <trkpt lat="48.29031" lon="2.58581">
        <ele>161.9</ele>
        <time>2013-02-03T13:17:12Z</time>
      </trkpt>
      <trkpt lat="48.29039" lon="2.58614">
        <ele>161.6</ele>
        <time>2013-02-03T13:17:21Z</time>
      </trkpt>
      <trkpt lat="48.2905" lon="2.5864">
        <ele>163.2</ele>
        <time>2013-02-03T13:17:31Z</time>
      </trkpt>
      <trkpt lat="48.29071" lon="2.58641">
        <ele>163</ele>
        <time>2013-02-03T13:17:37Z</time>
      </trkpt>
      <trkpt lat="48.29091" lon="2.58645">
        <ele>159.7</ele>
        <time>2013-02-03T13:17:43Z</time>
      </trkpt>
      <trkpt lat="48.29113" lon="2.58667">
        <ele>159.5</ele>
        <time>2013-02-03T13:17:52Z</time>
      </trkpt>
      <trkpt lat="48.29112" lon="2.58705">
        <ele>159.7</ele>
        <time>2013-02-03T13:18:02Z</time>
      </trkpt>
      <trkpt lat="48.29122" lon="2.58722">
        <ele>162.2</ele>
        <time>2013-02-03T13:18:09Z</time>
      </trkpt>
      <trkpt lat="48.29138" lon="2.58753">
        <ele>158.2</ele>
        <time>2013-02-03T13:18:18Z</time>
      </trkpt>
      <trkpt lat="48.29148" lon="2.58767">
        <ele>161.1</ele>
        <time>2013-02-03T13:18:24Z</time>
      </trkpt>
      <trkpt lat="48.2915" lon="2.58771">
        <ele>159</ele>
        <time>2013-02-03T13:18:26Z</time>
      </trkpt>
      <trkpt lat="48.29159" lon="2.58765">
        <ele>159.8</ele>
        <time>2013-02-03T13:18:35Z</time>
      </trkpt>
      <trkpt lat="48.29171" lon="2.58791">
        <ele>155.7</ele>
        <time>2013-02-03T13:18:46Z</time>
      </trkpt>
      <trkpt lat="48.29173" lon="2.58818">
        <ele>151.8</ele>
        <time>2013-02-03T13:18:55Z</time>
      </trkpt>
      <trkpt lat="48.29205" lon="2.58847">
        <ele>134.8</ele>
        <time>2013-02-03T13:19:08Z</time>
      </trkpt>
      <trkpt lat="48.29208" lon="2.58864">
        <ele>128</ele>
        <time>2013-02-03T13:19:17Z</time>
      </trkpt>
      <trkpt lat="48.29222" lon="2.58913">
        <ele>120.1</ele>
        <time>2013-02-03T13:19:26Z</time>
      </trkpt>
      <trkpt lat="48.29217" lon="2.58941">
        <ele>118.9</ele>
        <time>2013-02-03T13:19:35Z</time>
      </trkpt>
      <trkpt lat="48.29203" lon="2.58943">
        <ele>125.5</ele>
        <time>2013-02-03T13:19:44Z</time>
      </trkpt>
      <trkpt lat="48.29192" lon="2.58927">
        <ele>124.6</ele>
        <time>2013-02-03T13:19:50Z</time>
      </trkpt>
      <trkpt lat="48.29178" lon="2.58907">
        <ele>126.6</ele>
        <time>2013-02-03T13:19:59Z</time>
      </trkpt>
      <trkpt lat="48.29162" lon="2.58881">
        <ele>138.9</ele>
        <time>2013-02-03T13:20:09Z</time>
      </trkpt>
      <trkpt lat="48.29153" lon="2.58863">
        <ele>136.8</ele>
        <time>2013-02-03T13:20:18Z</time>
      </trkpt>
      <trkpt lat="48.29141" lon="2.58841">
        <ele>139.8</ele>
        <time>2013-02-03T13:20:33Z</time>
      </trkpt>
      <trkpt lat="48.29131" lon="2.58826">
        <ele>140.2</ele>
        <time>2013-02-03T13:20:45Z</time>
      </trkpt>
      <trkpt lat="48.29131" lon="2.58826">
        <ele>140.2</ele>
        <time>2013-02-03T13:20:54Z</time>
      </trkpt>
      <trkpt lat="48.29127" lon="2.58809">
        <ele>141</ele>
        <time>2013-02-03T13:21:03Z</time>
      </trkpt>
      <trkpt lat="48.29113" lon="2.58797">
        <ele>142.5</ele>
        <time>2013-02-03T13:21:22Z</time>
      </trkpt>
      <trkpt lat="48.29108" lon="2.58792">
        <ele>150.9</ele>
        <time>2013-02-03T13:21:31Z</time>
      </trkpt>
      <trkpt lat="48.29107" lon="2.58792">
        <ele>150.4</ele>
        <time>2013-02-03T13:21:40Z</time>
      </trkpt>
      <trkpt lat="48.29085" lon="2.58775">
        <ele>153</ele>
        <time>2013-02-03T13:22:11Z</time>
      </trkpt>
      <trkpt lat="48.29075" lon="2.58762">
        <ele>153.1</ele>
        <time>2013-02-03T13:22:27Z</time>
      </trkpt>
      <trkpt lat="48.29067" lon="2.58745">
        <ele>155.7</ele>
        <time>2013-02-03T13:22:38Z</time>
      </trkpt>
      <trkpt lat="48.29053" lon="2.5874">
        <ele>159.4</ele>
        <time>2013-02-03T13:22:47Z</time>
      </trkpt>
      <trkpt lat="48.29046" lon="2.58729">
        <ele>162.2</ele>
        <time>2013-02-03T13:22:56Z</time>
      </trkpt>
      <trkpt lat="48.29031" lon="2.58728">
        <ele>162.7</ele>
        <time>2013-02-03T13:23:07Z</time>
      </trkpt>
      <trkpt lat="48.29018" lon="2.58719">
        <ele>165.1</ele>
        <time>2013-02-03T13:23:19Z</time>
      </trkpt>
      <trkpt lat="48.29" lon="2.58737">
        <ele>164.9</ele>
        <time>2013-02-03T13:23:35Z</time>
      </trkpt>
      <trkpt lat="48.28988" lon="2.58778">
        <ele>163.2</ele>
        <time>2013-02-03T13:23:49Z</time>
      </trkpt>
      <trkpt lat="48.28976" lon="2.58809">
        <ele>162.6</ele>
        <time>2013-02-03T13:24:01Z</time>
      </trkpt>
      <trkpt lat="48.28984" lon="2.58835">
        <ele>161.7</ele>
        <time>2013-02-03T13:24:11Z</time>
      </trkpt>
      <trkpt lat="48.29003" lon="2.58844">
        <ele>159.7</ele>
        <time>2013-02-03T13:24:17Z</time>
      </trkpt>
      <trkpt lat="48.29027" lon="2.58857">
        <ele>157.1</ele>
        <time>2013-02-03T13:24:24Z</time>
      </trkpt>
      <trkpt lat="48.29035" lon="2.58868">
        <ele>158</ele>
        <time>2013-02-03T13:24:31Z</time>
      </trkpt>
      <trkpt lat="48.29053" lon="2.58883">
        <ele>156.4</ele>
        <time>2013-02-03T13:24:40Z</time>
      </trkpt>
      <trkpt lat="48.29059" lon="2.58853">
        <ele>155.3</ele>
        <time>2013-02-03T13:24:49Z</time>
      </trkpt>
      <trkpt lat="48.29058" lon="2.58839">
        <ele>157.8</ele>
        <time>2013-02-03T13:24:54Z</time>
      </trkpt>
      <trkpt lat="48.29077" lon="2.58878">
        <ele>147.2</ele>
        <time>2013-02-03T13:25:05Z</time>
      </trkpt>
      <trkpt lat="48.29112" lon="2.58917">
        <ele>142.7</ele>
        <time>2013-02-03T13:25:14Z</time>
      </trkpt>
      <trkpt lat="48.29172" lon="2.5896">
        <ele>139.3</ele>
        <time>2013-02-03T13:25:23Z</time>
      </trkpt>
      <trkpt lat="48.29155" lon="2.58966">
        <ele>139.6</ele>
        <time>2013-02-03T13:25:32Z</time>
      </trkpt>
      <trkpt lat="48.29155" lon="2.58966">
        <ele>139.6</ele>
        <time>2013-02-03T13:25:39Z</time>
      </trkpt>
      <trkpt lat="48.29155" lon="2.58966">
        <ele>139.6</ele>
        <time>2013-02-03T13:25:41Z</time>
      </trkpt>
      <trkpt lat="48.29141" lon="2.58982">
        <ele>141.3</ele>
        <time>2013-02-03T13:25:53Z</time>
      </trkpt>
      <trkpt lat="48.29132" lon="2.59006">
        <ele>137.4</ele>
        <time>2013-02-03T13:26:05Z</time>
      </trkpt>
      <trkpt lat="48.29126" lon="2.59024">
        <ele>137</ele>
        <time>2013-02-03T13:26:13Z</time>
      </trkpt>
      <trkpt lat="48.2914" lon="2.59018">
        <ele>136.9</ele>
        <time>2013-02-03T13:26:28Z</time>
      </trkpt>
      <trkpt lat="48.2914" lon="2.59018">
        <ele>136.9</ele>
        <time>2013-02-03T13:26:35Z</time>
      </trkpt>
      <trkpt lat="48.29147" lon="2.59031">
        <ele>134.3</ele>
        <time>2013-02-03T13:26:42Z</time>
      </trkpt>
      <trkpt lat="48.29144" lon="2.59052">
        <ele>139.8</ele>
        <time>2013-02-03T13:26:57Z</time>
      </trkpt>
      <trkpt lat="48.2913" lon="2.59064">
        <ele>141</ele>
        <time>2013-02-03T13:27:10Z</time>
      </trkpt>
      <trkpt lat="48.2913" lon="2.59064">
        <ele>141</ele>
        <time>2013-02-03T13:27:17Z</time>
      </trkpt>
      <trkpt lat="48.2913" lon="2.59064">
        <ele>141</ele>
        <time>2013-02-03T13:27:20Z</time>
      </trkpt>
      <trkpt lat="48.29114" lon="2.59067">
        <ele>139.1</ele>
        <time>2013-02-03T13:27:31Z</time>
      </trkpt>
      <trkpt lat="48.29114" lon="2.59067">
        <ele>139.1</ele>
        <time>2013-02-03T13:27:38Z</time>
      </trkpt>
      <trkpt lat="48.29114" lon="2.59067">
        <ele>139.1</ele>
        <time>2013-02-03T13:27:39Z</time>
      </trkpt>
      <trkpt lat="48.29103" lon="2.59085">
        <ele>140</ele>
        <time>2013-02-03T13:27:54Z</time>
      </trkpt>
      <trkpt lat="48.29095" lon="2.59094">
        <ele>149.4</ele>
        <time>2013-02-03T13:28:08Z</time>
      </trkpt>
      <trkpt lat="48.29093" lon="2.59087">
        <ele>150.4</ele>
        <time>2013-02-03T13:28:18Z</time>
      </trkpt>
      <trkpt lat="48.29065" lon="2.59074">
        <ele>165</ele>
        <time>2013-02-03T13:29:06Z</time>
      </trkpt>
      <trkpt lat="48.2905" lon="2.59069">
        <ele>158.6</ele>
        <time>2013-02-03T13:29:22Z</time>
      </trkpt>
      <trkpt lat="48.2904" lon="2.5907">
        <ele>160</ele>
        <time>2013-02-03T13:29:27Z</time>
      </trkpt>
      <trkpt lat="48.29035" lon="2.5908">
        <ele>161.8</ele>
        <time>2013-02-03T13:29:39Z</time>
      </trkpt>
      <trkpt lat="48.29032" lon="2.59106">
        <ele>157.9</ele>
        <time>2013-02-03T13:29:54Z</time>
      </trkpt>
      <trkpt lat="48.29023" lon="2.59134">
        <ele>161.5</ele>
        <time>2013-02-03T13:30:17Z</time>
      </trkpt>
      <trkpt lat="48.29022" lon="2.59144">
        <ele>156.5</ele>
        <time>2013-02-03T13:30:20Z</time>
      </trkpt>
      <trkpt lat="48.29027" lon="2.59162">
        <ele>157.3</ele>
        <time>2013-02-03T13:30:25Z</time>
      </trkpt>
      <trkpt lat="48.29029" lon="2.59175">
        <ele>160.1</ele>
        <time>2013-02-03T13:30:30Z</time>
      </trkpt>
      <trkpt lat="48.29026" lon="2.592">
        <ele>167.4</ele>
        <time>2013-02-03T13:30:42Z</time>
      </trkpt>
      <trkpt lat="48.29025" lon="2.5925">
        <ele>158.6</ele>
        <time>2013-02-03T13:30:58Z</time>
      </trkpt>
      <trkpt lat="48.29026" lon="2.59275">
        <ele>157.4</ele>
        <time>2013-02-03T13:31:07Z</time>
      </trkpt>
      <trkpt lat="48.29026" lon="2.59306">
        <ele>157.8</ele>
        <time>2013-02-03T13:31:15Z</time>
      </trkpt>
      <trkpt lat="48.29031" lon="2.59334">
        <ele>156.3</ele>
        <time>2013-02-03T13:31:23Z</time>
      </trkpt>
      <trkpt lat="48.29047" lon="2.59349">
        <ele>147.4</ele>
        <time>2013-02-03T13:31:30Z</time>
      </trkpt>
      <trkpt lat="48.29068" lon="2.59394">
        <ele>150.2</ele>
        <time>2013-02-03T13:31:36Z</time>
      </trkpt>
      <trkpt lat="48.29073" lon="2.59425">
        <ele>150.5</ele>
        <time>2013-02-03T13:31:42Z</time>
      </trkpt>
      <trkpt lat="48.29074" lon="2.59451">
        <ele>152.5</ele>
        <time>2013-02-03T13:31:47Z</time>
      </trkpt>
      <trkpt lat="48.29077" lon="2.59479">
        <ele>147.6</ele>
        <time>2013-02-03T13:31:54Z</time>
      </trkpt>
      <trkpt lat="48.29084" lon="2.595">
        <ele>150.9</ele>
        <time>2013-02-03T13:32:02Z</time>
      </trkpt>
      <trkpt lat="48.29087" lon="2.5951">
        <ele>150.8</ele>
        <time>2013-02-03T13:32:09Z</time>
      </trkpt>
      <trkpt lat="48.29092" lon="2.59513">
        <ele>153.7</ele>
        <time>2013-02-03T13:32:19Z</time>
      </trkpt>
      <trkpt lat="48.29092" lon="2.59513">
        <ele>153.7</ele>
        <time>2013-02-03T13:32:27Z</time>
      </trkpt>
      <trkpt lat="48.29092" lon="2.59513">
        <ele>153.7</ele>
        <time>2013-02-03T13:32:28Z</time>
      </trkpt>
      <trkpt lat="48.291" lon="2.59536">
        <ele>145.1</ele>
        <time>2013-02-03T13:32:36Z</time>
      </trkpt>
      <trkpt lat="48.29115" lon="2.59564">
        <ele>140.4</ele>
        <time>2013-02-03T13:32:47Z</time>
      </trkpt>
      <trkpt lat="48.29133" lon="2.59573">
        <ele>135.7</ele>
        <time>2013-02-03T13:32:59Z</time>
      </trkpt>
      <trkpt lat="48.29134" lon="2.59583">
        <ele>130</ele>
        <time>2013-02-03T13:33:10Z</time>
      </trkpt>
      <trkpt lat="48.29138" lon="2.59602">
        <ele>126.8</ele>
        <time>2013-02-03T13:33:21Z</time>
      </trkpt>
      <trkpt lat="48.29132" lon="2.59634">
        <ele>125.4</ele>
        <time>2013-02-03T13:33:30Z</time>
      </trkpt>
      <trkpt lat="48.2912" lon="2.59657">
        <ele>126.3</ele>
        <time>2013-02-03T13:33:40Z</time>
      </trkpt>
      <trkpt lat="48.29108" lon="2.5967">
        <ele>126.5</ele>
        <time>2013-02-03T13:33:51Z</time>
      </trkpt>
      <trkpt lat="48.29079" lon="2.59678">
        <ele>119.4</ele>
        <time>2013-02-03T13:34:03Z</time>
      </trkpt>
      <trkpt lat="48.29063" lon="2.59677">
        <ele>123</ele>
        <time>2013-02-03T13:34:11Z</time>
      </trkpt>
      <trkpt lat="48.29051" lon="2.59675">
        <ele>126</ele>
        <time>2013-02-03T13:34:20Z</time>
      </trkpt>
      <trkpt lat="48.29045" lon="2.59673">
        <ele>127.7</ele>
        <time>2013-02-03T13:34:35Z</time>
      </trkpt>
      <trkpt lat="48.29017" lon="2.59652">
        <ele>134.6</ele>
        <time>2013-02-03T13:35:23Z</time>
      </trkpt>
      <trkpt lat="48.29006" lon="2.5965">
        <ele>136.4</ele>
        <time>2013-02-03T13:35:29Z</time>
      </trkpt>
      <trkpt lat="48.28986" lon="2.59642">
        <ele>132.3</ele>
        <time>2013-02-03T13:35:38Z</time>
      </trkpt>
      <trkpt lat="48.2897" lon="2.59625">
        <ele>134.9</ele>
        <time>2013-02-03T13:35:49Z</time>
      </trkpt>
      <trkpt lat="48.28965" lon="2.59624">
        <ele>131.1</ele>
        <time>2013-02-03T13:35:55Z</time>
      </trkpt>
      <trkpt lat="48.28964" lon="2.59623">
        <ele>132</ele>
        <time>2013-02-03T13:36:03Z</time>
      </trkpt>
      <trkpt lat="48.28948" lon="2.59585">
        <ele>144.3</ele>
        <time>2013-02-03T13:36:39Z</time>
      </trkpt>
      <trkpt lat="48.28941" lon="2.59557">
        <ele>150.8</ele>
        <time>2013-02-03T13:37:01Z</time>
      </trkpt>
      <trkpt lat="48.28967" lon="2.59542">
        <ele>143.9</ele>
        <time>2013-02-03T13:37:35Z</time>
      </trkpt>
      <trkpt lat="48.28972" lon="2.59512">
        <ele>144.3</ele>
        <time>2013-02-03T13:37:49Z</time>
      </trkpt>
      <trkpt lat="48.28982" lon="2.59494">
        <ele>148.5</ele>
        <time>2013-02-03T13:38:01Z</time>
      </trkpt>
      <trkpt lat="48.28991" lon="2.59481">
        <ele>150.4</ele>
        <time>2013-02-03T13:38:11Z</time>
      </trkpt>
      <trkpt lat="48.28988" lon="2.5945">
        <ele>154.7</ele>
        <time>2013-02-03T13:38:29Z</time>
      </trkpt>
      <trkpt lat="48.28978" lon="2.59433">
        <ele>155.5</ele>
        <time>2013-02-03T13:38:42Z</time>
      </trkpt>
      <trkpt lat="48.2898" lon="2.59406">
        <ele>152.9</ele>
        <time>2013-02-03T13:38:57Z</time>
      </trkpt>
      <trkpt lat="48.28984" lon="2.59378">
        <ele>160.9</ele>
        <time>2013-02-03T13:39:20Z</time>
      </trkpt>
      <trkpt lat="48.28994" lon="2.59338">
        <ele>170.6</ele>
        <time>2013-02-03T13:40:03Z</time>
      </trkpt>
      <trkpt lat="48.28991" lon="2.59315">
        <ele>166.9</ele>
        <time>2013-02-03T13:40:18Z</time>
      </trkpt>
      <trkpt lat="48.28982" lon="2.59287">
        <ele>162.7</ele>
        <time>2013-02-03T13:40:28Z</time>
      </trkpt>
      <trkpt lat="48.28973" lon="2.59271">
        <ele>166.9</ele>
        <time>2013-02-03T13:40:34Z</time>
      </trkpt>
      <trkpt lat="48.28962" lon="2.5926">
        <ele>166.6</ele>
        <time>2013-02-03T13:40:40Z</time>
      </trkpt>
      <trkpt lat="48.2895" lon="2.59285">
        <ele>158.5</ele>
        <time>2013-02-03T13:40:48Z</time>
      </trkpt>
      <trkpt lat="48.2894" lon="2.59314">
        <ele>155.1</ele>
        <time>2013-02-03T13:40:54Z</time>
      </trkpt>
      <trkpt lat="48.28915" lon="2.59329">
        <ele>152.8</ele>
        <time>2013-02-03T13:41:00Z</time>
      </trkpt>
      <trkpt lat="48.28895" lon="2.59339">
        <ele>153.1</ele>
        <time>2013-02-03T13:41:05Z</time>
      </trkpt>
      <trkpt lat="48.28876" lon="2.59341">
        <ele>153.5</ele>
        <time>2013-02-03T13:41:11Z</time>
      </trkpt>
      <trkpt lat="48.28849" lon="2.59336">
        <ele>152.7</ele>
        <time>2013-02-03T13:41:20Z</time>
      </trkpt>
      <trkpt lat="48.2883" lon="2.59336">
        <ele>145.4</ele>
        <time>2013-02-03T13:41:25Z</time>
      </trkpt>
      <trkpt lat="48.28817" lon="2.59335">
        <ele>139.4</ele>
        <time>2013-02-03T13:41:33Z</time>
      </trkpt>
      <trkpt lat="48.28824" lon="2.59379">
        <ele>136.7</ele>
        <time>2013-02-03T13:41:45Z</time>
      </trkpt>
      <trkpt lat="48.28828" lon="2.59396">
        <ele>138.1</ele>
        <time>2013-02-03T13:41:52Z</time>
      </trkpt>
      <trkpt lat="48.28834" lon="2.59418">
        <ele>137.8</ele>
        <time>2013-02-03T13:42:06Z</time>
      </trkpt>
      <trkpt lat="48.28849" lon="2.59474">
        <ele>137</ele>
        <time>2013-02-03T13:42:23Z</time>
      </trkpt>
      <trkpt lat="48.28858" lon="2.59495">
        <ele>135.3</ele>
        <time>2013-02-03T13:42:31Z</time>
      </trkpt>
      <trkpt lat="48.28831" lon="2.59528">
        <ele>129.9</ele>
        <time>2013-02-03T13:42:36Z</time>
      </trkpt>
      <trkpt lat="48.28802" lon="2.59551">
        <ele>127</ele>
        <time>2013-02-03T13:42:41Z</time>
      </trkpt>
      <trkpt lat="48.28771" lon="2.5957">
        <ele>122.6</ele>
        <time>2013-02-03T13:42:47Z</time>
      </trkpt>
      <trkpt lat="48.2876" lon="2.59554">
        <ele>120.5</ele>
        <time>2013-02-03T13:42:52Z</time>
      </trkpt>
      <trkpt lat="48.28756" lon="2.59516">
        <ele>121.5</ele>
        <time>2013-02-03T13:43:00Z</time>
      </trkpt>
      <trkpt lat="48.28751" lon="2.59494">
        <ele>122</ele>
        <time>2013-02-03T13:43:05Z</time>
      </trkpt>
      <trkpt lat="48.28744" lon="2.59466">
        <ele>122.6</ele>
        <time>2013-02-03T13:43:11Z</time>
      </trkpt>
      <trkpt lat="48.28736" lon="2.59437">
        <ele>122.7</ele>
        <time>2013-02-03T13:43:17Z</time>
      </trkpt>
      <trkpt lat="48.28724" lon="2.59401">
        <ele>123.3</ele>
        <time>2013-02-03T13:43:23Z</time>
      </trkpt>
      <trkpt lat="48.28718" lon="2.59383">
        <ele>123.4</ele>
        <time>2013-02-03T13:43:26Z</time>
      </trkpt>
      <trkpt lat="48.28708" lon="2.59348">
        <ele>123.9</ele>
        <time>2013-02-03T13:43:32Z</time>
      </trkpt>
      <trkpt lat="48.28696" lon="2.59315">
        <ele>124.6</ele>
        <time>2013-02-03T13:43:38Z</time>
      </trkpt>
      <trkpt lat="48.28683" lon="2.59284">
        <ele>125.2</ele>
        <time>2013-02-03T13:43:44Z</time>
      </trkpt>
      <trkpt lat="48.2867" lon="2.59257">
        <ele>125.7</ele>
        <time>2013-02-03T13:43:50Z</time>
      </trkpt>
      <trkpt lat="48.28658" lon="2.5923">
        <ele>126.2</ele>
        <time>2013-02-03T13:43:56Z</time>
      </trkpt>
      <trkpt lat="48.28644" lon="2.592">
        <ele>129.4</ele>
        <time>2013-02-03T13:44:05Z</time>
      </trkpt>
      <trkpt lat="48.28655" lon="2.59176">
        <ele>130.1</ele>
        <time>2013-02-03T13:44:12Z</time>
      </trkpt>
      <trkpt lat="48.28659" lon="2.59168">
        <ele>130.3</ele>
        <time>2013-02-03T13:44:15Z</time>
      </trkpt>
      <trkpt lat="48.28669" lon="2.59138">
        <ele>129.6</ele>
        <time>2013-02-03T13:44:25Z</time>
      </trkpt>
      <trkpt lat="48.28672" lon="2.59128">
        <ele>129.5</ele>
        <time>2013-02-03T13:44:28Z</time>
      </trkpt>
      <trkpt lat="48.28682" lon="2.59098">
        <ele>130.8</ele>
        <time>2013-02-03T13:44:37Z</time>
      </trkpt>
      <trkpt lat="48.28691" lon="2.59069">
        <ele>131.9</ele>
        <time>2013-02-03T13:44:46Z</time>
      </trkpt>
      <trkpt lat="48.28699" lon="2.59043">
        <ele>134.1</ele>
        <time>2013-02-03T13:44:55Z</time>
      </trkpt>
      <trkpt lat="48.28708" lon="2.59014">
        <ele>137.8</ele>
        <time>2013-02-03T13:45:05Z</time>
      </trkpt>
      <trkpt lat="48.28713" lon="2.58998">
        <ele>138.3</ele>
        <time>2013-02-03T13:45:11Z</time>
      </trkpt>
      <trkpt lat="48.28727" lon="2.58977">
        <ele>140.9</ele>
        <time>2013-02-03T13:45:20Z</time>
      </trkpt>
      <trkpt lat="48.28739" lon="2.58967">
        <ele>146</ele>
        <time>2013-02-03T13:45:30Z</time>
      </trkpt>
      <trkpt lat="48.28752" lon="2.58953">
        <ele>142.8</ele>
        <time>2013-02-03T13:45:41Z</time>
      </trkpt>
      <trkpt lat="48.28769" lon="2.58937">
        <ele>145</ele>
        <time>2013-02-03T13:45:56Z</time>
      </trkpt>
      <trkpt lat="48.28782" lon="2.5892">
        <ele>144.5</ele>
        <time>2013-02-03T13:46:08Z</time>
      </trkpt>
      <trkpt lat="48.28797" lon="2.58904">
        <ele>140.9</ele>
        <time>2013-02-03T13:46:21Z</time>
      </trkpt>
      <trkpt lat="48.28805" lon="2.58896">
        <ele>141.2</ele>
        <time>2013-02-03T13:46:29Z</time>
      </trkpt>
      <trkpt lat="48.28825" lon="2.58885">
        <ele>147</ele>
        <time>2013-02-03T13:46:45Z</time>
      </trkpt>
      <trkpt lat="48.28839" lon="2.58888">
        <ele>154</ele>
        <time>2013-02-03T13:46:57Z</time>
      </trkpt>
      <trkpt lat="48.28854" lon="2.58891">
        <ele>160</ele>
        <time>2013-02-03T13:47:11Z</time>
      </trkpt>
      <trkpt lat="48.28872" lon="2.58887">
        <ele>164.4</ele>
        <time>2013-02-03T13:47:29Z</time>
      </trkpt>
      <trkpt lat="48.28883" lon="2.58889">
        <ele>164.8</ele>
        <time>2013-02-03T13:47:38Z</time>
      </trkpt>
      <trkpt lat="48.28899" lon="2.58875">
        <ele>165.1</ele>
        <time>2013-02-03T13:47:55Z</time>
      </trkpt>
      <trkpt lat="48.28897" lon="2.58837">
        <ele>167.3</ele>
        <time>2013-02-03T13:48:08Z</time>
      </trkpt>
      <trkpt lat="48.28898" lon="2.58818">
        <ele>167.6</ele>
        <time>2013-02-03T13:48:14Z</time>
      </trkpt>
      <trkpt lat="48.28891" lon="2.58795">
        <ele>165.8</ele>
        <time>2013-02-03T13:48:23Z</time>
      </trkpt>
      <trkpt lat="48.28872" lon="2.58783">
        <ele>164.5</ele>
        <time>2013-02-03T13:48:33Z</time>
      </trkpt>
      <trkpt lat="48.28862" lon="2.58778">
        <ele>164.3</ele>
        <time>2013-02-03T13:48:38Z</time>
      </trkpt>
      <trkpt lat="48.28841" lon="2.58763">
        <ele>163.4</ele>
        <time>2013-02-03T13:48:49Z</time>
      </trkpt>
      <trkpt lat="48.28831" lon="2.58756">
        <ele>162.1</ele>
        <time>2013-02-03T13:48:54Z</time>
      </trkpt>
      <trkpt lat="48.28812" lon="2.58744">
        <ele>162.7</ele>
        <time>2013-02-03T13:49:05Z</time>
      </trkpt>
      <trkpt lat="48.28785" lon="2.5877">
        <ele>161.4</ele>
        <time>2013-02-03T13:49:18Z</time>
      </trkpt>
      <trkpt lat="48.28766" lon="2.58766">
        <ele>161</ele>
        <time>2013-02-03T13:49:24Z</time>
      </trkpt>
      <trkpt lat="48.28751" lon="2.58753">
        <ele>162.1</ele>
        <time>2013-02-03T13:49:30Z</time>
      </trkpt>
      <trkpt lat="48.28734" lon="2.58737">
        <ele>162.8</ele>
        <time>2013-02-03T13:49:38Z</time>
      </trkpt>
      <trkpt lat="48.28713" lon="2.58721">
        <ele>161.9</ele>
        <time>2013-02-03T13:49:47Z</time>
      </trkpt>
      <trkpt lat="48.28707" lon="2.58716">
        <ele>161.7</ele>
        <time>2013-02-03T13:49:50Z</time>
      </trkpt>
      <trkpt lat="48.28681" lon="2.58716">
        <ele>162.9</ele>
        <time>2013-02-03T13:49:59Z</time>
      </trkpt>
      <trkpt lat="48.28666" lon="2.58723">
        <ele>163.5</ele>
        <time>2013-02-03T13:50:04Z</time>
      </trkpt>
      <trkpt lat="48.28639" lon="2.58724">
        <ele>163.4</ele>
        <time>2013-02-03T13:50:12Z</time>
      </trkpt>
      <trkpt lat="48.28619" lon="2.58714">
        <ele>163.9</ele>
        <time>2013-02-03T13:50:18Z</time>
      </trkpt>
      <trkpt lat="48.2861" lon="2.58709">
        <ele>163.9</ele>
        <time>2013-02-03T13:50:21Z</time>
      </trkpt>
      <trkpt lat="48.28602" lon="2.58704">
        <ele>163.2</ele>
        <time>2013-02-03T13:50:24Z</time>
      </trkpt>
      <trkpt lat="48.28595" lon="2.58699">
        <ele>162.8</ele>
        <time>2013-02-03T13:50:27Z</time>
      </trkpt>
      <trkpt lat="48.28589" lon="2.58695">
        <ele>164.7</ele>
        <time>2013-02-03T13:50:30Z</time>
      </trkpt>
      <trkpt lat="48.28577" lon="2.58696">
        <ele>161</ele>
        <time>2013-02-03T13:50:38Z</time>
      </trkpt>
      <trkpt lat="48.28564" lon="2.58737">
        <ele>151.6</ele>
        <time>2013-02-03T13:50:47Z</time>
      </trkpt>
      <trkpt lat="48.28561" lon="2.58781">
        <ele>146.6</ele>
        <time>2013-02-03T13:50:53Z</time>
      </trkpt>
      <trkpt lat="48.28558" lon="2.58877">
        <ele>145.7</ele>
        <time>2013-02-03T13:51:00Z</time>
      </trkpt>
      <trkpt lat="48.28536" lon="2.58948">
        <ele>146.5</ele>
        <time>2013-02-03T13:51:06Z</time>
      </trkpt>
      <trkpt lat="48.28514" lon="2.5897">
        <ele>148.1</ele>
        <time>2013-02-03T13:51:13Z</time>
      </trkpt>
      <trkpt lat="48.28501" lon="2.58979">
        <ele>135.5</ele>
        <time>2013-02-03T13:51:20Z</time>
      </trkpt>
      <trkpt lat="48.28484" lon="2.58946">
        <ele>138.2</ele>
        <time>2013-02-03T13:51:31Z</time>
      </trkpt>
      <trkpt lat="48.28471" lon="2.58918">
        <ele>139.1</ele>
        <time>2013-02-03T13:51:42Z</time>
      </trkpt>
      <trkpt lat="48.28462" lon="2.58898">
        <ele>140.9</ele>
        <time>2013-02-03T13:51:52Z</time>
      </trkpt>
      <trkpt lat="48.28453" lon="2.58873">
        <ele>142.9</ele>
        <time>2013-02-03T13:52:02Z</time>
      </trkpt>
      <trkpt lat="48.28436" lon="2.58851">
        <ele>143.9</ele>
        <time>2013-02-03T13:52:15Z</time>
      </trkpt>
      <trkpt lat="48.28408" lon="2.58891">
        <ele>141.6</ele>
        <time>2013-02-03T13:52:25Z</time>
      </trkpt>
      <trkpt lat="48.28388" lon="2.5892">
        <ele>139.6</ele>
        <time>2013-02-03T13:52:29Z</time>
      </trkpt>
      <trkpt lat="48.28361" lon="2.58962">
        <ele>137.8</ele>
        <time>2013-02-03T13:52:35Z</time>
      </trkpt>
      <trkpt lat="48.28345" lon="2.58988">
        <ele>137.4</ele>
        <time>2013-02-03T13:52:39Z</time>
      </trkpt>
      <trkpt lat="48.2833" lon="2.5901">
        <ele>141</ele>
        <time>2013-02-03T13:52:42Z</time>
      </trkpt>
      <trkpt lat="48.28317" lon="2.59032">
        <ele>140.2</ele>
        <time>2013-02-03T13:52:45Z</time>
      </trkpt>
      <trkpt lat="48.28305" lon="2.59048">
        <ele>142.6</ele>
        <time>2013-02-03T13:52:48Z</time>
      </trkpt>
      <trkpt lat="48.28294" lon="2.59064">
        <ele>138</ele>
        <time>2013-02-03T13:52:51Z</time>
      </trkpt>
      <trkpt lat="48.28284" lon="2.5908">
        <ele>136.2</ele>
        <time>2013-02-03T13:52:54Z</time>
      </trkpt>
      <trkpt lat="48.28274" lon="2.59094">
        <ele>136.1</ele>
        <time>2013-02-03T13:52:57Z</time>
      </trkpt>
      <trkpt lat="48.28259" lon="2.59117">
        <ele>136.8</ele>
        <time>2013-02-03T13:53:02Z</time>
      </trkpt>
      <trkpt lat="48.28239" lon="2.59146">
        <ele>138.5</ele>
        <time>2013-02-03T13:53:08Z</time>
      </trkpt>
      <trkpt lat="48.28227" lon="2.59161">
        <ele>139</ele>
        <time>2013-02-03T13:53:12Z</time>
      </trkpt>
      <trkpt lat="48.28217" lon="2.59176">
        <ele>138.2</ele>
        <time>2013-02-03T13:53:17Z</time>
      </trkpt>
      <trkpt lat="48.28205" lon="2.59185">
        <ele>136.5</ele>
        <time>2013-02-03T13:53:25Z</time>
      </trkpt>
      <trkpt lat="48.28189" lon="2.59152">
        <ele>139.3</ele>
        <time>2013-02-03T13:53:39Z</time>
      </trkpt>
      <trkpt lat="48.2818" lon="2.59141">
        <ele>140.3</ele>
        <time>2013-02-03T13:53:45Z</time>
      </trkpt>
      <trkpt lat="48.28166" lon="2.59119">
        <ele>141.1</ele>
        <time>2013-02-03T13:54:00Z</time>
      </trkpt>
      <trkpt lat="48.28157" lon="2.59096">
        <ele>143.4</ele>
        <time>2013-02-03T13:54:13Z</time>
      </trkpt>
      <trkpt lat="48.2815" lon="2.59082">
        <ele>142.4</ele>
        <time>2013-02-03T13:54:21Z</time>
      </trkpt>
      <trkpt lat="48.28139" lon="2.59056">
        <ele>147</ele>
        <time>2013-02-03T13:54:35Z</time>
      </trkpt>
      <trkpt lat="48.28129" lon="2.59036">
        <ele>147.6</ele>
        <time>2013-02-03T13:54:49Z</time>
      </trkpt>
      <trkpt lat="48.28123" lon="2.59014">
        <ele>152.8</ele>
        <time>2013-02-03T13:55:03Z</time>
      </trkpt>
      <trkpt lat="48.28111" lon="2.59017">
        <ele>152.2</ele>
        <time>2013-02-03T13:55:21Z</time>
      </trkpt>
      <trkpt lat="48.28109" lon="2.59114">
        <ele>149.5</ele>
        <time>2013-02-03T13:55:31Z</time>
      </trkpt>
      <trkpt lat="48.28099" lon="2.59162">
        <ele>150.9</ele>
        <time>2013-02-03T13:55:37Z</time>
      </trkpt>
      <trkpt lat="48.28101" lon="2.5919">
        <ele>150.5</ele>
        <time>2013-02-03T13:55:44Z</time>
      </trkpt>
      <trkpt lat="48.28105" lon="2.59212">
        <ele>150.4</ele>
        <time>2013-02-03T13:55:50Z</time>
      </trkpt>
      <trkpt lat="48.28111" lon="2.59247">
        <ele>151.3</ele>
        <time>2013-02-03T13:56:00Z</time>
      </trkpt>
      <trkpt lat="48.281" lon="2.5927">
        <ele>149.9</ele>
        <time>2013-02-03T13:56:08Z</time>
      </trkpt>
      <trkpt lat="48.28082" lon="2.59292">
        <ele>152.2</ele>
        <time>2013-02-03T13:56:18Z</time>
      </trkpt>
      <trkpt lat="48.28068" lon="2.59317">
        <ele>155</ele>
        <time>2013-02-03T13:56:27Z</time>
      </trkpt>
      <trkpt lat="48.28065" lon="2.59327">
        <ele>154.9</ele>
        <time>2013-02-03T13:56:30Z</time>
      </trkpt>
      <trkpt lat="48.28052" lon="2.59349">
        <ele>159.9</ele>
        <time>2013-02-03T13:56:39Z</time>
      </trkpt>
      <trkpt lat="48.28046" lon="2.59355">
        <ele>160.4</ele>
        <time>2013-02-03T13:56:42Z</time>
      </trkpt>
      <trkpt lat="48.28034" lon="2.59361">
        <ele>162.1</ele>
        <time>2013-02-03T13:56:47Z</time>
      </trkpt>
      <trkpt lat="48.28018" lon="2.5937">
        <ele>163.7</ele>
        <time>2013-02-03T13:56:56Z</time>
      </trkpt>
      <trkpt lat="48.27997" lon="2.59377">
        <ele>165.9</ele>
        <time>2013-02-03T13:57:06Z</time>
      </trkpt>
      <trkpt lat="48.27982" lon="2.59394">
        <ele>161.7</ele>
        <time>2013-02-03T13:57:17Z</time>
      </trkpt>
      <trkpt lat="48.27992" lon="2.59435">
        <ele>162.5</ele>
        <time>2013-02-03T13:57:27Z</time>
      </trkpt>
      <trkpt lat="48.27997" lon="2.59467">
        <ele>162.3</ele>
        <time>2013-02-03T13:57:33Z</time>
      </trkpt>
      <trkpt lat="48.28" lon="2.59503">
        <ele>161.9</ele>
        <time>2013-02-03T13:57:39Z</time>
      </trkpt>
      <trkpt lat="48.28001" lon="2.59521">
        <ele>161.4</ele>
        <time>2013-02-03T13:57:42Z</time>
      </trkpt>
      <trkpt lat="48.28013" lon="2.59549">
        <ele>161.2</ele>
        <time>2013-02-03T13:57:48Z</time>
      </trkpt>
      <trkpt lat="48.28023" lon="2.59573">
        <ele>150.8</ele>
        <time>2013-02-03T13:57:55Z</time>
      </trkpt>
      <trkpt lat="48.28022" lon="2.59613">
        <ele>139.3</ele>
        <time>2013-02-03T13:58:01Z</time>
      </trkpt>
      <trkpt lat="48.28035" lon="2.59649">
        <ele>134.6</ele>
        <time>2013-02-03T13:58:07Z</time>
      </trkpt>
      <trkpt lat="48.28098" lon="2.59657">
        <ele>128.4</ele>
        <time>2013-02-03T13:58:14Z</time>
      </trkpt>
      <trkpt lat="48.28111" lon="2.59636">
        <ele>129.3</ele>
        <time>2013-02-03T13:58:19Z</time>
      </trkpt>
      <trkpt lat="48.28118" lon="2.59615">
        <ele>131.4</ele>
        <time>2013-02-03T13:58:23Z</time>
      </trkpt>
      <trkpt lat="48.28134" lon="2.59575">
        <ele>130.4</ele>
        <time>2013-02-03T13:58:29Z</time>
      </trkpt>
      <trkpt lat="48.28147" lon="2.59552">
        <ele>130.1</ele>
        <time>2013-02-03T13:58:34Z</time>
      </trkpt>
      <trkpt lat="48.2817" lon="2.59564">
        <ele>130.5</ele>
        <time>2013-02-03T13:58:40Z</time>
      </trkpt>
      <trkpt lat="48.2819" lon="2.59589">
        <ele>128.2</ele>
        <time>2013-02-03T13:58:45Z</time>
      </trkpt>
      <trkpt lat="48.28214" lon="2.59616">
        <ele>125.4</ele>
        <time>2013-02-03T13:58:50Z</time>
      </trkpt>
      <trkpt lat="48.28244" lon="2.59648">
        <ele>122.4</ele>
        <time>2013-02-03T13:58:56Z</time>
      </trkpt>
      <trkpt lat="48.28266" lon="2.59673">
        <ele>122.2</ele>
        <time>2013-02-03T13:59:01Z</time>
      </trkpt>
      <trkpt lat="48.28292" lon="2.59706">
        <ele>120.6</ele>
        <time>2013-02-03T13:59:08Z</time>
      </trkpt>
      <trkpt lat="48.28309" lon="2.59724">
        <ele>119.4</ele>
        <time>2013-02-03T13:59:13Z</time>
      </trkpt>
      <trkpt lat="48.28323" lon="2.59743">
        <ele>117.4</ele>
        <time>2013-02-03T13:59:20Z</time>
      </trkpt>
      <trkpt lat="48.28327" lon="2.59784">
        <ele>118.6</ele>
        <time>2013-02-03T13:59:31Z</time>
      </trkpt>
      <trkpt lat="48.28323" lon="2.59787">
        <ele>119.7</ele>
        <time>2013-02-03T13:59:36Z</time>
      </trkpt>
      <trkpt lat="48.28323" lon="2.59787">
        <ele>75.7</ele>
        <time>2013-02-03T13:59:49Z</time>
      </trkpt>
    </trkseg>
  </trk>
</gpx>